<?xml version='1.0' encoding='UTF-8'?><gpx version="1.1" creator="JPX - https://github.com/jenetics/jpx" xmlns="http://www.topografix.com/GPX/1/1"><trk><trkseg><trkpt lat="56.88605708486701" lon="60.724014520301395"><ele>286.0</ele><time>2026-04-24T16:20:04.014Z</time></trkpt><trkpt lat="56.886028072936654" lon="60.7238853870146"><ele>286.0</ele><time>2026-04-24T16:20:05.014Z</time></trkpt><trkpt lat="56.88594668008959" lon="60.723798565728735"><ele>286.0</ele><time>2026-04-24T16:20:11.014Z</time></trkpt><trkpt lat="56.885935182713276" lon="60.72368075844059"><ele>286.0</ele><time>2026-04-24T16:20:14.014Z</time></trkpt><trkpt lat="56.88591251550282" lon="60.72350928714319"><ele>286.0</ele><time>2026-04-24T16:20:17.014Z</time></trkpt><trkpt lat="56.88604719559559" lon="60.723799742889376"><ele>285.99999999999994</ele><time>2026-04-24T16:23:41.833Z</time></trkpt><trkpt lat="56.88608430062925" lon="60.72389509120549"><ele>286.0</ele><time>2026-04-24T16:23:49.833Z</time></trkpt><trkpt lat="56.88614353326234" lon="60.72393676108624"><ele>286.0</ele><time>2026-04-24T16:23:57.833Z</time></trkpt><trkpt lat="56.88617508786813" lon="60.72404671061192"><ele>286.0</ele><time>2026-04-24T16:24:01.833Z</time></trkpt><trkpt lat="56.886148714292005" lon="60.72394032631491"><ele>286.0</ele><time>2026-04-24T16:24:50.832Z</time></trkpt><trkpt lat="56.88616432333428" lon="60.72381033211525"><ele>285.99999999999994</ele><time>2026-04-24T16:25:10.832Z</time></trkpt><trkpt lat="56.88612840931256" lon="60.723647197314165"><ele>286.0</ele><time>2026-04-24T16:25:13.832Z</time></trkpt><trkpt lat="56.88606683151268" lon="60.723494124739545"><ele>285.6</ele><time>2026-04-24T16:25:15.832Z</time></trkpt><trkpt lat="56.886023465869386" lon="60.723303014080244"><ele>285.20000000000005</ele><time>2026-04-24T16:25:17.832Z</time></trkpt><trkpt lat="56.88598256806215" lon="60.723167538958755"><ele>284.79999999999995</ele><time>2026-04-24T16:25:19.832Z</time></trkpt><trkpt lat="56.885955034561185" lon="60.723053311113574"><ele>284.4</ele><time>2026-04-24T16:25:21.832Z</time></trkpt><trkpt lat="56.88599641223145" lon="60.723157033815994"><ele>284.0</ele><time>2026-04-24T16:25:27.831Z</time></trkpt><trkpt lat="56.88605346228677" lon="60.72339809712184"><ele>284.0</ele><time>2026-04-24T16:25:29.831Z</time></trkpt><trkpt lat="56.886105533822175" lon="60.723547589281814"><ele>284.0</ele><time>2026-04-24T16:25:30.831Z</time></trkpt><trkpt lat="56.88616692310846" lon="60.72370356861299"><ele>284.0</ele><time>2026-04-24T16:25:31.831Z</time></trkpt><trkpt lat="56.88624054454162" lon="60.723882857867615"><ele>284.0</ele><time>2026-04-24T16:25:32.831Z</time></trkpt><trkpt lat="56.88630543890413" lon="60.72406511384849"><ele>284.0</ele><time>2026-04-24T16:25:33.831Z</time></trkpt><trkpt lat="56.88636624828632" lon="60.72422865901975"><ele>284.4</ele><time>2026-04-24T16:25:34.831Z</time></trkpt><trkpt lat="56.88642398829684" lon="60.724374697779794"><ele>284.79999999999995</ele><time>2026-04-24T16:25:35.831Z</time></trkpt><trkpt lat="56.88648113325249" lon="60.724543269254625"><ele>285.20000000000005</ele><time>2026-04-24T16:25:36.831Z</time></trkpt><trkpt lat="56.8865388382633" lon="60.72470028074702"><ele>285.6</ele><time>2026-04-24T16:25:37.831Z</time></trkpt><trkpt lat="56.88659095961986" lon="60.72485055833199"><ele>286.0</ele><time>2026-04-24T16:25:38.831Z</time></trkpt><trkpt lat="56.88664923975505" lon="60.72499532814022"><ele>286.2</ele><time>2026-04-24T16:25:39.831Z</time></trkpt><trkpt lat="56.88670008425397" lon="60.725136923091156"><ele>286.40000000000003</ele><time>2026-04-24T16:25:40.831Z</time></trkpt><trkpt lat="56.88675585150135" lon="60.725266580393814"><ele>286.6</ele><time>2026-04-24T16:25:41.831Z</time></trkpt><trkpt lat="56.88680919422127" lon="60.725412320422315"><ele>286.8</ele><time>2026-04-24T16:25:42.831Z</time></trkpt><trkpt lat="56.88686061424317" lon="60.72555418424585"><ele>287.0</ele><time>2026-04-24T16:25:43.831Z</time></trkpt><trkpt lat="56.88691501821962" lon="60.725688517277554"><ele>287.1666666666667</ele><time>2026-04-24T16:25:44.831Z</time></trkpt><trkpt lat="56.88696781729678" lon="60.72580405552505"><ele>287.33333333333337</ele><time>2026-04-24T16:25:45.831Z</time></trkpt><trkpt lat="56.88700987486604" lon="60.725899938207085"><ele>287.5</ele><time>2026-04-24T16:25:46.831Z</time></trkpt><trkpt lat="56.88704448341018" lon="60.725997523420816"><ele>287.6666666666667</ele><time>2026-04-24T16:25:47.831Z</time></trkpt><trkpt lat="56.88708361951217" lon="60.72609251505297"><ele>287.8333333333333</ele><time>2026-04-24T16:25:48.831Z</time></trkpt><trkpt lat="56.88714722413443" lon="60.72625643687683"><ele>288.0</ele><time>2026-04-24T16:25:50.831Z</time></trkpt><trkpt lat="56.88722430635438" lon="60.72644295661793"><ele>287.4</ele><time>2026-04-24T16:25:52.831Z</time></trkpt><trkpt lat="56.88727013541491" lon="60.72657593894377"><ele>286.8</ele><time>2026-04-24T16:25:53.831Z</time></trkpt><trkpt lat="56.887329094137385" lon="60.72671428604699"><ele>286.2</ele><time>2026-04-24T16:25:54.831Z</time></trkpt><trkpt lat="56.88739125330335" lon="60.72687180730304"><ele>285.6</ele><time>2026-04-24T16:25:55.831Z</time></trkpt><trkpt lat="56.88745105527063" lon="60.72701031238099"><ele>285.0</ele><time>2026-04-24T16:25:56.831Z</time></trkpt><trkpt lat="56.887504371333" lon="60.72714316598613"><ele>284.8333333333333</ele><time>2026-04-24T16:25:57.831Z</time></trkpt><trkpt lat="56.88754994869078" lon="60.727278808554104"><ele>284.6666666666667</ele><time>2026-04-24T16:25:58.831Z</time></trkpt><trkpt lat="56.88759448581088" lon="60.72740127572323"><ele>284.5</ele><time>2026-04-24T16:25:59.831Z</time></trkpt><trkpt lat="56.88763330572296" lon="60.72751319863976"><ele>284.33333333333337</ele><time>2026-04-24T16:26:00.831Z</time></trkpt><trkpt lat="56.887673012963724" lon="60.72760627863029"><ele>284.1666666666667</ele><time>2026-04-24T16:26:01.831Z</time></trkpt><trkpt lat="56.887743015847064" lon="60.72777359603829"><ele>284.0</ele><time>2026-04-24T16:26:03.832Z</time></trkpt><trkpt lat="56.88778230325791" lon="60.72788218185144"><ele>284.0</ele><time>2026-04-24T16:26:05Z</time></trkpt><trkpt lat="56.88782279080754" lon="60.72799459321803"><ele>284.0</ele><time>2026-04-24T16:26:06Z</time></trkpt><trkpt lat="56.88785898822115" lon="60.728116408846006"><ele>284.0</ele><time>2026-04-24T16:26:07Z</time></trkpt><trkpt lat="56.88789689409003" lon="60.72822163125725"><ele>284.0</ele><time>2026-04-24T16:26:08Z</time></trkpt><trkpt lat="56.88792701493588" lon="60.72833968882106"><ele>284.0</ele><time>2026-04-24T16:26:09Z</time></trkpt><trkpt lat="56.88796573823204" lon="60.728437148180525"><ele>284.0</ele><time>2026-04-24T16:26:10Z</time></trkpt><trkpt lat="56.88800855728613" lon="60.72853279500452"><ele>284.0</ele><time>2026-04-24T16:26:11Z</time></trkpt><trkpt lat="56.88807408645133" lon="60.728685873933536"><ele>284.0</ele><time>2026-04-24T16:26:13Z</time></trkpt><trkpt lat="56.88813828683612" lon="60.72884413179303"><ele>284.0</ele><time>2026-04-24T16:26:15Z</time></trkpt><trkpt lat="56.88819854681089" lon="60.7290048517413"><ele>284.0</ele><time>2026-04-24T16:26:17Z</time></trkpt><trkpt lat="56.88825068981274" lon="60.72918026670529"><ele>284.0</ele><time>2026-04-24T16:26:19Z</time></trkpt><trkpt lat="56.888285285282336" lon="60.7292873402679"><ele>284.0</ele><time>2026-04-24T16:26:20Z</time></trkpt><trkpt lat="56.88832192375964" lon="60.72939084818182"><ele>284.5</ele><time>2026-04-24T16:26:21Z</time></trkpt><trkpt lat="56.88839269664608" lon="60.729541901712686"><ele>285.0</ele><time>2026-04-24T16:26:23Z</time></trkpt><trkpt lat="56.88845568104203" lon="60.729663788733134"><ele>285.5</ele><time>2026-04-24T16:26:25Z</time></trkpt><trkpt lat="56.88850744966027" lon="60.72976511029656"><ele>286.0</ele><time>2026-04-24T16:26:27Z</time></trkpt><trkpt lat="56.88855621086057" lon="60.72987732741665"><ele>286.5</ele><time>2026-04-24T16:26:30Z</time></trkpt><trkpt lat="56.88862322143488" lon="60.7299202972037"><ele>287.0</ele><time>2026-04-24T16:26:35.001Z</time></trkpt><trkpt lat="56.88868565391736" lon="60.72995319397705"><ele>287.5</ele><time>2026-04-24T16:26:41.001Z</time></trkpt><trkpt lat="56.88874102779967" lon="60.73002652947319"><ele>288.0</ele><time>2026-04-24T16:26:44.001Z</time></trkpt><trkpt lat="56.88881039469269" lon="60.73011443353438"><ele>288.5</ele><time>2026-04-24T16:26:49.001Z</time></trkpt><trkpt lat="56.88891333949047" lon="60.730205874821316"><ele>289.0</ele><time>2026-04-24T16:27:39.002Z</time></trkpt><trkpt lat="56.88898613098286" lon="60.73017310241402"><ele>289.5</ele><time>2026-04-24T16:27:44.002Z</time></trkpt><trkpt lat="56.889083866306024" lon="60.73015933194386"><ele>290.0</ele><time>2026-04-24T16:27:47.002Z</time></trkpt><trkpt lat="56.88916126820578" lon="60.730152812433"><ele>290.0</ele><time>2026-04-24T16:27:49.002Z</time></trkpt><trkpt lat="56.88922603783249" lon="60.730155279411115"><ele>290.0</ele><time>2026-04-24T16:27:51.002Z</time></trkpt><trkpt lat="56.88929128210748" lon="60.730152550150315"><ele>290.0</ele><time>2026-04-24T16:27:53.002Z</time></trkpt><trkpt lat="56.889394846235724" lon="60.73016320672712"><ele>290.0</ele><time>2026-04-24T16:27:55.002Z</time></trkpt><trkpt lat="56.88950378889197" lon="60.730205282147445"><ele>290.0</ele><time>2026-04-24T16:27:57.002Z</time></trkpt><trkpt lat="56.889601884098084" lon="60.730228626356855"><ele>290.0</ele><time>2026-04-24T16:27:59.002Z</time></trkpt><trkpt lat="56.88966059184029" lon="60.73027265318525"><ele>288.83333333333337</ele><time>2026-04-24T16:28:01.002Z</time></trkpt><trkpt lat="56.88973177221765" lon="60.730339677581696"><ele>287.6666666666667</ele><time>2026-04-24T16:28:04.002Z</time></trkpt><trkpt lat="56.889810806604906" lon="60.73039773207138"><ele>286.5</ele><time>2026-04-24T16:28:09.002Z</time></trkpt><trkpt lat="56.88991314522132" lon="60.73037036700563"><ele>285.3333333333333</ele><time>2026-04-24T16:28:13.002Z</time></trkpt><trkpt lat="56.88998260312706" lon="60.730342360187485"><ele>284.16666666666663</ele><time>2026-04-24T16:28:15.001Z</time></trkpt><trkpt lat="56.89005736784246" lon="60.730337040762805"><ele>283.0</ele><time>2026-04-24T16:28:18.001Z</time></trkpt><trkpt lat="56.890134765681914" lon="60.730345098649266"><ele>282.66666666666663</ele><time>2026-04-24T16:28:21.001Z</time></trkpt><trkpt lat="56.89020792857807" lon="60.730354424115795"><ele>282.3333333333333</ele><time>2026-04-24T16:28:24.002Z</time></trkpt><trkpt lat="56.89028316013766" lon="60.73035017206725"><ele>282.0</ele><time>2026-04-24T16:28:26.002Z</time></trkpt><trkpt lat="56.89036982936409" lon="60.73041555389333"><ele>281.6666666666667</ele><time>2026-04-24T16:28:29.002Z</time></trkpt><trkpt lat="56.89041541409886" lon="60.730495813346664"><ele>281.33333333333337</ele><time>2026-04-24T16:28:31.002Z</time></trkpt><trkpt lat="56.890485642576806" lon="60.73062746192297"><ele>281.0</ele><time>2026-04-24T16:28:33.002Z</time></trkpt><trkpt lat="56.890561805819125" lon="60.73072426199166"><ele>281.0</ele><time>2026-04-24T16:28:35.002Z</time></trkpt><trkpt lat="56.89065200920815" lon="60.73079726507592"><ele>281.0</ele><time>2026-04-24T16:28:37.002Z</time></trkpt><trkpt lat="56.8907286553939" lon="60.73085515401491"><ele>281.0</ele><time>2026-04-24T16:28:39.002Z</time></trkpt><trkpt lat="56.89081158274993" lon="60.73093417972127"><ele>281.0</ele><time>2026-04-24T16:28:41.002Z</time></trkpt><trkpt lat="56.8909095890459" lon="60.73107227596977"><ele>281.0</ele><time>2026-04-24T16:28:42.002Z</time></trkpt><trkpt lat="56.891015802071365" lon="60.73121323436021"><ele>281.75</ele><time>2026-04-24T16:28:43.002Z</time></trkpt><trkpt lat="56.89111841294811" lon="60.73132826816131"><ele>282.5</ele><time>2026-04-24T16:28:44.002Z</time></trkpt><trkpt lat="56.89121251147017" lon="60.73144797991832"><ele>283.25</ele><time>2026-04-24T16:28:45.002Z</time></trkpt><trkpt lat="56.89130742691718" lon="60.73159206892051"><ele>284.0</ele><time>2026-04-24T16:28:46.002Z</time></trkpt><trkpt lat="56.8914076258976" lon="60.73177630961607"><ele>284.2</ele><time>2026-04-24T16:28:47.002Z</time></trkpt><trkpt lat="56.891498131354965" lon="60.73195633632464"><ele>284.4</ele><time>2026-04-24T16:28:48.002Z</time></trkpt><trkpt lat="56.89158265201398" lon="60.73210054892405"><ele>284.6</ele><time>2026-04-24T16:28:49.002Z</time></trkpt><trkpt lat="56.89164977780915" lon="60.73221338952058"><ele>284.8</ele><time>2026-04-24T16:28:50.002Z</time></trkpt><trkpt lat="56.8917122502746" lon="60.7323080188556"><ele>285.0</ele><time>2026-04-24T16:28:51.002Z</time></trkpt><trkpt lat="56.891771928659594" lon="60.73240762818966"><ele>285.1666666666667</ele><time>2026-04-24T16:28:52.002Z</time></trkpt><trkpt lat="56.89184041126284" lon="60.73254714748587"><ele>285.3333333333333</ele><time>2026-04-24T16:28:54.002Z</time></trkpt><trkpt lat="56.89190936779574" lon="60.73265985940282"><ele>285.5</ele><time>2026-04-24T16:28:56.002Z</time></trkpt><trkpt lat="56.89197628272526" lon="60.73274051417889"><ele>285.66666666666663</ele><time>2026-04-24T16:28:58.002Z</time></trkpt><trkpt lat="56.89205666534334" lon="60.73284097665235"><ele>285.8333333333333</ele><time>2026-04-24T16:29:00.002Z</time></trkpt><trkpt lat="56.892104942002355" lon="60.73292077667935"><ele>286.0</ele><time>2026-04-24T16:29:01.002Z</time></trkpt><trkpt lat="56.89216576745398" lon="60.73306347251812"><ele>286.0</ele><time>2026-04-24T16:29:03.002Z</time></trkpt><trkpt lat="56.89223897832309" lon="60.73319155859165"><ele>286.0</ele><time>2026-04-24T16:29:05.002Z</time></trkpt><trkpt lat="56.89228275771592" lon="60.73328235511251"><ele>286.0</ele><time>2026-04-24T16:29:07.002Z</time></trkpt><trkpt lat="56.89225748872733" lon="60.73340805468547"><ele>286.0</ele><time>2026-04-24T16:29:10.002Z</time></trkpt><trkpt lat="56.89219594174336" lon="60.73358956270317"><ele>286.0</ele><time>2026-04-24T16:29:12.002Z</time></trkpt><trkpt lat="56.89212014137243" lon="60.73372940866088"><ele>286.0</ele><time>2026-04-24T16:29:14.002Z</time></trkpt><trkpt lat="56.89203641438102" lon="60.73381878485791"><ele>286.0</ele><time>2026-04-24T16:29:16.002Z</time></trkpt><trkpt lat="56.891978804094066" lon="60.73387673849969"><ele>286.0</ele><time>2026-04-24T16:29:17.002Z</time></trkpt><trkpt lat="56.8919112088396" lon="60.73396361865403"><ele>286.0</ele><time>2026-04-24T16:29:18.002Z</time></trkpt><trkpt lat="56.89183701031123" lon="60.73406273096503"><ele>286.0</ele><time>2026-04-24T16:29:19.002Z</time></trkpt><trkpt lat="56.8917726496487" lon="60.734140971657474"><ele>286.0</ele><time>2026-04-24T16:29:20.002Z</time></trkpt><trkpt lat="56.89166921294928" lon="60.73424074877697"><ele>286.5</ele><time>2026-04-24T16:29:22.002Z</time></trkpt><trkpt lat="56.89160384527556" lon="60.73429210557659"><ele>287.0</ele><time>2026-04-24T16:29:23.003Z</time></trkpt><trkpt lat="56.89152554696712" lon="60.73437237095369"><ele>287.5</ele><time>2026-04-24T16:29:24.003Z</time></trkpt><trkpt lat="56.89145898496961" lon="60.73446947162086"><ele>288.0</ele><time>2026-04-24T16:29:25.003Z</time></trkpt><trkpt lat="56.89139859319233" lon="60.734569388175146"><ele>288.5</ele><time>2026-04-24T16:29:26.003Z</time></trkpt><trkpt lat="56.891331710629856" lon="60.73464297693895"><ele>289.0</ele><time>2026-04-24T16:29:27.003Z</time></trkpt><trkpt lat="56.891280256878034" lon="60.73471236247124"><ele>289.5</ele><time>2026-04-24T16:29:28.003Z</time></trkpt><trkpt lat="56.891228810175356" lon="60.73480207427444"><ele>290.0</ele><time>2026-04-24T16:29:29.003Z</time></trkpt><trkpt lat="56.891171516005485" lon="60.734889419863265"><ele>290.5</ele><time>2026-04-24T16:29:30.003Z</time></trkpt><trkpt lat="56.89110150177534" lon="60.73503105603936"><ele>291.0</ele><time>2026-04-24T16:29:32.003Z</time></trkpt><trkpt lat="56.89104365865552" lon="60.7352129226448"><ele>291.5</ele><time>2026-04-24T16:29:34.003Z</time></trkpt><trkpt lat="56.891011947461486" lon="60.73533367802858"><ele>292.0</ele><time>2026-04-24T16:29:36.003Z</time></trkpt><trkpt lat="56.89104206916243" lon="60.73548144976358"><ele>291.0</ele><time>2026-04-24T16:29:39.003Z</time></trkpt><trkpt lat="56.8910717168819" lon="60.735593319385494"><ele>290.0</ele><time>2026-04-24T16:29:40.003Z</time></trkpt><trkpt lat="56.89112070988714" lon="60.73576786500105"><ele>289.0</ele><time>2026-04-24T16:29:42.003Z</time></trkpt><trkpt lat="56.8911579918187" lon="60.73591861551389"><ele>288.0</ele><time>2026-04-24T16:29:44.003Z</time></trkpt><trkpt lat="56.89115116012622" lon="60.73608260471238"><ele>287.0</ele><time>2026-04-24T16:29:47.003Z</time></trkpt><trkpt lat="56.891077199250844" lon="60.73616453383917"><ele>286.0</ele><time>2026-04-24T16:29:50.003Z</time></trkpt><trkpt lat="56.89098626640938" lon="60.73626502096247"><ele>287.2</ele><time>2026-04-24T16:29:52.003Z</time></trkpt><trkpt lat="56.89089613753854" lon="60.736312211115525"><ele>288.40000000000003</ele><time>2026-04-24T16:29:54.003Z</time></trkpt><trkpt lat="56.89081374677638" lon="60.73633013300062"><ele>289.6</ele><time>2026-04-24T16:29:56.003Z</time></trkpt><trkpt lat="56.89073333219924" lon="60.73635985717872"><ele>290.8</ele><time>2026-04-24T16:29:58.003Z</time></trkpt><trkpt lat="56.89063970112549" lon="60.736386934062736"><ele>292.0</ele><time>2026-04-24T16:30:00.003Z</time></trkpt><trkpt lat="56.89053789145514" lon="60.736426208798896"><ele>292.0</ele><time>2026-04-24T16:30:02.003Z</time></trkpt><trkpt lat="56.890449049983225" lon="60.736537540830355"><ele>292.0</ele><time>2026-04-24T16:30:04.003Z</time></trkpt><trkpt lat="56.8903774475263" lon="60.73664560770238"><ele>292.0</ele><time>2026-04-24T16:30:06.003Z</time></trkpt><trkpt lat="56.89030766796564" lon="60.73670366840839"><ele>292.0</ele><time>2026-04-24T16:30:08.003Z</time></trkpt><trkpt lat="56.89027592853622" lon="60.736806244993325"><ele>292.0</ele><time>2026-04-24T16:30:10.003Z</time></trkpt><trkpt lat="56.890290709623336" lon="60.73695125523473"><ele>292.0</ele><time>2026-04-24T16:30:12.003Z</time></trkpt><trkpt lat="56.89031621339732" lon="60.73707550956279"><ele>291.16666666666663</ele><time>2026-04-24T16:30:14.003Z</time></trkpt><trkpt lat="56.89033602774638" lon="60.73724990231629"><ele>290.3333333333333</ele><time>2026-04-24T16:30:16.003Z</time></trkpt><trkpt lat="56.89035149482977" lon="60.73738072596785"><ele>289.5</ele><time>2026-04-24T16:30:18.003Z</time></trkpt><trkpt lat="56.89036090928125" lon="60.73750275856696"><ele>288.6666666666667</ele><time>2026-04-24T16:30:21.003Z</time></trkpt><trkpt lat="56.8903652806024" lon="60.7376312983049"><ele>287.83333333333337</ele><time>2026-04-24T16:30:23.004Z</time></trkpt><trkpt lat="56.890375862690355" lon="60.73775755605368"><ele>287.0</ele><time>2026-04-24T16:30:26.004Z</time></trkpt><trkpt lat="56.89035749859506" lon="60.73793325856074"><ele>286.5</ele><time>2026-04-24T16:30:29.004Z</time></trkpt><trkpt lat="56.89035801391953" lon="60.738055635593874"><ele>286.0</ele><time>2026-04-24T16:30:31.004Z</time></trkpt><trkpt lat="56.89035375683494" lon="60.738184792875536"><ele>285.5</ele><time>2026-04-24T16:30:33.004Z</time></trkpt><trkpt lat="56.89036838303531" lon="60.738367711935076"><ele>285.0</ele><time>2026-04-24T16:30:35.004Z</time></trkpt><trkpt lat="56.890399485351544" lon="60.7384997602372"><ele>284.5</ele><time>2026-04-24T16:30:37.004Z</time></trkpt><trkpt lat="56.89039509108114" lon="60.73862354773052"><ele>284.0</ele><time>2026-04-24T16:30:40.004Z</time></trkpt><trkpt lat="56.890356353270285" lon="60.73872704962976"><ele>284.0</ele><time>2026-04-24T16:30:49.004Z</time></trkpt><trkpt lat="56.89028390785063" lon="60.738699723444114"><ele>284.0</ele><time>2026-04-24T16:30:51.004Z</time></trkpt><trkpt lat="56.8902093333464" lon="60.738673603627305"><ele>284.0</ele><time>2026-04-24T16:30:53.004Z</time></trkpt><trkpt lat="56.89014335498582" lon="60.73861009459652"><ele>284.0</ele><time>2026-04-24T16:30:55.004Z</time></trkpt><trkpt lat="56.890114263447664" lon="60.738493465713255"><ele>284.0</ele><time>2026-04-24T16:30:58.004Z</time></trkpt><trkpt lat="56.89009805589711" lon="60.73834508650181"><ele>284.0</ele><time>2026-04-24T16:31:00.004Z</time></trkpt><trkpt lat="56.890082085694836" lon="60.73821224346235"><ele>284.33333333333337</ele><time>2026-04-24T16:31:01.004Z</time></trkpt><trkpt lat="56.89005697408416" lon="60.73807126095416"><ele>284.6666666666667</ele><time>2026-04-24T16:31:02.004Z</time></trkpt><trkpt lat="56.89003454978363" lon="60.73793652568915"><ele>285.0</ele><time>2026-04-24T16:31:03.004Z</time></trkpt><trkpt lat="56.890017895516074" lon="60.737803669007505"><ele>285.3333333333333</ele><time>2026-04-24T16:31:04.004Z</time></trkpt><trkpt lat="56.889990998240535" lon="60.7376666600542"><ele>285.66666666666663</ele><time>2026-04-24T16:31:05.004Z</time></trkpt><trkpt lat="56.8899644307276" lon="60.73752916054972"><ele>286.0</ele><time>2026-04-24T16:31:06.004Z</time></trkpt><trkpt lat="56.88994485127658" lon="60.73739093268559"><ele>286.3333333333333</ele><time>2026-04-24T16:31:07.004Z</time></trkpt><trkpt lat="56.88992415215972" lon="60.737273170015506"><ele>286.66666666666663</ele><time>2026-04-24T16:31:08.004Z</time></trkpt><trkpt lat="56.88989872143407" lon="60.73715297367003"><ele>287.0</ele><time>2026-04-24T16:31:09.004Z</time></trkpt><trkpt lat="56.88987860512755" lon="60.73702618382027"><ele>287.3333333333333</ele><time>2026-04-24T16:31:10.004Z</time></trkpt><trkpt lat="56.88986007163363" lon="60.73689572483362"><ele>287.6666666666667</ele><time>2026-04-24T16:31:11.004Z</time></trkpt><trkpt lat="56.88982423250644" lon="60.736697637763896"><ele>288.0</ele><time>2026-04-24T16:31:13.004Z</time></trkpt><trkpt lat="56.889810180893576" lon="60.73652778501893"><ele>288.0</ele><time>2026-04-24T16:31:15.004Z</time></trkpt><trkpt lat="56.889798942170174" lon="60.73639332261698"><ele>288.0</ele><time>2026-04-24T16:31:17.004Z</time></trkpt><trkpt lat="56.889777104042246" lon="60.736273905112206"><ele>288.0</ele><time>2026-04-24T16:31:19.004Z</time></trkpt><trkpt lat="56.88975006881959" lon="60.736160534085634"><ele>288.0</ele><time>2026-04-24T16:31:21.005Z</time></trkpt><trkpt lat="56.889718832980655" lon="60.7360085232665"><ele>288.0</ele><time>2026-04-24T16:31:24.005Z</time></trkpt><trkpt lat="56.88974292760708" lon="60.73589861178684"><ele>288.0</ele><time>2026-04-24T16:31:26.005Z</time></trkpt><trkpt lat="56.889678406949464" lon="60.73578300693865"><ele>288.3333333333333</ele><time>2026-04-24T16:31:29.005Z</time></trkpt><trkpt lat="56.889659877508564" lon="60.73566227889964"><ele>288.6666666666667</ele><time>2026-04-24T16:31:31.005Z</time></trkpt><trkpt lat="56.88965419299013" lon="60.73554110599808"><ele>289.0</ele><time>2026-04-24T16:31:33.005Z</time></trkpt><trkpt lat="56.889623403187095" lon="60.735401012955556"><ele>289.33333333333337</ele><time>2026-04-24T16:31:35.005Z</time></trkpt><trkpt lat="56.88962070482255" lon="60.73521995594563"><ele>289.6666666666667</ele><time>2026-04-24T16:31:37.005Z</time></trkpt><trkpt lat="56.88958352104899" lon="60.73502003630814"><ele>290.0</ele><time>2026-04-24T16:31:39.005Z</time></trkpt><trkpt lat="56.8895558741153" lon="60.73483870454276"><ele>290.0</ele><time>2026-04-24T16:31:41.005Z</time></trkpt><trkpt lat="56.889525219369546" lon="60.734672338566256"><ele>290.0</ele><time>2026-04-24T16:31:43.005Z</time></trkpt><trkpt lat="56.889489954280016" lon="60.73444909580074"><ele>290.0</ele><time>2026-04-24T16:31:45.005Z</time></trkpt><trkpt lat="56.8894753378548" lon="60.73428348416597"><ele>290.0</ele><time>2026-04-24T16:31:47.005Z</time></trkpt><trkpt lat="56.88947464506482" lon="60.73412168186749"><ele>290.0</ele><time>2026-04-24T16:31:50.005Z</time></trkpt><trkpt lat="56.88945841244384" lon="60.73400816190171"><ele>290.2857142857143</ele><time>2026-04-24T16:31:52.005Z</time></trkpt><trkpt lat="56.88943133210147" lon="60.733892118063636"><ele>290.5714285714286</ele><time>2026-04-24T16:31:54.005Z</time></trkpt><trkpt lat="56.88939607055473" lon="60.73379646513491"><ele>290.8571428571429</ele><time>2026-04-24T16:31:56.005Z</time></trkpt><trkpt lat="56.889355112136585" lon="60.733667001531536"><ele>291.14285714285717</ele><time>2026-04-24T16:31:58.005Z</time></trkpt><trkpt lat="56.88932760552999" lon="60.73354090810843"><ele>291.42857142857144</ele><time>2026-04-24T16:32:00.005Z</time></trkpt><trkpt lat="56.88930958550461" lon="60.73342883278178"><ele>291.7142857142857</ele><time>2026-04-24T16:32:02.005Z</time></trkpt><trkpt lat="56.88933886882242" lon="60.733295309518546"><ele>292.0</ele><time>2026-04-24T16:32:10.005Z</time></trkpt><trkpt lat="56.88941222518311" lon="60.73331626227838"><ele>292.0</ele><time>2026-04-24T16:32:16.005Z</time></trkpt><trkpt lat="56.889467139052655" lon="60.733251865247496"><ele>292.0</ele><time>2026-04-24T16:32:20.006Z</time></trkpt><trkpt lat="56.889535697455294" lon="60.73316012796489"><ele>292.0</ele><time>2026-04-24T16:32:24.006Z</time></trkpt><trkpt lat="56.889574568270845" lon="60.733047919857626"><ele>292.0</ele><time>2026-04-24T16:32:28.006Z</time></trkpt><trkpt lat="56.88962653310555" lon="60.732963301263624"><ele>292.0</ele><time>2026-04-24T16:32:32.006Z</time></trkpt><trkpt lat="56.88967562499283" lon="60.73284655279"><ele>292.0</ele><time>2026-04-24T16:32:36.006Z</time></trkpt><trkpt lat="56.88969723632961" lon="60.732735337220454"><ele>292.0</ele><time>2026-04-24T16:32:39.006Z</time></trkpt><trkpt lat="56.889748032895824" lon="60.73258027325196"><ele>291.16666666666663</ele><time>2026-04-24T16:32:42.006Z</time></trkpt><trkpt lat="56.88978072330917" lon="60.73244739841324"><ele>290.3333333333333</ele><time>2026-04-24T16:32:46.006Z</time></trkpt><trkpt lat="56.889774422267365" lon="60.73230991224894"><ele>289.5</ele><time>2026-04-24T16:32:49.006Z</time></trkpt><trkpt lat="56.88978405144308" lon="60.732151904097734"><ele>288.6666666666667</ele><time>2026-04-24T16:32:52.006Z</time></trkpt><trkpt lat="56.889764314725724" lon="60.73202557334711"><ele>287.83333333333337</ele><time>2026-04-24T16:32:54.006Z</time></trkpt><trkpt lat="56.889704449473506" lon="60.73193291450199"><ele>287.0</ele><time>2026-04-24T16:32:56.006Z</time></trkpt><trkpt lat="56.889657490130425" lon="60.73183831356636"><ele>286.57142857142856</ele><time>2026-04-24T16:32:59.006Z</time></trkpt><trkpt lat="56.88963149758257" lon="60.73172989206918"><ele>286.1428571428571</ele><time>2026-04-24T16:33:02.006Z</time></trkpt><trkpt lat="56.88959361776267" lon="60.731611425830195"><ele>285.7142857142857</ele><time>2026-04-24T16:33:05.006Z</time></trkpt><trkpt lat="56.889510037702514" lon="60.731535394576014"><ele>285.2857142857143</ele><time>2026-04-24T16:33:08.006Z</time></trkpt><trkpt lat="56.889479808672725" lon="60.73142456182342"><ele>284.85714285714283</ele><time>2026-04-24T16:33:11.006Z</time></trkpt><trkpt lat="56.88944460100169" lon="60.73131864041417"><ele>284.42857142857144</ele><time>2026-04-24T16:33:14.005Z</time></trkpt><trkpt lat="56.88942529099849" lon="60.73120157227998"><ele>284.0</ele><time>2026-04-24T16:33:20.004Z</time></trkpt><trkpt lat="56.88932428952741" lon="60.73117184012864"><ele>284.0</ele><time>2026-04-24T16:33:38.002Z</time></trkpt><trkpt lat="56.88925103463281" lon="60.73121821115295"><ele>284.0</ele><time>2026-04-24T16:33:41.001Z</time></trkpt><trkpt lat="56.88917985635" lon="60.731291193961454"><ele>284.0</ele><time>2026-04-24T16:33:44.001Z</time></trkpt><trkpt lat="56.88911053116803" lon="60.73130356647475"><ele>284.0</ele><time>2026-04-24T16:33:47.001Z</time></trkpt><trkpt lat="56.88903893539504" lon="60.73126433954601"><ele>284.0</ele><time>2026-04-24T16:33:50.001Z</time></trkpt><trkpt lat="56.88895202416958" lon="60.731252820298515"><ele>284.0</ele><time>2026-04-24T16:33:53.001Z</time></trkpt><trkpt lat="56.88888331440482" lon="60.731194549928816"><ele>284.0</ele><time>2026-04-24T16:33:55.001Z</time></trkpt><trkpt lat="56.88884238894159" lon="60.73109700499212"><ele>284.0</ele><time>2026-04-24T16:33:57.001Z</time></trkpt><trkpt lat="56.88879952931389" lon="60.73097809896599"><ele>284.0</ele><time>2026-04-24T16:34:00.001Z</time></trkpt><trkpt lat="56.888785104902695" lon="60.7308413451247"><ele>284.0</ele><time>2026-04-24T16:34:04.001Z</time></trkpt><trkpt lat="56.88879973102918" lon="60.73069323779254"><ele>284.0</ele><time>2026-04-24T16:34:07.001Z</time></trkpt><trkpt lat="56.88884599571183" lon="60.730565419278825"><ele>284.0</ele><time>2026-04-24T16:34:10.001Z</time></trkpt><trkpt lat="56.8888926532397" lon="60.730442959273724"><ele>285.0</ele><time>2026-04-24T16:34:13.001Z</time></trkpt><trkpt lat="56.88882756548232" lon="60.73036530149434"><ele>286.0</ele><time>2026-04-24T16:34:17.001Z</time></trkpt><trkpt lat="56.888762837401586" lon="60.730344605690064"><ele>287.0</ele><time>2026-04-24T16:34:19.001Z</time></trkpt><trkpt lat="56.88869214424065" lon="60.73028407854753"><ele>288.0</ele><time>2026-04-24T16:34:22.001Z</time></trkpt><trkpt lat="56.88861791527513" lon="60.73023355198502"><ele>289.0</ele><time>2026-04-24T16:34:25.001Z</time></trkpt><trkpt lat="56.88857481539674" lon="60.73012858488991"><ele>290.0</ele><time>2026-04-24T16:34:28.001Z</time></trkpt><trkpt lat="56.8884651297116" lon="60.73014798186284"><ele>289.6</ele><time>2026-04-24T16:34:32.001Z</time></trkpt><trkpt lat="56.88835591214717" lon="60.73021491212296"><ele>289.2</ele><time>2026-04-24T16:34:34Z</time></trkpt><trkpt lat="56.888284758413974" lon="60.73026791104767"><ele>288.8</ele><time>2026-04-24T16:34:36Z</time></trkpt><trkpt lat="56.88817833983807" lon="60.730305630573035"><ele>288.4</ele><time>2026-04-24T16:34:38Z</time></trkpt><trkpt lat="56.88808714151513" lon="60.7303437725522"><ele>288.0</ele><time>2026-04-24T16:34:40Z</time></trkpt><trkpt lat="56.888001370517266" lon="60.73039273796199"><ele>288.0</ele><time>2026-04-24T16:34:43Z</time></trkpt><trkpt lat="56.88792259001584" lon="60.73031308936674"><ele>288.0</ele><time>2026-04-24T16:34:45Z</time></trkpt><trkpt lat="56.88782548850092" lon="60.730105090953316"><ele>288.0</ele><time>2026-04-24T16:34:47Z</time></trkpt><trkpt lat="56.887756399463115" lon="60.72995273623009"><ele>288.0</ele><time>2026-04-24T16:34:48Z</time></trkpt><trkpt lat="56.887693248722705" lon="60.72978917030319"><ele>288.0</ele><time>2026-04-24T16:34:49Z</time></trkpt><trkpt lat="56.88764185207742" lon="60.72967532153177"><ele>288.0</ele><time>2026-04-24T16:34:50Z</time></trkpt><trkpt lat="56.8875520948543" lon="60.72949089930474"><ele>288.0</ele><time>2026-04-24T16:34:52Z</time></trkpt><trkpt lat="56.88750281759263" lon="60.729382217483355"><ele>288.0</ele><time>2026-04-24T16:34:53Z</time></trkpt><trkpt lat="56.887457128478374" lon="60.72927427012821"><ele>288.0</ele><time>2026-04-24T16:34:54Z</time></trkpt><trkpt lat="56.88741076499057" lon="60.72916554559913"><ele>288.0</ele><time>2026-04-24T16:34:55Z</time></trkpt><trkpt lat="56.887361277460194" lon="60.729050944114334"><ele>287.5</ele><time>2026-04-24T16:34:56Z</time></trkpt><trkpt lat="56.88731264321212" lon="60.728934621362704"><ele>287.0</ele><time>2026-04-24T16:34:57Z</time></trkpt><trkpt lat="56.88726477105785" lon="60.72882163792858"><ele>286.5</ele><time>2026-04-24T16:34:58Z</time></trkpt><trkpt lat="56.887217182170744" lon="60.72869897329709"><ele>286.0</ele><time>2026-04-24T16:34:59Z</time></trkpt><trkpt lat="56.88717200244757" lon="60.728580460505164"><ele>285.5</ele><time>2026-04-24T16:35:00Z</time></trkpt><trkpt lat="56.887133879179586" lon="60.728477572302005"><ele>285.0</ele><time>2026-04-24T16:35:01Z</time></trkpt><trkpt lat="56.88709435323178" lon="60.7283773902157"><ele>284.8333333333333</ele><time>2026-04-24T16:35:02Z</time></trkpt><trkpt lat="56.887036958416374" lon="60.728247821706915"><ele>284.6666666666667</ele><time>2026-04-24T16:35:03Z</time></trkpt><trkpt lat="56.88698213057252" lon="60.72812404941824"><ele>284.5</ele><time>2026-04-24T16:35:04Z</time></trkpt><trkpt lat="56.886936838572566" lon="60.728008400278206"><ele>284.33333333333337</ele><time>2026-04-24T16:35:05Z</time></trkpt><trkpt lat="56.88689629940132" lon="60.727912499272314"><ele>284.1666666666667</ele><time>2026-04-24T16:35:06Z</time></trkpt><trkpt lat="56.88685119617716" lon="60.727787631474705"><ele>284.0</ele><time>2026-04-24T16:35:07Z</time></trkpt><trkpt lat="56.88680544815374" lon="60.72767682783669"><ele>284.5</ele><time>2026-04-24T16:35:08Z</time></trkpt><trkpt lat="56.886751360700714" lon="60.72752578701713"><ele>285.0</ele><time>2026-04-24T16:35:09Z</time></trkpt><trkpt lat="56.88670359526767" lon="60.727384493581354"><ele>285.5</ele><time>2026-04-24T16:35:10Z</time></trkpt><trkpt lat="56.88666331623375" lon="60.727255623319344"><ele>286.0</ele><time>2026-04-24T16:35:11Z</time></trkpt><trkpt lat="56.88662705326039" lon="60.727144063331764"><ele>286.5</ele><time>2026-04-24T16:35:12Z</time></trkpt><trkpt lat="56.8865865619911" lon="60.7270245252693"><ele>287.0</ele><time>2026-04-24T16:35:13Z</time></trkpt><trkpt lat="56.88654050237267" lon="60.72689867762317"><ele>286.83333333333337</ele><time>2026-04-24T16:35:14Z</time></trkpt><trkpt lat="56.88649195454128" lon="60.72676477478918"><ele>286.6666666666667</ele><time>2026-04-24T16:35:15Z</time></trkpt><trkpt lat="56.88644286756352" lon="60.72662450802758"><ele>286.5</ele><time>2026-04-24T16:35:16Z</time></trkpt><trkpt lat="56.8863924963699" lon="60.72649065916328"><ele>286.3333333333333</ele><time>2026-04-24T16:35:17Z</time></trkpt><trkpt lat="56.88634040531359" lon="60.72634384835143"><ele>286.16666666666663</ele><time>2026-04-24T16:35:18Z</time></trkpt><trkpt lat="56.886295539160116" lon="60.726219384630056"><ele>286.0</ele><time>2026-04-24T16:35:19Z</time></trkpt><trkpt lat="56.88625930633474" lon="60.72609666462216"><ele>286.16666666666663</ele><time>2026-04-24T16:35:20Z</time></trkpt><trkpt lat="56.886219454873654" lon="60.725994896422115"><ele>286.3333333333333</ele><time>2026-04-24T16:35:21Z</time></trkpt><trkpt lat="56.88618730936946" lon="60.725891539577056"><ele>286.5</ele><time>2026-04-24T16:35:22Z</time></trkpt><trkpt lat="56.886153660761224" lon="60.72579184877175"><ele>286.6666666666667</ele><time>2026-04-24T16:35:23Z</time></trkpt><trkpt lat="56.886110109273844" lon="60.725661908865035"><ele>286.83333333333337</ele><time>2026-04-24T16:35:25Z</time></trkpt><trkpt lat="56.886047406208796" lon="60.72551498854225"><ele>287.0</ele><time>2026-04-24T16:35:27Z</time></trkpt><trkpt lat="56.88597665907982" lon="60.72536033694262"><ele>287.2</ele><time>2026-04-24T16:35:29Z</time></trkpt><trkpt lat="56.88590583627101" lon="60.72519737284347"><ele>287.4</ele><time>2026-04-24T16:35:31Z</time></trkpt><trkpt lat="56.885831455345716" lon="60.72498126829883"><ele>287.6</ele><time>2026-04-24T16:35:33Z</time></trkpt><trkpt lat="56.88579472560355" lon="60.7248494816513"><ele>287.8</ele><time>2026-04-24T16:35:34Z</time></trkpt><trkpt lat="56.88575670754677" lon="60.72473720730989"><ele>288.0</ele><time>2026-04-24T16:35:35Z</time></trkpt><trkpt lat="56.88572659051013" lon="60.72461961376844"><ele>288.0</ele><time>2026-04-24T16:35:36Z</time></trkpt><trkpt lat="56.885679374460786" lon="60.72442641159467"><ele>288.0</ele><time>2026-04-24T16:35:38Z</time></trkpt><trkpt lat="56.88564095319689" lon="60.72429641630162"><ele>288.0</ele><time>2026-04-24T16:35:40Z</time></trkpt><trkpt lat="56.8855960093303" lon="60.724172275586504"><ele>288.0</ele><time>2026-04-24T16:35:42Z</time></trkpt><trkpt lat="56.885538716496775" lon="60.72401156969033"><ele>288.0</ele><time>2026-04-24T16:35:44Z</time></trkpt><trkpt lat="56.88549333180918" lon="60.723863400645435"><ele>287.8</ele><time>2026-04-24T16:35:46Z</time></trkpt><trkpt lat="56.88545050432927" lon="60.723719081500356"><ele>287.6</ele><time>2026-04-24T16:35:48Z</time></trkpt><trkpt lat="56.885384729323874" lon="60.72353673765022"><ele>287.4</ele><time>2026-04-24T16:35:50Z</time></trkpt><trkpt lat="56.885344617492834" lon="60.723407964096616"><ele>287.2</ele><time>2026-04-24T16:35:51Z</time></trkpt><trkpt lat="56.88530036674072" lon="60.72329720256568"><ele>287.0</ele><time>2026-04-24T16:35:52Z</time></trkpt><trkpt lat="56.885253061598604" lon="60.72314504903286"><ele>286.85714285714283</ele><time>2026-04-24T16:35:54Z</time></trkpt><trkpt lat="56.88521998984955" lon="60.72303422297432"><ele>286.7142857142857</ele><time>2026-04-24T16:35:56Z</time></trkpt><trkpt lat="56.88514189759363" lon="60.72295599050627"><ele>286.57142857142856</ele><time>2026-04-24T16:35:58Z</time></trkpt><trkpt lat="56.88508460367303" lon="60.723013110744176"><ele>286.42857142857144</ele><time>2026-04-24T16:36:00Z</time></trkpt><trkpt lat="56.88505052535334" lon="60.72290628607164"><ele>286.2857142857143</ele><time>2026-04-24T16:36:03Z</time></trkpt><trkpt lat="56.885017723082676" lon="60.72280443144939"><ele>286.1428571428571</ele><time>2026-04-24T16:36:04Z</time></trkpt><trkpt lat="56.884972476425084" lon="60.72269316647349"><ele>286.0</ele><time>2026-04-24T16:36:05Z</time></trkpt><trkpt lat="56.884935005106065" lon="60.72257802169137"><ele>286.6</ele><time>2026-04-24T16:36:06Z</time></trkpt><trkpt lat="56.884908798166904" lon="60.72246917128233"><ele>287.20000000000005</ele><time>2026-04-24T16:36:07Z</time></trkpt><trkpt lat="56.884859502916406" lon="60.72227853974022"><ele>287.79999999999995</ele><time>2026-04-24T16:36:09Z</time></trkpt><trkpt lat="56.884818443430206" lon="60.72213571165146"><ele>288.4</ele><time>2026-04-24T16:36:11Z</time></trkpt><trkpt lat="56.88473697012173" lon="60.72207074520296"><ele>289.0</ele><time>2026-04-24T16:36:13Z</time></trkpt><trkpt lat="56.88464529477988" lon="60.72212580530726"><ele>289.0</ele><time>2026-04-24T16:36:15Z</time></trkpt><trkpt lat="56.88454874788675" lon="60.72220297554262"><ele>289.0</ele><time>2026-04-24T16:36:17Z</time></trkpt><trkpt lat="56.88447083260882" lon="60.722274327635176"><ele>289.0</ele><time>2026-04-24T16:36:19Z</time></trkpt><trkpt lat="56.88438772325338" lon="60.72237527065014"><ele>289.0</ele><time>2026-04-24T16:36:21Z</time></trkpt><trkpt lat="56.88428127760631" lon="60.72249850384091"><ele>289.0</ele><time>2026-04-24T16:36:23Z</time></trkpt><trkpt lat="56.88419883732403" lon="60.72257842236807"><ele>289.3333333333333</ele><time>2026-04-24T16:36:24Z</time></trkpt><trkpt lat="56.884080268116925" lon="60.72269972167947"><ele>289.6666666666667</ele><time>2026-04-24T16:36:25Z</time></trkpt><trkpt lat="56.8839460209849" lon="60.7228362513578"><ele>290.0</ele><time>2026-04-24T16:36:26Z</time></trkpt><trkpt lat="56.88379736305926" lon="60.72297019576554"><ele>290.75</ele><time>2026-04-24T16:36:27Z</time></trkpt><trkpt lat="56.883654681944314" lon="60.72310205401028"><ele>291.5</ele><time>2026-04-24T16:36:28Z</time></trkpt><trkpt lat="56.88353387101213" lon="60.723220219446745"><ele>292.25</ele><time>2026-04-24T16:36:29Z</time></trkpt><trkpt lat="56.88342322944833" lon="60.72333382523091"><ele>293.0</ele><time>2026-04-24T16:36:30Z</time></trkpt><trkpt lat="56.8833283522809" lon="60.72343312747159"><ele>293.0</ele><time>2026-04-24T16:36:31Z</time></trkpt><trkpt lat="56.88323809466833" lon="60.72353574859722"><ele>293.0</ele><time>2026-04-24T16:36:32Z</time></trkpt><trkpt lat="56.88313646348375" lon="60.72363474418167"><ele>293.0</ele><time>2026-04-24T16:36:33Z</time></trkpt><trkpt lat="56.883036335522775" lon="60.72373141073228"><ele>293.0</ele><time>2026-04-24T16:36:34Z</time></trkpt><trkpt lat="56.88293211617788" lon="60.72379682061501"><ele>293.0</ele><time>2026-04-24T16:36:35Z</time></trkpt><trkpt lat="56.88284679560212" lon="60.72389514689487"><ele>293.0</ele><time>2026-04-24T16:36:36Z</time></trkpt><trkpt lat="56.882766861155574" lon="60.72398056647141"><ele>293.0</ele><time>2026-04-24T16:36:37Z</time></trkpt><trkpt lat="56.88269585230331" lon="60.72405779421186"><ele>293.0</ele><time>2026-04-24T16:36:38Z</time></trkpt><trkpt lat="56.88263503971613" lon="60.72412388436711"><ele>293.0</ele><time>2026-04-24T16:36:39Z</time></trkpt><trkpt lat="56.882579452855914" lon="60.7241842581717"><ele>293.0</ele><time>2026-04-24T16:36:40Z</time></trkpt><trkpt lat="56.882510134180116" lon="60.724317180516046"><ele>293.0</ele><time>2026-04-24T16:36:42Z</time></trkpt><trkpt lat="56.88243458980062" lon="60.72438932893575"><ele>293.83333333333337</ele><time>2026-04-24T16:36:44Z</time></trkpt><trkpt lat="56.88232400825636" lon="60.72447833924556"><ele>294.6666666666667</ele><time>2026-04-24T16:36:46Z</time></trkpt><trkpt lat="56.882256445245396" lon="60.724533539153086"><ele>295.5</ele><time>2026-04-24T16:36:47Z</time></trkpt><trkpt lat="56.882207987328194" lon="60.72464989651945"><ele>296.3333333333333</ele><time>2026-04-24T16:36:48Z</time></trkpt><trkpt lat="56.88216126168002" lon="60.724732871115805"><ele>297.16666666666663</ele><time>2026-04-24T16:36:49Z</time></trkpt><trkpt lat="56.88207772394246" lon="60.72483130002873"><ele>298.0</ele><time>2026-04-24T16:36:51Z</time></trkpt><trkpt lat="56.88200511744267" lon="60.724921225570036"><ele>298.0</ele><time>2026-04-24T16:36:53Z</time></trkpt><trkpt lat="56.88192729982032" lon="60.72497771532921"><ele>298.0</ele><time>2026-04-24T16:36:54Z</time></trkpt><trkpt lat="56.88185990447368" lon="60.72500327822844"><ele>298.0</ele><time>2026-04-24T16:36:55Z</time></trkpt><trkpt lat="56.881782471430256" lon="60.72501718218147"><ele>298.0</ele><time>2026-04-24T16:36:56Z</time></trkpt><trkpt lat="56.88169975061027" lon="60.725015727955416"><ele>298.0</ele><time>2026-04-24T16:36:57Z</time></trkpt><trkpt lat="56.8816225941463" lon="60.72501016533949"><ele>298.0</ele><time>2026-04-24T16:36:58Z</time></trkpt><trkpt lat="56.88153578711005" lon="60.725020419109114"><ele>298.5</ele><time>2026-04-24T16:36:59Z</time></trkpt><trkpt lat="56.88145883392215" lon="60.7250236477406"><ele>299.0</ele><time>2026-04-24T16:37:00Z</time></trkpt><trkpt lat="56.88138526025737" lon="60.725030718900385"><ele>299.5</ele><time>2026-04-24T16:37:01Z</time></trkpt><trkpt lat="56.8813167583507" lon="60.72503876988969"><ele>300.0</ele><time>2026-04-24T16:37:02Z</time></trkpt><trkpt lat="56.881243005332074" lon="60.72505098225424"><ele>300.5</ele><time>2026-04-24T16:37:03Z</time></trkpt><trkpt lat="56.88113895894693" lon="60.72506041430842"><ele>301.0</ele><time>2026-04-24T16:37:04Z</time></trkpt><trkpt lat="56.88104420626843" lon="60.725059810660085"><ele>301.0</ele><time>2026-04-24T16:37:05Z</time></trkpt><trkpt lat="56.880947574157" lon="60.72505408177666"><ele>301.0</ele><time>2026-04-24T16:37:06Z</time></trkpt><trkpt lat="56.880840465401775" lon="60.725029190440814"><ele>301.0</ele><time>2026-04-24T16:37:07Z</time></trkpt><trkpt lat="56.88072300026811" lon="60.72498393652606"><ele>301.0</ele><time>2026-04-24T16:37:08Z</time></trkpt><trkpt lat="56.8806006106628" lon="60.724933919191464"><ele>301.40000000000003</ele><time>2026-04-24T16:37:09Z</time></trkpt><trkpt lat="56.88049491604194" lon="60.72489322003767"><ele>301.8</ele><time>2026-04-24T16:37:10Z</time></trkpt><trkpt lat="56.88039885541926" lon="60.724866738686195"><ele>302.20000000000005</ele><time>2026-04-24T16:37:11Z</time></trkpt><trkpt lat="56.88033167734949" lon="60.72486127983898"><ele>302.6</ele><time>2026-04-24T16:37:12Z</time></trkpt><trkpt lat="56.88026151678002" lon="60.7248351330937"><ele>303.0</ele><time>2026-04-24T16:37:14Z</time></trkpt><trkpt lat="56.88015321495086" lon="60.724781539201146"><ele>303.1666666666667</ele><time>2026-04-24T16:37:17.001Z</time></trkpt><trkpt lat="56.88007228578018" lon="60.72469985603563"><ele>303.3333333333333</ele><time>2026-04-24T16:37:19.001Z</time></trkpt><trkpt lat="56.879949241405605" lon="60.724705445428555"><ele>303.5</ele><time>2026-04-24T16:37:21.001Z</time></trkpt><trkpt lat="56.879881355336586" lon="60.72469711194016"><ele>303.66666666666663</ele><time>2026-04-24T16:37:22.001Z</time></trkpt><trkpt lat="56.87981585944744" lon="60.7246819195538"><ele>303.8333333333333</ele><time>2026-04-24T16:37:23.001Z</time></trkpt><trkpt lat="56.87974065668341" lon="60.72466581513302"><ele>304.0</ele><time>2026-04-24T16:37:24.001Z</time></trkpt><trkpt lat="56.879665930256095" lon="60.72466060882032"><ele>304.0</ele><time>2026-04-24T16:37:25.001Z</time></trkpt><trkpt lat="56.8795464203301" lon="60.72464779062438"><ele>304.0</ele><time>2026-04-24T16:37:27.001Z</time></trkpt><trkpt lat="56.87947568801499" lon="60.72462053381251"><ele>304.0</ele><time>2026-04-24T16:37:28.001Z</time></trkpt><trkpt lat="56.87940683286623" lon="60.724583874262514"><ele>304.0</ele><time>2026-04-24T16:37:29.001Z</time></trkpt><trkpt lat="56.879340589441355" lon="60.724558096147476"><ele>304.0</ele><time>2026-04-24T16:37:30.001Z</time></trkpt><trkpt lat="56.87924245148469" lon="60.72454360884778"><ele>304.0</ele><time>2026-04-24T16:37:31.001Z</time></trkpt><trkpt lat="56.879159762526314" lon="60.72453260610936"><ele>303.4285714285714</ele><time>2026-04-24T16:37:32.001Z</time></trkpt><trkpt lat="56.879082338736" lon="60.72451782131325"><ele>302.8571428571429</ele><time>2026-04-24T16:37:33.001Z</time></trkpt><trkpt lat="56.879011766739595" lon="60.72450357101072"><ele>302.2857142857143</ele><time>2026-04-24T16:37:34.001Z</time></trkpt><trkpt lat="56.87894454025988" lon="60.7244944287569"><ele>301.71428571428567</ele><time>2026-04-24T16:37:35.001Z</time></trkpt><trkpt lat="56.8788780424197" lon="60.72446389156246"><ele>301.1428571428571</ele><time>2026-04-24T16:37:36.001Z</time></trkpt><trkpt lat="56.87880831602016" lon="60.724423231448746"><ele>300.57142857142856</ele><time>2026-04-24T16:37:37.001Z</time></trkpt><trkpt lat="56.87874609366959" lon="60.72439933072812"><ele>300.0</ele><time>2026-04-24T16:37:38.001Z</time></trkpt><trkpt lat="56.87863676826501" lon="60.72433649851369"><ele>299.3333333333333</ele><time>2026-04-24T16:37:40.001Z</time></trkpt><trkpt lat="56.878541761128226" lon="60.72422453103334"><ele>298.6666666666667</ele><time>2026-04-24T16:37:42.001Z</time></trkpt><trkpt lat="56.87848724372847" lon="60.72412946108701"><ele>298.0</ele><time>2026-04-24T16:37:43.001Z</time></trkpt><trkpt lat="56.87841108308519" lon="60.72403887692422"><ele>297.33333333333337</ele><time>2026-04-24T16:37:45.001Z</time></trkpt><trkpt lat="56.87834860735968" lon="60.72389588279447"><ele>296.6666666666667</ele><time>2026-04-24T16:37:47.001Z</time></trkpt><trkpt lat="56.87832099113979" lon="60.72378236027299"><ele>296.0</ele><time>2026-04-24T16:37:48.001Z</time></trkpt><trkpt lat="56.87828527708601" lon="60.72364823616598"><ele>295.6666666666667</ele><time>2026-04-24T16:37:49.001Z</time></trkpt><trkpt lat="56.87825009210387" lon="60.72351292785903"><ele>295.33333333333337</ele><time>2026-04-24T16:37:50.001Z</time></trkpt><trkpt lat="56.878214559999556" lon="60.72337604423079"><ele>295.0</ele><time>2026-04-24T16:37:51.001Z</time></trkpt><trkpt lat="56.87818483260972" lon="60.723273963092176"><ele>294.6666666666667</ele><time>2026-04-24T16:37:52.001Z</time></trkpt><trkpt lat="56.878126946741354" lon="60.723124814488685"><ele>294.3333333333333</ele><time>2026-04-24T16:37:54.001Z</time></trkpt><trkpt lat="56.878085553287534" lon="60.7230244146669"><ele>294.0</ele><time>2026-04-24T16:37:56.001Z</time></trkpt><trkpt lat="56.878004444167836" lon="60.72302744196302"><ele>294.0</ele><time>2026-04-24T16:37:58.001Z</time></trkpt><trkpt lat="56.87794677166645" lon="60.72308159907794"><ele>294.0</ele><time>2026-04-24T16:37:59.001Z</time></trkpt><trkpt lat="56.877881320889614" lon="60.723161322774445"><ele>294.0</ele><time>2026-04-24T16:38:00.001Z</time></trkpt><trkpt lat="56.87780971220243" lon="60.723246440469474"><ele>294.0</ele><time>2026-04-24T16:38:01.001Z</time></trkpt><trkpt lat="56.877733993604444" lon="60.723339558423945"><ele>294.0</ele><time>2026-04-24T16:38:02.001Z</time></trkpt><trkpt lat="56.87766138481714" lon="60.72342307805592"><ele>294.0</ele><time>2026-04-24T16:38:03.001Z</time></trkpt><trkpt lat="56.877590979214865" lon="60.72348811590693"><ele>294.0</ele><time>2026-04-24T16:38:04.001Z</time></trkpt><trkpt lat="56.87752909592682" lon="60.72355830053004"><ele>294.0</ele><time>2026-04-24T16:38:05.001Z</time></trkpt><trkpt lat="56.87747652184115" lon="60.723630265470426"><ele>294.0</ele><time>2026-04-24T16:38:06.001Z</time></trkpt><trkpt lat="56.87741978844168" lon="60.72370981569737"><ele>294.0</ele><time>2026-04-24T16:38:07.001Z</time></trkpt><trkpt lat="56.877360651382034" lon="60.72378248678973"><ele>294.0</ele><time>2026-04-24T16:38:08.001Z</time></trkpt><trkpt lat="56.87725078103645" lon="60.723906800079696"><ele>294.0</ele><time>2026-04-24T16:38:10.001Z</time></trkpt><trkpt lat="56.87714327267124" lon="60.72402551027182"><ele>294.2</ele><time>2026-04-24T16:38:12.001Z</time></trkpt><trkpt lat="56.87703748194415" lon="60.724165557405655"><ele>294.4</ele><time>2026-04-24T16:38:14.001Z</time></trkpt><trkpt lat="56.87697492843223" lon="60.724241394584624"><ele>294.6</ele><time>2026-04-24T16:38:15.001Z</time></trkpt><trkpt lat="56.87690216847443" lon="60.72433466385284"><ele>294.8</ele><time>2026-04-24T16:38:16.001Z</time></trkpt><trkpt lat="56.876817506511976" lon="60.724430437738874"><ele>295.0</ele><time>2026-04-24T16:38:17.001Z</time></trkpt><trkpt lat="56.87671401106828" lon="60.7245456258935"><ele>294.5</ele><time>2026-04-24T16:38:18.001Z</time></trkpt><trkpt lat="56.87661347731771" lon="60.72464234747521"><ele>294.0</ele><time>2026-04-24T16:38:19.001Z</time></trkpt><trkpt lat="56.87653158360929" lon="60.724744099143756"><ele>293.5</ele><time>2026-04-24T16:38:20.001Z</time></trkpt><trkpt lat="56.876461326525096" lon="60.7248265061304"><ele>293.0</ele><time>2026-04-24T16:38:21.001Z</time></trkpt><trkpt lat="56.876398653556784" lon="60.724901740379465"><ele>292.5</ele><time>2026-04-24T16:38:22.001Z</time></trkpt><trkpt lat="56.87634087657562" lon="60.724975815846115"><ele>292.0</ele><time>2026-04-24T16:38:23.001Z</time></trkpt><trkpt lat="56.876245339914874" lon="60.72510543891219"><ele>292.0</ele><time>2026-04-24T16:38:25.001Z</time></trkpt><trkpt lat="56.876163255053235" lon="60.72521017794093"><ele>292.0</ele><time>2026-04-24T16:38:27.001Z</time></trkpt><trkpt lat="56.87610292073657" lon="60.72526026206984"><ele>292.0</ele><time>2026-04-24T16:38:29.001Z</time></trkpt><trkpt lat="56.876039071865996" lon="60.72528619049795"><ele>292.0</ele><time>2026-04-24T16:38:32.001Z</time></trkpt><trkpt lat="56.87596216777807" lon="60.72528551480356"><ele>292.0</ele><time>2026-04-24T16:38:36.001Z</time></trkpt><trkpt lat="56.87588954205572" lon="60.72534573719907"><ele>292.0</ele><time>2026-04-24T16:38:39.001Z</time></trkpt><trkpt lat="56.87583086756953" lon="60.725428767544074"><ele>293.2</ele><time>2026-04-24T16:38:41.001Z</time></trkpt><trkpt lat="56.8757943986064" lon="60.72555376520761"><ele>294.4</ele><time>2026-04-24T16:38:43.001Z</time></trkpt><trkpt lat="56.875788130253085" lon="60.725723780312556"><ele>295.6</ele><time>2026-04-24T16:38:45.001Z</time></trkpt><trkpt lat="56.875808239997696" lon="60.725897829141346"><ele>296.8</ele><time>2026-04-24T16:38:47.001Z</time></trkpt><trkpt lat="56.87583443406342" lon="60.72609888642547"><ele>298.0</ele><time>2026-04-24T16:38:49.001Z</time></trkpt><trkpt lat="56.87589444949626" lon="60.726269369712"><ele>298.5</ele><time>2026-04-24T16:38:51.001Z</time></trkpt><trkpt lat="56.87593254360171" lon="60.72643998062073"><ele>299.0</ele><time>2026-04-24T16:38:53.001Z</time></trkpt><trkpt lat="56.87595305374172" lon="60.72656951804225"><ele>299.5</ele><time>2026-04-24T16:38:55.001Z</time></trkpt><trkpt lat="56.875977627623776" lon="60.72675732435979"><ele>300.0</ele><time>2026-04-24T16:38:57.001Z</time></trkpt><trkpt lat="56.87598953370453" lon="60.726878304968686"><ele>300.5</ele><time>2026-04-24T16:38:58.001Z</time></trkpt><trkpt lat="56.876004388272435" lon="60.72701769226775"><ele>301.0</ele><time>2026-04-24T16:38:59.001Z</time></trkpt><trkpt lat="56.87602958279955" lon="60.72715413001074"><ele>301.5</ele><time>2026-04-24T16:39:00.001Z</time></trkpt><trkpt lat="56.87605934239423" lon="60.72730627682093"><ele>302.0</ele><time>2026-04-24T16:39:01.001Z</time></trkpt><trkpt lat="56.87610470613035" lon="60.72746213267977"><ele>302.5</ele><time>2026-04-24T16:39:02.001Z</time></trkpt><trkpt lat="56.876148673192375" lon="60.72760306164571"><ele>303.0</ele><time>2026-04-24T16:39:03.001Z</time></trkpt><trkpt lat="56.87616893040934" lon="60.72772443528967"><ele>303.5</ele><time>2026-04-24T16:39:04.001Z</time></trkpt><trkpt lat="56.876181635196254" lon="60.72784175320666"><ele>304.0</ele><time>2026-04-24T16:39:05.001Z</time></trkpt><trkpt lat="56.87619554955451" lon="60.727962957743316"><ele>304.0</ele><time>2026-04-24T16:39:06.001Z</time></trkpt><trkpt lat="56.87621162532675" lon="60.72811458589112"><ele>304.0</ele><time>2026-04-24T16:39:07.001Z</time></trkpt><trkpt lat="56.87621105444135" lon="60.72829911110145"><ele>304.0</ele><time>2026-04-24T16:39:08.001Z</time></trkpt><trkpt lat="56.876201191896655" lon="60.728462525084886"><ele>304.0</ele><time>2026-04-24T16:39:09.001Z</time></trkpt><trkpt lat="56.87619472202795" lon="60.7286028710008"><ele>304.0</ele><time>2026-04-24T16:39:10.001Z</time></trkpt><trkpt lat="56.87620603579347" lon="60.728753796586886"><ele>304.0</ele><time>2026-04-24T16:39:11.001Z</time></trkpt><trkpt lat="56.87621952960265" lon="60.72889061505398"><ele>304.0</ele><time>2026-04-24T16:39:12.001Z</time></trkpt><trkpt lat="56.87625226097696" lon="60.729049629407314"><ele>304.0</ele><time>2026-04-24T16:39:13.001Z</time></trkpt><trkpt lat="56.87626612977465" lon="60.72917234740417"><ele>304.0</ele><time>2026-04-24T16:39:14.001Z</time></trkpt><trkpt lat="56.876282939835704" lon="60.72929278589618"><ele>304.0</ele><time>2026-04-24T16:39:15.001Z</time></trkpt><trkpt lat="56.87631569008315" lon="60.72953753159804"><ele>304.0</ele><time>2026-04-24T16:39:17.001Z</time></trkpt><trkpt lat="56.8763254447319" lon="60.729667527890825"><ele>304.0</ele><time>2026-04-24T16:39:18.001Z</time></trkpt><trkpt lat="56.876347428393096" lon="60.729877732216025"><ele>303.8333333333333</ele><time>2026-04-24T16:39:20.001Z</time></trkpt><trkpt lat="56.876377471426245" lon="60.72998505587734"><ele>303.66666666666663</ele><time>2026-04-24T16:39:21.001Z</time></trkpt><trkpt lat="56.87640688995701" lon="60.7301178186344"><ele>303.5</ele><time>2026-04-24T16:39:22.001Z</time></trkpt><trkpt lat="56.87643552019576" lon="60.730274220000815"><ele>303.3333333333333</ele><time>2026-04-24T16:39:23.001Z</time></trkpt><trkpt lat="56.876472411445604" lon="60.730426465473776"><ele>303.1666666666667</ele><time>2026-04-24T16:39:24.001Z</time></trkpt><trkpt lat="56.87650301116088" lon="60.730567818731885"><ele>303.0</ele><time>2026-04-24T16:39:25.001Z</time></trkpt><trkpt lat="56.87653788756249" lon="60.73070453191209"><ele>303.0</ele><time>2026-04-24T16:39:26.001Z</time></trkpt><trkpt lat="56.87655945058055" lon="60.73084599077762"><ele>303.0</ele><time>2026-04-24T16:39:27.001Z</time></trkpt><trkpt lat="56.87658321031396" lon="60.730982429266426"><ele>303.0</ele><time>2026-04-24T16:39:28.001Z</time></trkpt><trkpt lat="56.876615458660126" lon="60.73110749004773"><ele>303.0</ele><time>2026-04-24T16:39:29.001Z</time></trkpt><trkpt lat="56.87664729436166" lon="60.731222253402194"><ele>303.0</ele><time>2026-04-24T16:39:30.001Z</time></trkpt><trkpt lat="56.87668128371545" lon="60.73135287063745"><ele>303.0</ele><time>2026-04-24T16:39:31.001Z</time></trkpt><trkpt lat="56.87670681470478" lon="60.73146823868791"><ele>302.8333333333333</ele><time>2026-04-24T16:39:32.001Z</time></trkpt><trkpt lat="56.87673121518896" lon="60.73157873251756"><ele>302.6666666666667</ele><time>2026-04-24T16:39:33.001Z</time></trkpt><trkpt lat="56.87676222071342" lon="60.73171299333455"><ele>302.5</ele><time>2026-04-24T16:39:34.001Z</time></trkpt><trkpt lat="56.87678989011984" lon="60.731877954175005"><ele>302.33333333333337</ele><time>2026-04-24T16:39:35.001Z</time></trkpt><trkpt lat="56.87681808823031" lon="60.732020634897225"><ele>302.1666666666667</ele><time>2026-04-24T16:39:36.001Z</time></trkpt><trkpt lat="56.87685505892447" lon="60.73216328298935"><ele>302.0</ele><time>2026-04-24T16:39:37.001Z</time></trkpt><trkpt lat="56.87689652001628" lon="60.732355463130745"><ele>301.6</ele><time>2026-04-24T16:39:39.001Z</time></trkpt><trkpt lat="56.876925138832654" lon="60.73247642683383"><ele>301.2</ele><time>2026-04-24T16:39:40.001Z</time></trkpt><trkpt lat="56.876961180481366" lon="60.732684234663004"><ele>300.8</ele><time>2026-04-24T16:39:42.001Z</time></trkpt><trkpt lat="56.877008018461545" lon="60.73285302311922"><ele>300.4</ele><time>2026-04-24T16:39:44.001Z</time></trkpt><trkpt lat="56.87702579829914" lon="60.73300822715493"><ele>300.0</ele><time>2026-04-24T16:39:46.001Z</time></trkpt><trkpt lat="56.87702618616484" lon="60.73315067313411"><ele>299.3333333333333</ele><time>2026-04-24T16:39:48.001Z</time></trkpt><trkpt lat="56.87703301733617" lon="60.73338397218346"><ele>298.6666666666667</ele><time>2026-04-24T16:39:50.001Z</time></trkpt><trkpt lat="56.87705642823223" lon="60.73351879686795"><ele>298.0</ele><time>2026-04-24T16:39:51.001Z</time></trkpt><trkpt lat="56.87709145345187" lon="60.73369094067573"><ele>297.33333333333337</ele><time>2026-04-24T16:39:53.001Z</time></trkpt><trkpt lat="56.8770836592682" lon="60.73381668931841"><ele>296.6666666666667</ele><time>2026-04-24T16:39:55.001Z</time></trkpt><trkpt lat="56.8770804921803" lon="60.73394955394251"><ele>296.0</ele><time>2026-04-24T16:39:57.001Z</time></trkpt><trkpt lat="56.877065178991366" lon="60.73406749744677"><ele>296.0</ele><time>2026-04-24T16:40:00.001Z</time></trkpt><trkpt lat="56.877088484850425" lon="60.73392823115208"><ele>296.0</ele><time>2026-04-24T16:40:10.001Z</time></trkpt><trkpt lat="56.87706639964841" lon="60.73377200046077"><ele>296.0</ele><time>2026-04-24T16:40:12.001Z</time></trkpt><trkpt lat="56.877039863672216" lon="60.733663560296044"><ele>296.0</ele><time>2026-04-24T16:40:15.001Z</time></trkpt><trkpt lat="56.87702498254263" lon="60.733533673499686"><ele>296.0</ele><time>2026-04-24T16:40:18.001Z</time></trkpt><trkpt lat="56.876994714451605" lon="60.733411187604425"><ele>296.0</ele><time>2026-04-24T16:40:20.001Z</time></trkpt><trkpt lat="56.87695676445284" lon="60.73328459845623"><ele>296.0</ele><time>2026-04-24T16:40:22.001Z</time></trkpt><trkpt lat="56.87692380513554" lon="60.73304445034435"><ele>296.0</ele><time>2026-04-24T16:40:24.001Z</time></trkpt><trkpt lat="56.8768817613452" lon="60.73288511844208"><ele>296.0</ele><time>2026-04-24T16:40:25.001Z</time></trkpt><trkpt lat="56.87684909079433" lon="60.73274535061751"><ele>296.0</ele><time>2026-04-24T16:40:26.001Z</time></trkpt><trkpt lat="56.876806635976614" lon="60.732615492353034"><ele>296.0</ele><time>2026-04-24T16:40:27.001Z</time></trkpt><trkpt lat="56.87677429064927" lon="60.73249581224527"><ele>296.6666666666667</ele><time>2026-04-24T16:40:28.001Z</time></trkpt><trkpt lat="56.87674835941106" lon="60.73237872476687"><ele>297.33333333333337</ele><time>2026-04-24T16:40:29.001Z</time></trkpt><trkpt lat="56.87672213993247" lon="60.73226238443315"><ele>298.0</ele><time>2026-04-24T16:40:30.001Z</time></trkpt><trkpt lat="56.87669016156405" lon="60.732129404950484"><ele>298.6666666666667</ele><time>2026-04-24T16:40:31.001Z</time></trkpt><trkpt lat="56.876655703321106" lon="60.73198716768575"><ele>299.3333333333333</ele><time>2026-04-24T16:40:32.001Z</time></trkpt><trkpt lat="56.87661743798909" lon="60.73183540640344"><ele>300.0</ele><time>2026-04-24T16:40:33.001Z</time></trkpt><trkpt lat="56.87657400657926" lon="60.7316778888529"><ele>300.3333333333333</ele><time>2026-04-24T16:40:34.001Z</time></trkpt><trkpt lat="56.87653814669857" lon="60.731510053319965"><ele>300.6666666666667</ele><time>2026-04-24T16:40:35.001Z</time></trkpt><trkpt lat="56.876507431541334" lon="60.73136762596576"><ele>301.0</ele><time>2026-04-24T16:40:36.001Z</time></trkpt><trkpt lat="56.876477027382464" lon="60.73123918791502"><ele>301.33333333333337</ele><time>2026-04-24T16:40:37.001Z</time></trkpt><trkpt lat="56.87644115169442" lon="60.73112760481851"><ele>301.6666666666667</ele><time>2026-04-24T16:40:38.001Z</time></trkpt><trkpt lat="56.876409578731874" lon="60.73100735447602"><ele>302.0</ele><time>2026-04-24T16:40:39.001Z</time></trkpt><trkpt lat="56.87638215820273" lon="60.73088322091773"><ele>302.1666666666667</ele><time>2026-04-24T16:40:40.001Z</time></trkpt><trkpt lat="56.876346571954315" lon="60.73072892195656"><ele>302.33333333333337</ele><time>2026-04-24T16:40:42.001Z</time></trkpt><trkpt lat="56.87626229133309" lon="60.730676263453454"><ele>302.5</ele><time>2026-04-24T16:40:45.001Z</time></trkpt><trkpt lat="56.876202239522996" lon="60.73074214637045"><ele>302.6666666666667</ele><time>2026-04-24T16:40:48.001Z</time></trkpt><trkpt lat="56.876133639622374" lon="60.73074640751073"><ele>302.8333333333333</ele><time>2026-04-24T16:40:50.001Z</time></trkpt><trkpt lat="56.876038159386376" lon="60.730799210253316"><ele>303.0</ele><time>2026-04-24T16:40:52.001Z</time></trkpt><trkpt lat="56.87597329361238" lon="60.73085383233851"><ele>302.8333333333333</ele><time>2026-04-24T16:40:53Z</time></trkpt><trkpt lat="56.87589448997312" lon="60.73091948698436"><ele>302.6666666666667</ele><time>2026-04-24T16:40:54Z</time></trkpt><trkpt lat="56.8758232288842" lon="60.7309511558684"><ele>302.5</ele><time>2026-04-24T16:40:55Z</time></trkpt><trkpt lat="56.87575342243909" lon="60.73100312897754"><ele>302.33333333333337</ele><time>2026-04-24T16:40:56Z</time></trkpt><trkpt lat="56.8756885924339" lon="60.73103104120618"><ele>302.1666666666667</ele><time>2026-04-24T16:40:57Z</time></trkpt><trkpt lat="56.87560434798758" lon="60.731005036133006"><ele>302.0</ele><time>2026-04-24T16:40:59Z</time></trkpt><trkpt lat="56.87552672760168" lon="60.73090990950486"><ele>302.0</ele><time>2026-04-24T16:41:01Z</time></trkpt><trkpt lat="56.87547855970279" lon="60.730784172958586"><ele>302.0</ele><time>2026-04-24T16:41:04Z</time></trkpt><trkpt lat="56.87543681584525" lon="60.73065915785164"><ele>302.0</ele><time>2026-04-24T16:41:09Z</time></trkpt><trkpt lat="56.87541471481998" lon="60.73052928164215"><ele>302.0</ele><time>2026-04-24T16:41:11Z</time></trkpt><trkpt lat="56.875392351195494" lon="60.73038952190904"><ele>302.0</ele><time>2026-04-24T16:41:13Z</time></trkpt><trkpt lat="56.875358867085694" lon="60.73025701727963"><ele>302.0</ele><time>2026-04-24T16:41:15Z</time></trkpt><trkpt lat="56.87532789100331" lon="60.73013949110839"><ele>302.14285714285717</ele><time>2026-04-24T16:41:17Z</time></trkpt><trkpt lat="56.87530213550812" lon="60.730032145050735"><ele>302.2857142857143</ele><time>2026-04-24T16:41:19Z</time></trkpt><trkpt lat="56.87526637803435" lon="60.72992748755433"><ele>302.42857142857144</ele><time>2026-04-24T16:41:21Z</time></trkpt><trkpt lat="56.875221448363504" lon="60.729829158806766"><ele>302.57142857142856</ele><time>2026-04-24T16:41:23Z</time></trkpt><trkpt lat="56.875153747681864" lon="60.72969979770732"><ele>302.7142857142857</ele><time>2026-04-24T16:41:26Z</time></trkpt><trkpt lat="56.875098189632595" lon="60.729598841503844"><ele>302.8571428571429</ele><time>2026-04-24T16:41:30Z</time></trkpt><trkpt lat="56.8750660929245" lon="60.72949867607918"><ele>303.0</ele><time>2026-04-24T16:41:32Z</time></trkpt><trkpt lat="56.87502398712784" lon="60.72937940235796"><ele>302.5</ele><time>2026-04-24T16:41:34Z</time></trkpt><trkpt lat="56.87497108716648" lon="60.72925897236911"><ele>302.0</ele><time>2026-04-24T16:41:36Z</time></trkpt><trkpt lat="56.874916266277985" lon="60.7291896643383"><ele>301.5</ele><time>2026-04-24T16:41:38Z</time></trkpt><trkpt lat="56.87487275033171" lon="60.72908906756916"><ele>301.0</ele><time>2026-04-24T16:41:40Z</time></trkpt><trkpt lat="56.87480408997477" lon="60.72899001962127"><ele>300.5</ele><time>2026-04-24T16:41:43Z</time></trkpt><trkpt lat="56.87474616148864" lon="60.728915396385815"><ele>300.0</ele><time>2026-04-24T16:41:45Z</time></trkpt><trkpt lat="56.874690471441816" lon="60.7287928927645"><ele>299.99999999999994</ele><time>2026-04-24T16:41:48Z</time></trkpt><trkpt lat="56.874639505297516" lon="60.72869726326607"><ele>300.0</ele><time>2026-04-24T16:41:51Z</time></trkpt><trkpt lat="56.87459116869534" lon="60.72858509673374"><ele>300.0</ele><time>2026-04-24T16:41:54Z</time></trkpt><trkpt lat="56.8745365519277" lon="60.72849684324354"><ele>300.0</ele><time>2026-04-24T16:41:57Z</time></trkpt><trkpt lat="56.87452804870421" lon="60.72838227687683"><ele>300.0</ele><time>2026-04-24T16:42:00Z</time></trkpt><trkpt lat="56.87450221904995" lon="60.728220236634336"><ele>299.99999999999994</ele><time>2026-04-24T16:42:03Z</time></trkpt><trkpt lat="56.874488839551304" lon="60.728103125740496"><ele>300.0</ele><time>2026-04-24T16:42:05Z</time></trkpt><trkpt lat="56.87445763989679" lon="60.72799416746941"><ele>300.0</ele><time>2026-04-24T16:42:07Z</time></trkpt><trkpt lat="56.87442980232388" lon="60.72788548087386"><ele>300.0</ele><time>2026-04-24T16:42:09Z</time></trkpt><trkpt lat="56.87437740230643" lon="60.727782241929035"><ele>300.0</ele><time>2026-04-24T16:42:11Z</time></trkpt><trkpt lat="56.87430245475181" lon="60.727660109473604"><ele>300.0</ele><time>2026-04-24T16:42:14Z</time></trkpt><trkpt lat="56.874262774040005" lon="60.72754356230087"><ele>300.0</ele><time>2026-04-24T16:42:17Z</time></trkpt><trkpt lat="56.87422490578064" lon="60.7274226938932"><ele>300.0</ele><time>2026-04-24T16:42:20Z</time></trkpt><trkpt lat="56.87418190938116" lon="60.727303601697386"><ele>299.5</ele><time>2026-04-24T16:42:23Z</time></trkpt><trkpt lat="56.87413801452324" lon="60.72716087210849"><ele>299.0</ele><time>2026-04-24T16:42:26Z</time></trkpt><trkpt lat="56.874084722488384" lon="60.72701934508872"><ele>298.5</ele><time>2026-04-24T16:42:29Z</time></trkpt><trkpt lat="56.87402865107863" lon="60.72691099079559"><ele>298.0</ele><time>2026-04-24T16:42:32Z</time></trkpt><trkpt lat="56.873980446651466" lon="60.72682756790729"><ele>297.5</ele><time>2026-04-24T16:42:34Z</time></trkpt><trkpt lat="56.873931554151646" lon="60.72675173533511"><ele>297.0</ele><time>2026-04-24T16:42:36Z</time></trkpt><trkpt lat="56.87387494246262" lon="60.726670853204894"><ele>297.0</ele><time>2026-04-24T16:42:38Z</time></trkpt><trkpt lat="56.873806231502314" lon="60.72658041926932"><ele>297.0</ele><time>2026-04-24T16:42:40Z</time></trkpt><trkpt lat="56.87374690142127" lon="60.72651083127584"><ele>297.0</ele><time>2026-04-24T16:42:42Z</time></trkpt><trkpt lat="56.87367102843162" lon="60.726406812630145"><ele>297.0</ele><time>2026-04-24T16:42:44Z</time></trkpt><trkpt lat="56.873611180870256" lon="60.72632664720009"><ele>297.0</ele><time>2026-04-24T16:42:46Z</time></trkpt><trkpt lat="56.87355102150879" lon="60.72625548726744"><ele>297.0</ele><time>2026-04-24T16:42:48Z</time></trkpt><trkpt lat="56.87349518752209" lon="60.726165217307745"><ele>297.0</ele><time>2026-04-24T16:42:51Z</time></trkpt><trkpt lat="56.873443483138374" lon="60.7260661460249"><ele>297.0</ele><time>2026-04-24T16:42:53Z</time></trkpt><trkpt lat="56.87339652055452" lon="60.725961265375496"><ele>297.0</ele><time>2026-04-24T16:42:55Z</time></trkpt><trkpt lat="56.87334275324783" lon="60.72585882191492"><ele>297.0</ele><time>2026-04-24T16:42:58Z</time></trkpt><trkpt lat="56.87332507714641" lon="60.725674378547666"><ele>297.0</ele><time>2026-04-24T16:43:02Z</time></trkpt><trkpt lat="56.8733694084421" lon="60.7255481797051"><ele>297.0</ele><time>2026-04-24T16:43:05Z</time></trkpt><trkpt lat="56.87341797862282" lon="60.725453307873885"><ele>296.8333333333333</ele><time>2026-04-24T16:43:08Z</time></trkpt><trkpt lat="56.87347233084555" lon="60.725351883875724"><ele>296.6666666666667</ele><time>2026-04-24T16:43:11Z</time></trkpt><trkpt lat="56.87342406356867" lon="60.72525532686706"><ele>296.5</ele><time>2026-04-24T16:43:17Z</time></trkpt><trkpt lat="56.87334289541596" lon="60.72530159316286"><ele>296.33333333333337</ele><time>2026-04-24T16:43:19Z</time></trkpt><trkpt lat="56.87327256607426" lon="60.72532098564679"><ele>296.1666666666667</ele><time>2026-04-24T16:43:20Z</time></trkpt><trkpt lat="56.87319162878385" lon="60.725355026192155"><ele>296.0</ele><time>2026-04-24T16:43:21Z</time></trkpt><trkpt lat="56.873094039688596" lon="60.725396827667254"><ele>295.6</ele><time>2026-04-24T16:43:22Z</time></trkpt><trkpt lat="56.873005753860845" lon="60.725438001810375"><ele>295.20000000000005</ele><time>2026-04-24T16:43:23Z</time></trkpt><trkpt lat="56.872910957383326" lon="60.725470140537084"><ele>294.79999999999995</ele><time>2026-04-24T16:43:24Z</time></trkpt><trkpt lat="56.87282845996105" lon="60.72547974890479"><ele>294.4</ele><time>2026-04-24T16:43:25Z</time></trkpt><trkpt lat="56.87274447245716" lon="60.72546707757589"><ele>294.0</ele><time>2026-04-24T16:43:26Z</time></trkpt><trkpt lat="56.87264579645011" lon="60.725442188068655"><ele>293.8</ele><time>2026-04-24T16:43:27Z</time></trkpt><trkpt lat="56.87254507055479" lon="60.72540704152767"><ele>293.59999999999997</ele><time>2026-04-24T16:43:28Z</time></trkpt><trkpt lat="56.872465681883064" lon="60.72538060095224"><ele>293.4</ele><time>2026-04-24T16:43:29Z</time></trkpt><trkpt lat="56.872392029786454" lon="60.725365183503754"><ele>293.2</ele><time>2026-04-24T16:43:30Z</time></trkpt><trkpt lat="56.87228646454802" lon="60.72531735976868"><ele>293.0</ele><time>2026-04-24T16:43:32Z</time></trkpt><trkpt lat="56.87216821044413" lon="60.725287077299335"><ele>293.0</ele><time>2026-04-24T16:43:34Z</time></trkpt><trkpt lat="56.87209553248595" lon="60.725262824849985"><ele>293.0</ele><time>2026-04-24T16:43:35Z</time></trkpt><trkpt lat="56.87201649334404" lon="60.7252128163956"><ele>293.0</ele><time>2026-04-24T16:43:36Z</time></trkpt><trkpt lat="56.871954181434205" lon="60.725190330529074"><ele>293.0</ele><time>2026-04-24T16:43:37Z</time></trkpt><trkpt lat="56.87187754765256" lon="60.7251847245909"><ele>293.0</ele><time>2026-04-24T16:43:38Z</time></trkpt><trkpt lat="56.87179348140243" lon="60.72519561058914"><ele>293.0</ele><time>2026-04-24T16:43:39Z</time></trkpt><trkpt lat="56.871720835494116" lon="60.72522833007091"><ele>292.5</ele><time>2026-04-24T16:43:40Z</time></trkpt><trkpt lat="56.87165268079175" lon="60.725260357479335"><ele>292.0</ele><time>2026-04-24T16:43:41Z</time></trkpt><trkpt lat="56.87158799850666" lon="60.72528425047364"><ele>291.5</ele><time>2026-04-24T16:43:42Z</time></trkpt><trkpt lat="56.87151320285194" lon="60.72527997224079"><ele>291.0</ele><time>2026-04-24T16:43:43Z</time></trkpt><trkpt lat="56.87142750544269" lon="60.72525499316423"><ele>290.5</ele><time>2026-04-24T16:43:44Z</time></trkpt><trkpt lat="56.87133007931367" lon="60.72521367440735"><ele>290.0</ele><time>2026-04-24T16:43:45Z</time></trkpt><trkpt lat="56.87125546057002" lon="60.7251822305021"><ele>289.0</ele><time>2026-04-24T16:43:46Z</time></trkpt><trkpt lat="56.87119681609584" lon="60.72513812708594"><ele>288.0</ele><time>2026-04-24T16:43:48Z</time></trkpt><trkpt lat="56.871173962091504" lon="60.72501199976018"><ele>287.0</ele><time>2026-04-24T16:43:53Z</time></trkpt><trkpt lat="56.871176683594015" lon="60.72489035341406"><ele>286.0</ele><time>2026-04-24T16:43:58Z</time></trkpt><trkpt lat="56.87116220298808" lon="60.7247395066386"><ele>285.0</ele><time>2026-04-24T16:44:02Z</time></trkpt><trkpt lat="56.87111467093124" lon="60.724641405348216"><ele>284.0</ele><time>2026-04-24T16:44:04Z</time></trkpt><trkpt lat="56.87104592599555" lon="60.7245739008237"><ele>283.0</ele><time>2026-04-24T16:44:06Z</time></trkpt><trkpt lat="56.87097846090508" lon="60.72451179560428"><ele>283.5</ele><time>2026-04-24T16:44:08Z</time></trkpt><trkpt lat="56.8709694242872" lon="60.72438231786202"><ele>284.0</ele><time>2026-04-24T16:44:11Z</time></trkpt><trkpt lat="56.8709340362577" lon="60.72427385644934"><ele>284.5</ele><time>2026-04-24T16:44:19Z</time></trkpt><trkpt lat="56.87091788168635" lon="60.7241604684333"><ele>285.0</ele><time>2026-04-24T16:44:32Z</time></trkpt><trkpt lat="56.87086689353817" lon="60.724257328867935"><ele>285.5</ele><time>2026-04-24T16:48:38Z</time></trkpt><trkpt lat="56.87081917164096" lon="60.72436621179342"><ele>286.0</ele><time>2026-04-24T16:48:40Z</time></trkpt><trkpt lat="56.87078444448633" lon="60.72454001144302"><ele>286.0</ele><time>2026-04-24T16:48:42Z</time></trkpt><trkpt lat="56.87075796349356" lon="60.724666774838525"><ele>286.0</ele><time>2026-04-24T16:48:44Z</time></trkpt><trkpt lat="56.87071175079588" lon="60.72478834496118"><ele>286.0</ele><time>2026-04-24T16:48:47Z</time></trkpt><trkpt lat="56.87067294619598" lon="60.7248852151157"><ele>286.0</ele><time>2026-04-24T16:48:49Z</time></trkpt><trkpt lat="56.87062632897718" lon="60.72497457901772"><ele>286.0</ele><time>2026-04-24T16:48:51Z</time></trkpt><trkpt lat="56.870520317966715" lon="60.72492488491212"><ele>286.0</ele><time>2026-04-24T16:48:54Z</time></trkpt><trkpt lat="56.870403439288864" lon="60.724974260379675"><ele>286.0</ele><time>2026-04-24T16:48:56Z</time></trkpt><trkpt lat="56.870336974828035" lon="60.72498556430708"><ele>286.0</ele><time>2026-04-24T16:48:57Z</time></trkpt><trkpt lat="56.87024173805213" lon="60.72496263186725"><ele>286.0</ele><time>2026-04-24T16:48:59Z</time></trkpt><trkpt lat="56.87014735596804" lon="60.724960592946786"><ele>286.0</ele><time>2026-04-24T16:49:01Z</time></trkpt><trkpt lat="56.87005073372451" lon="60.724925175898434"><ele>286.0</ele><time>2026-04-24T16:49:03Z</time></trkpt><trkpt lat="56.86993875884821" lon="60.724851938354625"><ele>285.6</ele><time>2026-04-24T16:49:05Z</time></trkpt><trkpt lat="56.86984109541796" lon="60.724754617132085"><ele>285.20000000000005</ele><time>2026-04-24T16:49:07Z</time></trkpt><trkpt lat="56.86974478652003" lon="60.724667063379975"><ele>284.79999999999995</ele><time>2026-04-24T16:49:09Z</time></trkpt><trkpt lat="56.86965115200577" lon="60.724607655515285"><ele>284.4</ele><time>2026-04-24T16:49:11Z</time></trkpt><trkpt lat="56.8695642037289" lon="60.72459594879241"><ele>284.0</ele><time>2026-04-24T16:49:13Z</time></trkpt><trkpt lat="56.869471136382145" lon="60.72457802623235"><ele>284.0</ele><time>2026-04-24T16:49:15Z</time></trkpt><trkpt lat="56.86937472566413" lon="60.724586431471"><ele>284.0</ele><time>2026-04-24T16:49:17Z</time></trkpt><trkpt lat="56.86927478152551" lon="60.72463078405067"><ele>284.0</ele><time>2026-04-24T16:49:19Z</time></trkpt><trkpt lat="56.869204358058525" lon="60.72465426893579"><ele>284.0</ele><time>2026-04-24T16:49:21Z</time></trkpt><trkpt lat="56.86910803782871" lon="60.72462892439344"><ele>284.0</ele><time>2026-04-24T16:49:23Z</time></trkpt><trkpt lat="56.86902604588671" lon="60.72463467300261"><ele>283.83333333333337</ele><time>2026-04-24T16:49:25Z</time></trkpt><trkpt lat="56.86896732821347" lon="60.72468390526699"><ele>283.6666666666667</ele><time>2026-04-24T16:49:27Z</time></trkpt><trkpt lat="56.86889421589023" lon="60.72475973725389"><ele>283.5</ele><time>2026-04-24T16:49:30Z</time></trkpt><trkpt lat="56.86881634133695" lon="60.72478476356763"><ele>283.3333333333333</ele><time>2026-04-24T16:49:32Z</time></trkpt><trkpt lat="56.86872454343463" lon="60.72475475347714"><ele>283.16666666666663</ele><time>2026-04-24T16:49:34Z</time></trkpt><trkpt lat="56.86864667037222" lon="60.72476676727426"><ele>283.0</ele><time>2026-04-24T16:49:36Z</time></trkpt><trkpt lat="56.86855212340166" lon="60.72478075756558"><ele>283.0</ele><time>2026-04-24T16:49:38Z</time></trkpt><trkpt lat="56.868479150836045" lon="60.72477223587458"><ele>283.0</ele><time>2026-04-24T16:49:39Z</time></trkpt><trkpt lat="56.86839234184217" lon="60.72475701179922"><ele>283.0</ele><time>2026-04-24T16:49:40Z</time></trkpt><trkpt lat="56.86830244912993" lon="60.7247445996597"><ele>283.0</ele><time>2026-04-24T16:49:41Z</time></trkpt><trkpt lat="56.868217927263636" lon="60.7247429434315"><ele>283.0</ele><time>2026-04-24T16:49:42Z</time></trkpt><trkpt lat="56.86811327075392" lon="60.72471440049569"><ele>283.0</ele><time>2026-04-24T16:49:44Z</time></trkpt><trkpt lat="56.867994982285815" lon="60.724696062203826"><ele>283.6</ele><time>2026-04-24T16:49:46Z</time></trkpt><trkpt lat="56.867868359143294" lon="60.724708463604074"><ele>284.20000000000005</ele><time>2026-04-24T16:49:48Z</time></trkpt><trkpt lat="56.86776502083498" lon="60.72471113448065"><ele>284.8</ele><time>2026-04-24T16:49:50Z</time></trkpt><trkpt lat="56.86768773317464" lon="60.724704105943275"><ele>285.40000000000003</ele><time>2026-04-24T16:49:51Z</time></trkpt><trkpt lat="56.8676130851464" lon="60.72466374137832"><ele>286.0</ele><time>2026-04-24T16:49:52Z</time></trkpt><trkpt lat="56.86753198261298" lon="60.724601435646306"><ele>286.16666666666663</ele><time>2026-04-24T16:49:53Z</time></trkpt><trkpt lat="56.8674359512637" lon="60.72456093016111"><ele>286.3333333333333</ele><time>2026-04-24T16:49:54Z</time></trkpt><trkpt lat="56.867336485535134" lon="60.72453116868454"><ele>286.5</ele><time>2026-04-24T16:49:55Z</time></trkpt><trkpt lat="56.8672515202058" lon="60.72449838064183"><ele>286.6666666666667</ele><time>2026-04-24T16:49:56Z</time></trkpt><trkpt lat="56.867182165607886" lon="60.72447803420547"><ele>286.83333333333337</ele><time>2026-04-24T16:49:57Z</time></trkpt><trkpt lat="56.86710422864557" lon="60.72449386079441"><ele>287.0</ele><time>2026-04-24T16:49:58Z</time></trkpt><trkpt lat="56.86701174763149" lon="60.72454217128375"><ele>287.0</ele><time>2026-04-24T16:49:59Z</time></trkpt><trkpt lat="56.8669021789372" lon="60.724608123056186"><ele>287.0</ele><time>2026-04-24T16:50:00Z</time></trkpt><trkpt lat="56.86679946396183" lon="60.7246601835493"><ele>287.0</ele><time>2026-04-24T16:50:01Z</time></trkpt><trkpt lat="56.86671953492753" lon="60.7246899241389"><ele>287.0</ele><time>2026-04-24T16:50:02Z</time></trkpt><trkpt lat="56.86664086593887" lon="60.72472117741258"><ele>287.0</ele><time>2026-04-24T16:50:03Z</time></trkpt><trkpt lat="56.866569822595046" lon="60.72475584180521"><ele>286.83333333333337</ele><time>2026-04-24T16:50:04Z</time></trkpt><trkpt lat="56.8665074144463" lon="60.72479815394712"><ele>286.6666666666667</ele><time>2026-04-24T16:50:05Z</time></trkpt><trkpt lat="56.8664013582477" lon="60.72492251236264"><ele>286.5</ele><time>2026-04-24T16:50:07Z</time></trkpt><trkpt lat="56.86635572971289" lon="60.72501625518857"><ele>286.3333333333333</ele><time>2026-04-24T16:50:08Z</time></trkpt><trkpt lat="56.86630582747928" lon="60.725108790624354"><ele>286.16666666666663</ele><time>2026-04-24T16:50:09Z</time></trkpt><trkpt lat="56.86623564129838" lon="60.72521466260462"><ele>286.0</ele><time>2026-04-24T16:50:10Z</time></trkpt><trkpt lat="56.866164402223404" lon="60.72530600306079"><ele>286.16666666666663</ele><time>2026-04-24T16:50:11Z</time></trkpt><trkpt lat="56.86611226522959" lon="60.72539163224175"><ele>286.3333333333333</ele><time>2026-04-24T16:50:12Z</time></trkpt><trkpt lat="56.86606426026222" lon="60.725482224219576"><ele>286.5</ele><time>2026-04-24T16:50:13Z</time></trkpt><trkpt lat="56.86602171299734" lon="60.72557175408752"><ele>286.6666666666667</ele><time>2026-04-24T16:50:14Z</time></trkpt><trkpt lat="56.86597301486227" lon="60.725648103237226"><ele>286.83333333333337</ele><time>2026-04-24T16:50:15Z</time></trkpt><trkpt lat="56.86589169670729" lon="60.725762484488556"><ele>287.0</ele><time>2026-04-24T16:50:17Z</time></trkpt><trkpt lat="56.86582130116673" lon="60.72592234318152"><ele>288.0</ele><time>2026-04-24T16:50:19Z</time></trkpt><trkpt lat="56.86575634860705" lon="60.72607643106733"><ele>289.0</ele><time>2026-04-24T16:50:21Z</time></trkpt><trkpt lat="56.865676399555745" lon="60.72628351308014"><ele>290.0</ele><time>2026-04-24T16:50:23Z</time></trkpt><trkpt lat="56.86562099127726" lon="60.72640609198214"><ele>291.0</ele><time>2026-04-24T16:50:24Z</time></trkpt><trkpt lat="56.865575172737685" lon="60.726542466306725"><ele>292.0</ele><time>2026-04-24T16:50:25Z</time></trkpt><trkpt lat="56.86552931736368" lon="60.72668181716345"><ele>292.0</ele><time>2026-04-24T16:50:26Z</time></trkpt><trkpt lat="56.86545170725642" lon="60.72683441643451"><ele>292.0</ele><time>2026-04-24T16:50:28Z</time></trkpt><trkpt lat="56.86536005604534" lon="60.72699446971466"><ele>292.0</ele><time>2026-04-24T16:50:30Z</time></trkpt><trkpt lat="56.86527886518313" lon="60.727074422819264"><ele>292.0</ele><time>2026-04-24T16:50:32Z</time></trkpt><trkpt lat="56.86522084933627" lon="60.72712457766733"><ele>292.0</ele><time>2026-04-24T16:50:33Z</time></trkpt><trkpt lat="56.86513266013433" lon="60.727227601527154"><ele>290.5</ele><time>2026-04-24T16:50:35Z</time></trkpt><trkpt lat="56.865078491309056" lon="60.72733295723355"><ele>289.0</ele><time>2026-04-24T16:50:37Z</time></trkpt><trkpt lat="56.86504078803799" lon="60.727442601785185"><ele>287.5</ele><time>2026-04-24T16:50:40Z</time></trkpt><trkpt lat="56.86498228594484" lon="60.72755654077981"><ele>286.0</ele><time>2026-04-24T16:50:43Z</time></trkpt><trkpt lat="56.86492455870265" lon="60.727650859706465"><ele>284.5</ele><time>2026-04-24T16:50:46Z</time></trkpt><trkpt lat="56.86486040742329" lon="60.72772256443176"><ele>283.0</ele><time>2026-04-24T16:50:49Z</time></trkpt><trkpt lat="56.864771269654035" lon="60.72776158331281"><ele>283.0</ele><time>2026-04-24T16:50:51Z</time></trkpt><trkpt lat="56.86468909912863" lon="60.727763850863"><ele>283.0</ele><time>2026-04-24T16:50:53Z</time></trkpt><trkpt lat="56.86460995916378" lon="60.72774933774425"><ele>283.0</ele><time>2026-04-24T16:50:56Z</time></trkpt><trkpt lat="56.86454027519804" lon="60.72770450706829"><ele>283.0</ele><time>2026-04-24T16:50:58Z</time></trkpt><trkpt lat="56.86447493820764" lon="60.72768008161628"><ele>283.0</ele><time>2026-04-24T16:51:00Z</time></trkpt><trkpt lat="56.86440851374039" lon="60.72766502201429"><ele>283.0</ele><time>2026-04-24T16:51:02Z</time></trkpt><trkpt lat="56.86431997518528" lon="60.72764381744306"><ele>282.66666666666663</ele><time>2026-04-24T16:51:04Z</time></trkpt><trkpt lat="56.86425503387204" lon="60.72761227344039"><ele>282.3333333333333</ele><time>2026-04-24T16:51:06Z</time></trkpt><trkpt lat="56.86417092214922" lon="60.72759930130999"><ele>282.0</ele><time>2026-04-24T16:51:09Z</time></trkpt><trkpt lat="56.864107483012916" lon="60.7275907779516"><ele>281.6666666666667</ele><time>2026-04-24T16:51:11Z</time></trkpt><trkpt lat="56.86401537289536" lon="60.727574412046565"><ele>281.33333333333337</ele><time>2026-04-24T16:51:13Z</time></trkpt><trkpt lat="56.863952445787" lon="60.72756247077124"><ele>281.0</ele><time>2026-04-24T16:51:14Z</time></trkpt><trkpt lat="56.863866650920144" lon="60.727550199824655"><ele>281.0</ele><time>2026-04-24T16:51:15Z</time></trkpt><trkpt lat="56.86378029915532" lon="60.727522463964924"><ele>281.0</ele><time>2026-04-24T16:51:16Z</time></trkpt><trkpt lat="56.86369010031327" lon="60.727509062166824"><ele>281.0</ele><time>2026-04-24T16:51:17Z</time></trkpt><trkpt lat="56.863600353765214" lon="60.72751098462312"><ele>281.0</ele><time>2026-04-24T16:51:18Z</time></trkpt><trkpt lat="56.86351342710307" lon="60.72750930795853"><ele>281.0</ele><time>2026-04-24T16:51:19Z</time></trkpt><trkpt lat="56.86343741010872" lon="60.72750892180786"><ele>281.0</ele><time>2026-04-24T16:51:20Z</time></trkpt><trkpt lat="56.863364425292524" lon="60.72750165691038"><ele>281.0</ele><time>2026-04-24T16:51:21Z</time></trkpt><trkpt lat="56.863269189035826" lon="60.727481644620504"><ele>281.0</ele><time>2026-04-24T16:51:22Z</time></trkpt><trkpt lat="56.86315202993095" lon="60.72745389144638"><ele>281.0</ele><time>2026-04-24T16:51:23Z</time></trkpt><trkpt lat="56.863048750905136" lon="60.72743774316061"><ele>281.0</ele><time>2026-04-24T16:51:24Z</time></trkpt><trkpt lat="56.862975565169265" lon="60.727433957441576"><ele>281.0</ele><time>2026-04-24T16:51:25Z</time></trkpt><trkpt lat="56.862858504792875" lon="60.727445527193666"><ele>281.0</ele><time>2026-04-24T16:51:27Z</time></trkpt><trkpt lat="56.86277847183301" lon="60.727471671075186"><ele>281.0</ele><time>2026-04-24T16:51:28Z</time></trkpt><trkpt lat="56.86270493791778" lon="60.72752611843423"><ele>281.0</ele><time>2026-04-24T16:51:29Z</time></trkpt><trkpt lat="56.8626311095789" lon="60.727579393294015"><ele>281.0</ele><time>2026-04-24T16:51:30Z</time></trkpt><trkpt lat="56.86253363776527" lon="60.72768648898649"><ele>281.0</ele><time>2026-04-24T16:51:32Z</time></trkpt><trkpt lat="56.862490174337694" lon="60.727780412781385"><ele>281.0</ele><time>2026-04-24T16:51:33Z</time></trkpt><trkpt lat="56.8624444652329" lon="60.72790137141435"><ele>282.5</ele><time>2026-04-24T16:51:34Z</time></trkpt><trkpt lat="56.86240617053882" lon="60.728061094307606"><ele>284.0</ele><time>2026-04-24T16:51:35Z</time></trkpt><trkpt lat="56.862373283626084" lon="60.72821530327825"><ele>285.5</ele><time>2026-04-24T16:51:36Z</time></trkpt><trkpt lat="56.86233661767043" lon="60.72835201099478"><ele>287.0</ele><time>2026-04-24T16:51:37.001Z</time></trkpt><trkpt lat="56.86230570009972" lon="60.72845654846675"><ele>288.5</ele><time>2026-04-24T16:51:38.001Z</time></trkpt><trkpt lat="56.86226753040534" lon="60.72855037842471"><ele>290.0</ele><time>2026-04-24T16:51:39.001Z</time></trkpt><trkpt lat="56.862207253185524" lon="60.728656064295556"><ele>290.57142857142856</ele><time>2026-04-24T16:51:42.001Z</time></trkpt><trkpt lat="56.862142983871145" lon="60.72870137200716"><ele>291.14285714285717</ele><time>2026-04-24T16:51:47.001Z</time></trkpt><trkpt lat="56.86207927062761" lon="60.72878450524424"><ele>291.7142857142857</ele><time>2026-04-24T16:51:50.001Z</time></trkpt><trkpt lat="56.862014152153684" lon="60.7287693786876"><ele>292.2857142857143</ele><time>2026-04-24T16:51:52.001Z</time></trkpt><trkpt lat="56.861944112460634" lon="60.72869505420962"><ele>292.8571428571429</ele><time>2026-04-24T16:51:54.001Z</time></trkpt><trkpt lat="56.861881547588986" lon="60.72864051804214"><ele>293.42857142857144</ele><time>2026-04-24T16:51:56.001Z</time></trkpt><trkpt lat="56.8618080068501" lon="60.728602602679885"><ele>294.0</ele><time>2026-04-24T16:51:58.001Z</time></trkpt><trkpt lat="56.86172825414663" lon="60.728531969412785"><ele>294.0</ele><time>2026-04-24T16:52:00.001Z</time></trkpt><trkpt lat="56.86162683522926" lon="60.728450436629274"><ele>294.0</ele><time>2026-04-24T16:52:02.001Z</time></trkpt><trkpt lat="56.861536815797564" lon="60.728318542383015"><ele>294.0</ele><time>2026-04-24T16:52:04.001Z</time></trkpt><trkpt lat="56.86143163086651" lon="60.72821833009463"><ele>294.0</ele><time>2026-04-24T16:52:06.001Z</time></trkpt><trkpt lat="56.86132176989057" lon="60.72813426007967"><ele>294.0</ele><time>2026-04-24T16:52:08.001Z</time></trkpt><trkpt lat="56.86125783619828" lon="60.72810126167622"><ele>294.0</ele><time>2026-04-24T16:52:09.001Z</time></trkpt><trkpt lat="56.86119912069234" lon="60.72805835489181"><ele>294.0</ele><time>2026-04-24T16:52:10.001Z</time></trkpt><trkpt lat="56.86109604571358" lon="60.728014347192335"><ele>294.0</ele><time>2026-04-24T16:52:12.001Z</time></trkpt><trkpt lat="56.860990787933396" lon="60.72800201584412"><ele>294.0</ele><time>2026-04-24T16:52:14.001Z</time></trkpt><trkpt lat="56.8608640985287" lon="60.7280005190448"><ele>293.8</ele><time>2026-04-24T16:52:16.001Z</time></trkpt><trkpt lat="56.860791992406924" lon="60.72799011841"><ele>293.59999999999997</ele><time>2026-04-24T16:52:17.001Z</time></trkpt><trkpt lat="56.86072391862211" lon="60.72797828215713"><ele>293.4</ele><time>2026-04-24T16:52:18.001Z</time></trkpt><trkpt lat="56.86062359512237" lon="60.727973033099794"><ele>293.2</ele><time>2026-04-24T16:52:20.001Z</time></trkpt><trkpt lat="56.86051238979375" lon="60.72792837288125"><ele>293.0</ele><time>2026-04-24T16:52:22.001Z</time></trkpt><trkpt lat="56.86042621717565" lon="60.727804492159"><ele>292.0</ele><time>2026-04-24T16:52:24.001Z</time></trkpt><trkpt lat="56.860317801729906" lon="60.72771959508218"><ele>291.0</ele><time>2026-04-24T16:52:26.001Z</time></trkpt><trkpt lat="56.86025784369929" lon="60.727668570997025"><ele>290.0</ele><time>2026-04-24T16:52:27.001Z</time></trkpt><trkpt lat="56.86018981182018" lon="60.72763697923396"><ele>289.0</ele><time>2026-04-24T16:52:28.001Z</time></trkpt><trkpt lat="56.86011597227668" lon="60.72759996431924"><ele>288.0</ele><time>2026-04-24T16:52:29.001Z</time></trkpt><trkpt lat="56.860047189793384" lon="60.7275683558834"><ele>287.0</ele><time>2026-04-24T16:52:30.001Z</time></trkpt><trkpt lat="56.859987672422115" lon="60.727525197717235"><ele>287.0</ele><time>2026-04-24T16:52:31.001Z</time></trkpt><trkpt lat="56.85986192184525" lon="60.7274499749454"><ele>287.0</ele><time>2026-04-24T16:52:33.001Z</time></trkpt><trkpt lat="56.85980727788457" lon="60.72738899829624"><ele>287.0</ele><time>2026-04-24T16:52:34.001Z</time></trkpt><trkpt lat="56.85973452003634" lon="60.72732922989753"><ele>287.0</ele><time>2026-04-24T16:52:36.001Z</time></trkpt><trkpt lat="56.85967420942741" lon="60.72728179120716"><ele>287.0</ele><time>2026-04-24T16:52:39.001Z</time></trkpt><trkpt lat="56.85960856296414" lon="60.727229793636624"><ele>287.0</ele><time>2026-04-24T16:52:46.001Z</time></trkpt><trkpt lat="56.859532229482156" lon="60.72716171410196"><ele>287.0</ele><time>2026-04-24T16:52:49.001Z</time></trkpt><trkpt lat="56.85946277901698" lon="60.72711296614554"><ele>287.0</ele><time>2026-04-24T16:52:51.001Z</time></trkpt><trkpt lat="56.85938293042238" lon="60.72706417378661"><ele>287.0</ele><time>2026-04-24T16:52:53.001Z</time></trkpt><trkpt lat="56.85930626308365" lon="60.727008138391895"><ele>287.0</ele><time>2026-04-24T16:52:55.001Z</time></trkpt><trkpt lat="56.8592301178144" lon="60.72696995817965"><ele>287.0</ele><time>2026-04-24T16:52:57.001Z</time></trkpt><trkpt lat="56.859123870597486" lon="60.72694542732661"><ele>287.0</ele><time>2026-04-24T16:52:59.001Z</time></trkpt><trkpt lat="56.85899334486347" lon="60.726893134832835"><ele>286.1666666666667</ele><time>2026-04-24T16:53:01.001Z</time></trkpt><trkpt lat="56.85890532165712" lon="60.72686747907064"><ele>285.33333333333337</ele><time>2026-04-24T16:53:02.001Z</time></trkpt><trkpt lat="56.85883052098083" lon="60.726835669172296"><ele>284.5</ele><time>2026-04-24T16:53:03.001Z</time></trkpt><trkpt lat="56.8587477232522" lon="60.72677445302863"><ele>283.6666666666667</ele><time>2026-04-24T16:53:05.001Z</time></trkpt><trkpt lat="56.858684251686874" lon="60.726734840538"><ele>282.8333333333333</ele><time>2026-04-24T16:53:07.001Z</time></trkpt><trkpt lat="56.85860452011684" lon="60.72671640996928"><ele>282.0</ele><time>2026-04-24T16:53:09.001Z</time></trkpt><trkpt lat="56.85847795475272" lon="60.72670062647307"><ele>282.3333333333333</ele><time>2026-04-24T16:53:11.001Z</time></trkpt><trkpt lat="56.85836960170311" lon="60.72666054314483"><ele>282.6666666666667</ele><time>2026-04-24T16:53:13.001Z</time></trkpt><trkpt lat="56.8582962704005" lon="60.72665360095175"><ele>283.0</ele><time>2026-04-24T16:53:15.001Z</time></trkpt><trkpt lat="56.858195626592064" lon="60.726629769547365"><ele>283.33333333333337</ele><time>2026-04-24T16:53:17.001Z</time></trkpt><trkpt lat="56.858120276450435" lon="60.72661691080865"><ele>283.6666666666667</ele><time>2026-04-24T16:53:19.001Z</time></trkpt><trkpt lat="56.85805126613606" lon="60.72661423679004"><ele>284.0</ele><time>2026-04-24T16:53:21.001Z</time></trkpt><trkpt lat="56.85798992318014" lon="60.72657112059623"><ele>284.0</ele><time>2026-04-24T16:53:23.001Z</time></trkpt><trkpt lat="56.857933473426826" lon="60.72651120536516"><ele>284.0</ele><time>2026-04-24T16:53:25.001Z</time></trkpt><trkpt lat="56.857851729819394" lon="60.72646329843652"><ele>284.0</ele><time>2026-04-24T16:53:28.001Z</time></trkpt><trkpt lat="56.85777371846349" lon="60.72642008773981"><ele>284.0</ele><time>2026-04-24T16:53:30Z</time></trkpt><trkpt lat="56.85767733588596" lon="60.72637531568744"><ele>284.0</ele><time>2026-04-24T16:53:32Z</time></trkpt><trkpt lat="56.857577267601286" lon="60.72630584750782"><ele>284.0</ele><time>2026-04-24T16:53:34Z</time></trkpt><trkpt lat="56.857516518418144" lon="60.726196965852516"><ele>284.6666666666667</ele><time>2026-04-24T16:53:37Z</time></trkpt><trkpt lat="56.85744741794895" lon="60.72606196442655"><ele>285.33333333333337</ele><time>2026-04-24T16:53:39Z</time></trkpt><trkpt lat="56.85738995431479" lon="60.725963984774445"><ele>286.0</ele><time>2026-04-24T16:53:40Z</time></trkpt><trkpt lat="56.8573342166471" lon="60.72584439452244"><ele>286.6666666666667</ele><time>2026-04-24T16:53:42Z</time></trkpt><trkpt lat="56.857309193375436" lon="60.72572828962044"><ele>287.3333333333333</ele><time>2026-04-24T16:53:46Z</time></trkpt><trkpt lat="56.85737121014081" lon="60.72563390638675"><ele>288.0</ele><time>2026-04-24T16:53:50Z</time></trkpt><trkpt lat="56.85743927982599" lon="60.725681661098285"><ele>288.00000000000006</ele><time>2026-04-24T16:53:55Z</time></trkpt><trkpt lat="56.85750739019874" lon="60.72570847671694"><ele>288.0</ele><time>2026-04-24T16:53:58Z</time></trkpt><trkpt lat="56.85757286334877" lon="60.725755460933236"><ele>288.0</ele><time>2026-04-24T16:54:01Z</time></trkpt><trkpt lat="56.85764704236962" lon="60.72578175762627"><ele>288.0</ele><time>2026-04-24T16:54:04Z</time></trkpt><trkpt lat="56.85771466617311" lon="60.72577171504064"><ele>288.0</ele><time>2026-04-24T16:54:06Z</time></trkpt><trkpt lat="56.857782128701665" lon="60.72575898106925"><ele>288.00000000000006</ele><time>2026-04-24T16:54:11Z</time></trkpt><trkpt lat="56.85783401186517" lon="60.725677605945066"><ele>288.0</ele><time>2026-04-24T16:54:13Z</time></trkpt><trkpt lat="56.85787786900056" lon="60.725557087022594"><ele>288.0</ele><time>2026-04-24T16:54:15Z</time></trkpt><trkpt lat="56.85782187117657" lon="60.72561359052696"><ele>288.0</ele><time>2026-04-24T16:54:22Z</time></trkpt><trkpt lat="56.85774939668812" lon="60.72562555656828"><ele>288.0</ele><time>2026-04-24T16:54:25Z</time></trkpt><trkpt lat="56.85764657246326" lon="60.72562099635008"><ele>288.0</ele><time>2026-04-24T16:54:28Z</time></trkpt><trkpt lat="56.857584059407664" lon="60.7255920317109"><ele>288.0</ele><time>2026-04-24T16:54:30Z</time></trkpt><trkpt lat="56.857530741474" lon="60.725511425483404"><ele>288.0</ele><time>2026-04-24T16:54:32Z</time></trkpt><trkpt lat="56.85744111301674" lon="60.725448275840925"><ele>288.0</ele><time>2026-04-24T16:54:34Z</time></trkpt><trkpt lat="56.85733781715223" lon="60.725371924282506"><ele>288.0</ele><time>2026-04-24T16:54:36Z</time></trkpt><trkpt lat="56.85723250105166" lon="60.72529037255847"><ele>288.0</ele><time>2026-04-24T16:54:38Z</time></trkpt><trkpt lat="56.857112895107065" lon="60.725213333090025"><ele>288.0</ele><time>2026-04-24T16:54:40Z</time></trkpt><trkpt lat="56.85703183667722" lon="60.725188878715954"><ele>288.0</ele><time>2026-04-24T16:54:41Z</time></trkpt><trkpt lat="56.85695024430235" lon="60.7251558276546"><ele>287.5</ele><time>2026-04-24T16:54:42Z</time></trkpt><trkpt lat="56.85688205152917" lon="60.725129391453635"><ele>287.0</ele><time>2026-04-24T16:54:43Z</time></trkpt><trkpt lat="56.856761663490694" lon="60.72509096109655"><ele>286.5</ele><time>2026-04-24T16:54:45Z</time></trkpt><trkpt lat="56.856682814118486" lon="60.725061453888465"><ele>286.0</ele><time>2026-04-24T16:54:46Z</time></trkpt><trkpt lat="56.856611841798575" lon="60.725031901304334"><ele>285.5</ele><time>2026-04-24T16:54:47Z</time></trkpt><trkpt lat="56.85654805118695" lon="60.7249922449884"><ele>285.0</ele><time>2026-04-24T16:54:48Z</time></trkpt><trkpt lat="56.85644960596178" lon="60.72492363071045"><ele>285.0</ele><time>2026-04-24T16:54:50Z</time></trkpt><trkpt lat="56.856380301752964" lon="60.72488036990648"><ele>285.0</ele><time>2026-04-24T16:54:52Z</time></trkpt><trkpt lat="56.85646840306643" lon="60.72492730328351"><ele>285.0</ele><time>2026-04-24T16:55:03Z</time></trkpt><trkpt lat="56.85659366382335" lon="60.72493933572993"><ele>285.0</ele><time>2026-04-24T16:55:05Z</time></trkpt><trkpt lat="56.85665478129432" lon="60.72497471520593"><ele>285.0</ele><time>2026-04-24T16:55:06Z</time></trkpt><trkpt lat="56.856749344357446" lon="60.72505879369433"><ele>285.6</ele><time>2026-04-24T16:55:08Z</time></trkpt><trkpt lat="56.856829386491235" lon="60.72508733950739"><ele>286.2</ele><time>2026-04-24T16:55:10Z</time></trkpt><trkpt lat="56.85693678526752" lon="60.72514441910936"><ele>286.8</ele><time>2026-04-24T16:55:12Z</time></trkpt><trkpt lat="56.856996316939856" lon="60.725193286622435"><ele>287.4</ele><time>2026-04-24T16:55:13Z</time></trkpt><trkpt lat="56.85711404553538" lon="60.72524880686305"><ele>288.0</ele><time>2026-04-24T16:55:15Z</time></trkpt><trkpt lat="56.85718361624006" lon="60.725289422732594"><ele>288.0</ele><time>2026-04-24T16:55:17Z</time></trkpt><trkpt lat="56.857254146842216" lon="60.72542619500663"><ele>288.0</ele><time>2026-04-24T16:55:19Z</time></trkpt><trkpt lat="56.8573118592161" lon="60.72550265783583"><ele>288.0</ele><time>2026-04-24T16:55:21Z</time></trkpt><trkpt lat="56.857378506271516" lon="60.725594802747736"><ele>288.0</ele><time>2026-04-24T16:55:23Z</time></trkpt><trkpt lat="56.85745367795888" lon="60.72570390673722"><ele>288.0</ele><time>2026-04-24T16:55:25Z</time></trkpt><trkpt lat="56.85751981684522" lon="60.7257740318485"><ele>288.0</ele><time>2026-04-24T16:55:27Z</time></trkpt><trkpt lat="56.85757605205454" lon="60.72583242819561"><ele>287.2</ele><time>2026-04-24T16:55:28Z</time></trkpt><trkpt lat="56.85767241078726" lon="60.725978415439364"><ele>286.4</ele><time>2026-04-24T16:55:30Z</time></trkpt><trkpt lat="56.85775194586519" lon="60.726052537731036"><ele>285.59999999999997</ele><time>2026-04-24T16:55:32Z</time></trkpt><trkpt lat="56.85782889538856" lon="60.726104076834865"><ele>284.8</ele><time>2026-04-24T16:55:34Z</time></trkpt><trkpt lat="56.85791415963908" lon="60.726151814660696"><ele>284.0</ele><time>2026-04-24T16:55:36Z</time></trkpt><trkpt lat="56.85800010451165" lon="60.72611189515563"><ele>284.0</ele><time>2026-04-24T16:55:38Z</time></trkpt><trkpt lat="56.85810172576704" lon="60.72610724110787"><ele>284.0</ele><time>2026-04-24T16:55:41Z</time></trkpt><trkpt lat="56.85817751386698" lon="60.72617856817941"><ele>284.0</ele><time>2026-04-24T16:55:43Z</time></trkpt><trkpt lat="56.85823821292904" lon="60.726225433347146"><ele>284.0</ele><time>2026-04-24T16:55:45Z</time></trkpt><trkpt lat="56.85830080144781" lon="60.72631165454109"><ele>284.0</ele><time>2026-04-24T16:55:47Z</time></trkpt><trkpt lat="56.85835155317326" lon="60.726401003357886"><ele>284.0</ele><time>2026-04-24T16:55:49Z</time></trkpt><trkpt lat="56.85843108470353" lon="60.72649826947167"><ele>283.59999999999997</ele><time>2026-04-24T16:55:52Z</time></trkpt><trkpt lat="56.85851445823745" lon="60.72653769815119"><ele>283.2</ele><time>2026-04-24T16:55:55Z</time></trkpt><trkpt lat="56.85860468108366" lon="60.72656439437524"><ele>282.79999999999995</ele><time>2026-04-24T16:55:57Z</time></trkpt><trkpt lat="56.858719812008175" lon="60.72662920127211"><ele>282.4</ele><time>2026-04-24T16:55:59Z</time></trkpt><trkpt lat="56.85883484963629" lon="60.7266689281454"><ele>282.0</ele><time>2026-04-24T16:56:01Z</time></trkpt><trkpt lat="56.85894973220779" lon="60.726729873573134"><ele>282.0</ele><time>2026-04-24T16:56:03Z</time></trkpt><trkpt lat="56.85902304755745" lon="60.726774753649664"><ele>282.0</ele><time>2026-04-24T16:56:05Z</time></trkpt><trkpt lat="56.85907384715362" lon="60.726875799525246"><ele>282.0</ele><time>2026-04-24T16:56:07Z</time></trkpt><trkpt lat="56.859097620414985" lon="60.72706700342629"><ele>282.0</ele><time>2026-04-24T16:56:09Z</time></trkpt><trkpt lat="56.85911541128618" lon="60.727264080822565"><ele>282.0</ele><time>2026-04-24T16:56:11Z</time></trkpt><trkpt lat="56.859118295802126" lon="60.72742812359443"><ele>282.7142857142857</ele><time>2026-04-24T16:56:13Z</time></trkpt><trkpt lat="56.85911621384142" lon="60.72756702561268"><ele>283.42857142857144</ele><time>2026-04-24T16:56:15Z</time></trkpt><trkpt lat="56.85912251064803" lon="60.72769317037868"><ele>284.1428571428571</ele><time>2026-04-24T16:56:17Z</time></trkpt><trkpt lat="56.85915690727344" lon="60.727798482035446"><ele>284.8571428571429</ele><time>2026-04-24T16:56:23Z</time></trkpt><trkpt lat="56.85914630695095" lon="60.727923040497096"><ele>285.57142857142856</ele><time>2026-04-24T16:56:27Z</time></trkpt><trkpt lat="56.85908679803787" lon="60.72785264575914"><ele>286.2857142857143</ele><time>2026-04-24T16:56:31Z</time></trkpt><trkpt lat="56.85901198943558" lon="60.7279273074688"><ele>287.0</ele><time>2026-04-24T16:56:34Z</time></trkpt><trkpt lat="56.858967296844206" lon="60.72804003457446"><ele>287.33333333333337</ele><time>2026-04-24T16:56:36Z</time></trkpt><trkpt lat="56.858935744659554" lon="60.7281714873919"><ele>287.6666666666667</ele><time>2026-04-24T16:56:38Z</time></trkpt><trkpt lat="56.85892300638128" lon="60.728348123407336"><ele>288.0</ele><time>2026-04-24T16:56:40Z</time></trkpt><trkpt lat="56.85890600398167" lon="60.72850426197838"><ele>288.3333333333333</ele><time>2026-04-24T16:56:42Z</time></trkpt><trkpt lat="56.85888950470365" lon="60.72863957390756"><ele>288.66666666666663</ele><time>2026-04-24T16:56:44Z</time></trkpt><trkpt lat="56.85885121025864" lon="60.728825738510444"><ele>289.0</ele><time>2026-04-24T16:56:46Z</time></trkpt><trkpt lat="56.85881089475722" lon="60.72897684228863"><ele>289.59999999999997</ele><time>2026-04-24T16:56:48Z</time></trkpt><trkpt lat="56.85876040923148" lon="60.72915650857017"><ele>290.2</ele><time>2026-04-24T16:56:50Z</time></trkpt><trkpt lat="56.858718228316334" lon="60.72932036282066"><ele>290.79999999999995</ele><time>2026-04-24T16:56:52Z</time></trkpt><trkpt lat="56.858679489363915" lon="60.729470537686936"><ele>291.4</ele><time>2026-04-24T16:56:54Z</time></trkpt><trkpt lat="56.858649066125224" lon="60.729615989432624"><ele>292.0</ele><time>2026-04-24T16:56:56Z</time></trkpt><trkpt lat="56.8586334702188" lon="60.72977774036996"><ele>292.2</ele><time>2026-04-24T16:56:58Z</time></trkpt><trkpt lat="56.858597799207146" lon="60.72997463316546"><ele>292.4</ele><time>2026-04-24T16:57:00Z</time></trkpt><trkpt lat="56.858572836691295" lon="60.73008476990914"><ele>292.6</ele><time>2026-04-24T16:57:01Z</time></trkpt><trkpt lat="56.858539857725255" lon="60.730286048682"><ele>292.8</ele><time>2026-04-24T16:57:03Z</time></trkpt><trkpt lat="56.85848982928869" lon="60.73049579376446"><ele>293.0</ele><time>2026-04-24T16:57:05Z</time></trkpt><trkpt lat="56.85847656293971" lon="60.73062092444938"><ele>292.83333333333337</ele><time>2026-04-24T16:57:06Z</time></trkpt><trkpt lat="56.85846575721569" lon="60.730751540745786"><ele>292.6666666666667</ele><time>2026-04-24T16:57:07Z</time></trkpt><trkpt lat="56.85845363861477" lon="60.73089632943326"><ele>292.5</ele><time>2026-04-24T16:57:08Z</time></trkpt><trkpt lat="56.85844184605754" lon="60.731030673604906"><ele>292.3333333333333</ele><time>2026-04-24T16:57:09Z</time></trkpt><trkpt lat="56.85842522871478" lon="60.73117606306399"><ele>292.16666666666663</ele><time>2026-04-24T16:57:10Z</time></trkpt><trkpt lat="56.85841167102213" lon="60.73129904494025"><ele>292.0</ele><time>2026-04-24T16:57:11Z</time></trkpt><trkpt lat="56.85840001349462" lon="60.73153592965489"><ele>292.5</ele><time>2026-04-24T16:57:13Z</time></trkpt><trkpt lat="56.858404453350964" lon="60.73166137624306"><ele>293.0</ele><time>2026-04-24T16:57:14Z</time></trkpt><trkpt lat="56.85839742509436" lon="60.73178352979326"><ele>293.5</ele><time>2026-04-24T16:57:15Z</time></trkpt><trkpt lat="56.85839733958228" lon="60.732000566565134"><ele>294.0</ele><time>2026-04-24T16:57:17Z</time></trkpt><trkpt lat="56.85839709048342" lon="60.73212606773769"><ele>294.5</ele><time>2026-04-24T16:57:18Z</time></trkpt><trkpt lat="56.858399081453946" lon="60.73225498598769"><ele>295.0</ele><time>2026-04-24T16:57:19Z</time></trkpt><trkpt lat="56.85840229468421" lon="60.73237461592506"><ele>295.16666666666663</ele><time>2026-04-24T16:57:20Z</time></trkpt><trkpt lat="56.858401750989785" lon="60.732513770007486"><ele>295.3333333333333</ele><time>2026-04-24T16:57:21Z</time></trkpt><trkpt lat="56.85839384346017" lon="60.732663459076846"><ele>295.5</ele><time>2026-04-24T16:57:22Z</time></trkpt><trkpt lat="56.85839386556832" lon="60.73280490370507"><ele>295.6666666666667</ele><time>2026-04-24T16:57:23Z</time></trkpt><trkpt lat="56.858396977952275" lon="60.732953392653734"><ele>295.83333333333337</ele><time>2026-04-24T16:57:24Z</time></trkpt><trkpt lat="56.8583939579538" lon="60.73313307937804"><ele>296.0</ele><time>2026-04-24T16:57:25Z</time></trkpt><trkpt lat="56.85839700631504" lon="60.733313243182316"><ele>296.0</ele><time>2026-04-24T16:57:26Z</time></trkpt><trkpt lat="56.85841274010636" lon="60.73346642196919"><ele>296.0</ele><time>2026-04-24T16:57:27Z</time></trkpt><trkpt lat="56.85842992210679" lon="60.733620174307156"><ele>296.0</ele><time>2026-04-24T16:57:28Z</time></trkpt><trkpt lat="56.8584540019128" lon="60.733786293381804"><ele>296.0</ele><time>2026-04-24T16:57:29Z</time></trkpt><trkpt lat="56.85847357191312" lon="60.73394021199507"><ele>296.0</ele><time>2026-04-24T16:57:30Z</time></trkpt><trkpt lat="56.858494008802225" lon="60.73405471011328"><ele>296.0</ele><time>2026-04-24T16:57:31Z</time></trkpt><trkpt lat="56.85852015224452" lon="60.7341733367074"><ele>296.40000000000003</ele><time>2026-04-24T16:57:32Z</time></trkpt><trkpt lat="56.85853617589065" lon="60.73428891075141"><ele>296.8</ele><time>2026-04-24T16:57:33Z</time></trkpt><trkpt lat="56.858584798750954" lon="60.73449852636426"><ele>297.20000000000005</ele><time>2026-04-24T16:57:35Z</time></trkpt><trkpt lat="56.85864004005835" lon="60.73464743031132"><ele>297.6</ele><time>2026-04-24T16:57:37Z</time></trkpt><trkpt lat="56.85870201257411" lon="60.734753977390895"><ele>298.0</ele><time>2026-04-24T16:57:39Z</time></trkpt><trkpt lat="56.858775267051676" lon="60.73481149346422"><ele>298.0</ele><time>2026-04-24T16:57:41Z</time></trkpt><trkpt lat="56.85886429831878" lon="60.734878338630054"><ele>298.0</ele><time>2026-04-24T16:57:43Z</time></trkpt><trkpt lat="56.858984969094514" lon="60.734944104954415"><ele>298.0</ele><time>2026-04-24T16:57:45Z</time></trkpt><trkpt lat="56.85904547758833" lon="60.73497880946484"><ele>298.0</ele><time>2026-04-24T16:57:46Z</time></trkpt><trkpt lat="56.859111503802694" lon="60.73500511805664"><ele>298.0</ele><time>2026-04-24T16:57:47Z</time></trkpt><trkpt lat="56.859204849317486" lon="60.73501464597602"><ele>298.0</ele><time>2026-04-24T16:57:49Z</time></trkpt><trkpt lat="56.85926767161981" lon="60.735034842665854"><ele>298.4</ele><time>2026-04-24T16:57:50Z</time></trkpt><trkpt lat="56.85938412003833" lon="60.73509171035944"><ele>298.8</ele><time>2026-04-24T16:57:52Z</time></trkpt><trkpt lat="56.85946635018516" lon="60.73507644042361"><ele>299.2</ele><time>2026-04-24T16:57:53Z</time></trkpt><trkpt lat="56.85960419801891" lon="60.73505447527278"><ele>299.6</ele><time>2026-04-24T16:57:55Z</time></trkpt><trkpt lat="56.859675827532634" lon="60.735073626738235"><ele>300.0</ele><time>2026-04-24T16:57:56Z</time></trkpt><trkpt lat="56.85993493564766" lon="60.73508156268365"><ele>300.0</ele><time>2026-04-24T16:58:00Z</time></trkpt><trkpt lat="56.8599973835394" lon="60.73511017269113"><ele>300.0</ele><time>2026-04-24T16:58:01Z</time></trkpt><trkpt lat="56.86006774306639" lon="60.735146846840074"><ele>300.0</ele><time>2026-04-24T16:58:02Z</time></trkpt><trkpt lat="56.86012971358441" lon="60.73519321572286"><ele>300.0</ele><time>2026-04-24T16:58:03Z</time></trkpt><trkpt lat="56.860228866630145" lon="60.73527839999586"><ele>300.0</ele><time>2026-04-24T16:58:05Z</time></trkpt><trkpt lat="56.86030270284862" lon="60.735371673403655"><ele>300.0</ele><time>2026-04-24T16:58:07Z</time></trkpt><trkpt lat="56.86038759292769" lon="60.73543263729532"><ele>298.5</ele><time>2026-04-24T16:58:09Z</time></trkpt><trkpt lat="56.86056655212591" lon="60.735457899980325"><ele>297.0</ele><time>2026-04-24T16:58:13Z</time></trkpt><trkpt lat="56.86065199657216" lon="60.7355498874715"><ele>295.5</ele><time>2026-04-24T16:58:16Z</time></trkpt><trkpt lat="56.86075870334866" lon="60.73558955791578"><ele>294.0</ele><time>2026-04-24T16:58:18Z</time></trkpt><trkpt lat="56.86083445560351" lon="60.73568383331061"><ele>294.0</ele><time>2026-04-24T16:58:20Z</time></trkpt><trkpt lat="56.86087572751584" lon="60.73578343195238"><ele>294.0</ele><time>2026-04-24T16:58:23Z</time></trkpt><trkpt lat="56.86087001735213" lon="60.73590664676596"><ele>294.0</ele><time>2026-04-24T16:58:25Z</time></trkpt><trkpt lat="56.860858231693776" lon="60.73613316603004"><ele>294.0</ele><time>2026-04-24T16:58:27Z</time></trkpt><trkpt lat="56.86086909447712" lon="60.73630630339057"><ele>294.0</ele><time>2026-04-24T16:58:28Z</time></trkpt><trkpt lat="56.86086611650889" lon="60.73650468227129"><ele>294.0</ele><time>2026-04-24T16:58:29Z</time></trkpt><trkpt lat="56.86086445039796" lon="60.73672158842404"><ele>294.0</ele><time>2026-04-24T16:58:30Z</time></trkpt><trkpt lat="56.860848904710565" lon="60.736969887713165"><ele>294.0</ele><time>2026-04-24T16:58:31Z</time></trkpt><trkpt lat="56.86084175938697" lon="60.737204547119724"><ele>294.0</ele><time>2026-04-24T16:58:32Z</time></trkpt><trkpt lat="56.860845307313106" lon="60.73745355794476"><ele>294.0</ele><time>2026-04-24T16:58:33Z</time></trkpt><trkpt lat="56.86085132559471" lon="60.73764365653023"><ele>294.0</ele><time>2026-04-24T16:58:34Z</time></trkpt><trkpt lat="56.86087079338972" lon="60.73779251153813"><ele>294.0</ele><time>2026-04-24T16:58:35Z</time></trkpt><trkpt lat="56.860894832471786" lon="60.737958227541604"><ele>294.0</ele><time>2026-04-24T16:58:36Z</time></trkpt><trkpt lat="56.86091893584846" lon="60.738132754430445"><ele>294.0</ele><time>2026-04-24T16:58:37Z</time></trkpt><trkpt lat="56.86092045286357" lon="60.73832778239027"><ele>294.0</ele><time>2026-04-24T16:58:38Z</time></trkpt><trkpt lat="56.860917105367406" lon="60.738536639830976"><ele>294.0</ele><time>2026-04-24T16:58:39Z</time></trkpt><trkpt lat="56.860914482839846" lon="60.73870139033824"><ele>294.0</ele><time>2026-04-24T16:58:40Z</time></trkpt><trkpt lat="56.860910212965045" lon="60.73888185271689"><ele>294.0</ele><time>2026-04-24T16:58:41Z</time></trkpt><trkpt lat="56.86089668866867" lon="60.73907882385875"><ele>294.0</ele><time>2026-04-24T16:58:42Z</time></trkpt><trkpt lat="56.86088988785588" lon="60.73923022830537"><ele>294.0</ele><time>2026-04-24T16:58:43Z</time></trkpt><trkpt lat="56.86089016625707" lon="60.73937694878137"><ele>294.0</ele><time>2026-04-24T16:58:44Z</time></trkpt><trkpt lat="56.86089246822123" lon="60.73953071195092"><ele>294.0</ele><time>2026-04-24T16:58:45Z</time></trkpt><trkpt lat="56.860898252779954" lon="60.739666465006195"><ele>294.0</ele><time>2026-04-24T16:58:46Z</time></trkpt><trkpt lat="56.860898248723124" lon="60.73982487609956"><ele>294.0</ele><time>2026-04-24T16:58:47Z</time></trkpt><trkpt lat="56.860894377070025" lon="60.73999776763855"><ele>294.0</ele><time>2026-04-24T16:58:48Z</time></trkpt><trkpt lat="56.86088272760483" lon="60.74015017893894"><ele>291.4</ele><time>2026-04-24T16:58:49Z</time></trkpt><trkpt lat="56.86087555424272" lon="60.7402685784091"><ele>288.79999999999995</ele><time>2026-04-24T16:58:50Z</time></trkpt><trkpt lat="56.86087461930167" lon="60.74045706581211"><ele>286.20000000000005</ele><time>2026-04-24T16:58:52Z</time></trkpt><trkpt lat="56.86086502600852" lon="60.740577045951994"><ele>283.6</ele><time>2026-04-24T16:58:53Z</time></trkpt><trkpt lat="56.86084026865026" lon="60.7407876641305"><ele>281.0</ele><time>2026-04-24T16:58:55Z</time></trkpt><trkpt lat="56.8608350032687" lon="60.74100405614625"><ele>279.8</ele><time>2026-04-24T16:58:57Z</time></trkpt><trkpt lat="56.86084474261647" lon="60.74122013569679"><ele>278.6</ele><time>2026-04-24T16:58:59Z</time></trkpt><trkpt lat="56.860858207040316" lon="60.7414196900781"><ele>277.4</ele><time>2026-04-24T16:59:01Z</time></trkpt><trkpt lat="56.86088971824422" lon="60.74157599969819"><ele>276.2</ele><time>2026-04-24T16:59:03Z</time></trkpt><trkpt lat="56.86094699214306" lon="60.74169348589065"><ele>275.0</ele><time>2026-04-24T16:59:05Z</time></trkpt><trkpt lat="56.86101808502093" lon="60.74180700642844"><ele>275.0</ele><time>2026-04-24T16:59:07.001Z</time></trkpt><trkpt lat="56.861039093560876" lon="60.741924176046425"><ele>275.0</ele><time>2026-04-24T16:59:11.001Z</time></trkpt><trkpt lat="56.86103335704162" lon="60.742072250184755"><ele>275.0</ele><time>2026-04-24T16:59:15.001Z</time></trkpt><trkpt lat="56.86109138390719" lon="60.74216323449597"><ele>275.0</ele><time>2026-04-24T16:59:20.001Z</time></trkpt><trkpt lat="56.86117795462334" lon="60.74219050984754"><ele>275.0</ele><time>2026-04-24T16:59:23.001Z</time></trkpt><trkpt lat="56.86128343169559" lon="60.742213376032474"><ele>275.0</ele><time>2026-04-24T16:59:25.001Z</time></trkpt><trkpt lat="56.861355080154674" lon="60.74221536277126"><ele>275.0</ele><time>2026-04-24T16:59:26.001Z</time></trkpt><trkpt lat="56.8614488060212" lon="60.74223626062815"><ele>275.0</ele><time>2026-04-24T16:59:27.001Z</time></trkpt><trkpt lat="56.86156883982549" lon="60.742237566357346"><ele>275.0</ele><time>2026-04-24T16:59:28.001Z</time></trkpt><trkpt lat="56.8616995372152" lon="60.74224987506382"><ele>275.0</ele><time>2026-04-24T16:59:29.001Z</time></trkpt><trkpt lat="56.861830564646" lon="60.74226302686373"><ele>274.5</ele><time>2026-04-24T16:59:30.001Z</time></trkpt><trkpt lat="56.86194239941991" lon="60.74226346750566"><ele>274.0</ele><time>2026-04-24T16:59:31.001Z</time></trkpt><trkpt lat="56.862067520993016" lon="60.74225998414658"><ele>273.5</ele><time>2026-04-24T16:59:32.001Z</time></trkpt><trkpt lat="56.86219216293675" lon="60.74226289905114"><ele>273.0</ele><time>2026-04-24T16:59:33.001Z</time></trkpt><trkpt lat="56.86231786048105" lon="60.742254140496215"><ele>273.0</ele><time>2026-04-24T16:59:34.001Z</time></trkpt><trkpt lat="56.86243488741072" lon="60.742239763031996"><ele>273.0</ele><time>2026-04-24T16:59:35.001Z</time></trkpt><trkpt lat="56.86255482635291" lon="60.74223244814327"><ele>273.0</ele><time>2026-04-24T16:59:36.001Z</time></trkpt><trkpt lat="56.862672366381545" lon="60.742236290921134"><ele>273.0</ele><time>2026-04-24T16:59:37.001Z</time></trkpt><trkpt lat="56.86277029603917" lon="60.74224543247778"><ele>272.8</ele><time>2026-04-24T16:59:38.001Z</time></trkpt><trkpt lat="56.862870999587344" lon="60.74226218274764"><ele>272.6</ele><time>2026-04-24T16:59:39.001Z</time></trkpt><trkpt lat="56.862976405146" lon="60.742275600878244"><ele>272.4</ele><time>2026-04-24T16:59:40.001Z</time></trkpt><trkpt lat="56.863081057213684" lon="60.74228262011134"><ele>272.2</ele><time>2026-04-24T16:59:41.001Z</time></trkpt><trkpt lat="56.86317887090311" lon="60.742288754858535"><ele>272.0</ele><time>2026-04-24T16:59:42.001Z</time></trkpt><trkpt lat="56.86329340956543" lon="60.742295295225986"><ele>272.0</ele><time>2026-04-24T16:59:43.001Z</time></trkpt><trkpt lat="56.86341230328554" lon="60.7423029934341"><ele>272.0</ele><time>2026-04-24T16:59:44.001Z</time></trkpt><trkpt lat="56.86352439025662" lon="60.74230498240725"><ele>272.0</ele><time>2026-04-24T16:59:45.001Z</time></trkpt><trkpt lat="56.86363334408138" lon="60.742314188907294"><ele>272.0</ele><time>2026-04-24T16:59:46.001Z</time></trkpt><trkpt lat="56.86374251485163" lon="60.74232025409071"><ele>272.0</ele><time>2026-04-24T16:59:47.001Z</time></trkpt><trkpt lat="56.863848477573654" lon="60.74231995132344"><ele>271.8</ele><time>2026-04-24T16:59:48.001Z</time></trkpt><trkpt lat="56.86394138121592" lon="60.74232148015355"><ele>271.6</ele><time>2026-04-24T16:59:49Z</time></trkpt><trkpt lat="56.86403834883845" lon="60.74233325839353"><ele>271.40000000000003</ele><time>2026-04-24T16:59:50Z</time></trkpt><trkpt lat="56.86413930057549" lon="60.742372602395726"><ele>271.2</ele><time>2026-04-24T16:59:51Z</time></trkpt><trkpt lat="56.864227642107004" lon="60.7424031932878"><ele>271.0</ele><time>2026-04-24T16:59:52Z</time></trkpt><trkpt lat="56.86432565743779" lon="60.742434292920905"><ele>271.0</ele><time>2026-04-24T16:59:53Z</time></trkpt><trkpt lat="56.864417079494785" lon="60.74245642524278"><ele>271.0</ele><time>2026-04-24T16:59:54Z</time></trkpt><trkpt lat="56.86450331526915" lon="60.74247996833155"><ele>271.0</ele><time>2026-04-24T16:59:55Z</time></trkpt><trkpt lat="56.864581162753026" lon="60.74249783651531"><ele>271.0</ele><time>2026-04-24T16:59:56Z</time></trkpt><trkpt lat="56.86464647670338" lon="60.74250906904027"><ele>271.0</ele><time>2026-04-24T16:59:57Z</time></trkpt><trkpt lat="56.86470998543786" lon="60.7425160961353"><ele>271.0</ele><time>2026-04-24T16:59:58Z</time></trkpt><trkpt lat="56.86477841613099" lon="60.7425202009593"><ele>271.0</ele><time>2026-04-24T16:59:59Z</time></trkpt><trkpt lat="56.86485740749821" lon="60.7425189672567"><ele>271.0</ele><time>2026-04-24T17:00:00Z</time></trkpt><trkpt lat="56.86494992406035" lon="60.7425039585938"><ele>271.0</ele><time>2026-04-24T17:00:01Z</time></trkpt><trkpt lat="56.865053139865424" lon="60.742503052891635"><ele>271.0</ele><time>2026-04-24T17:00:02Z</time></trkpt><trkpt lat="56.86517348352413" lon="60.742515140226054"><ele>271.0</ele><time>2026-04-24T17:00:03Z</time></trkpt><trkpt lat="56.86530655490811" lon="60.742518747315465"><ele>271.25</ele><time>2026-04-24T17:00:04Z</time></trkpt><trkpt lat="56.865443252952765" lon="60.74252738409786"><ele>271.5</ele><time>2026-04-24T17:00:05Z</time></trkpt><trkpt lat="56.86556727848457" lon="60.74252869716129"><ele>271.75</ele><time>2026-04-24T17:00:06Z</time></trkpt><trkpt lat="56.86567004488892" lon="60.742528501737624"><ele>272.0</ele><time>2026-04-24T17:00:07Z</time></trkpt><trkpt lat="56.86576331795414" lon="60.74256604687125"><ele>272.0</ele><time>2026-04-24T17:00:08Z</time></trkpt><trkpt lat="56.86585033998987" lon="60.7425428620084"><ele>272.0</ele><time>2026-04-24T17:00:09Z</time></trkpt><trkpt lat="56.86593571480043" lon="60.742549218490964"><ele>272.0</ele><time>2026-04-24T17:00:10Z</time></trkpt><trkpt lat="56.86602903847173" lon="60.74255412538957"><ele>272.0</ele><time>2026-04-24T17:00:11Z</time></trkpt><trkpt lat="56.86612424130658" lon="60.742564556926396"><ele>272.0</ele><time>2026-04-24T17:00:12Z</time></trkpt><trkpt lat="56.866219047350306" lon="60.74257952361796"><ele>272.1666666666667</ele><time>2026-04-24T17:00:13Z</time></trkpt><trkpt lat="56.866315204091755" lon="60.74258430414504"><ele>272.33333333333337</ele><time>2026-04-24T17:00:14Z</time></trkpt><trkpt lat="56.86640542915605" lon="60.742587697938276"><ele>272.5</ele><time>2026-04-24T17:00:15Z</time></trkpt><trkpt lat="56.866492016046074" lon="60.74258913957763"><ele>272.6666666666667</ele><time>2026-04-24T17:00:16Z</time></trkpt><trkpt lat="56.86657279877242" lon="60.74262231473122"><ele>272.8333333333333</ele><time>2026-04-24T17:00:17Z</time></trkpt><trkpt lat="56.86665138984174" lon="60.742609357624985"><ele>273.0</ele><time>2026-04-24T17:00:18Z</time></trkpt><trkpt lat="56.8667319850037" lon="60.74262262125377"><ele>273.5</ele><time>2026-04-24T17:00:19Z</time></trkpt><trkpt lat="56.86681521753771" lon="60.742621195265514"><ele>274.0</ele><time>2026-04-24T17:00:20Z</time></trkpt><trkpt lat="56.86689757675677" lon="60.74261831662835"><ele>274.5</ele><time>2026-04-24T17:00:21Z</time></trkpt><trkpt lat="56.86698257873293" lon="60.74262405226841"><ele>275.0</ele><time>2026-04-24T17:00:22Z</time></trkpt><trkpt lat="56.86707254618385" lon="60.742657952178696"><ele>275.5</ele><time>2026-04-24T17:00:23Z</time></trkpt><trkpt lat="56.86717166035189" lon="60.742661946360904"><ele>276.0</ele><time>2026-04-24T17:00:24Z</time></trkpt><trkpt lat="56.86727299012726" lon="60.74266304639146"><ele>276.0</ele><time>2026-04-24T17:00:25Z</time></trkpt><trkpt lat="56.867387144524464" lon="60.74263754453809"><ele>276.0</ele><time>2026-04-24T17:00:26Z</time></trkpt><trkpt lat="56.867514123055464" lon="60.74263956504559"><ele>276.0</ele><time>2026-04-24T17:00:27Z</time></trkpt><trkpt lat="56.867645080750584" lon="60.74266478163195"><ele>276.0</ele><time>2026-04-24T17:00:28Z</time></trkpt><trkpt lat="56.86775944722398" lon="60.74266007587287"><ele>276.8</ele><time>2026-04-24T17:00:29Z</time></trkpt><trkpt lat="56.86786924854013" lon="60.74266514401347"><ele>277.6</ele><time>2026-04-24T17:00:30Z</time></trkpt><trkpt lat="56.867967837914414" lon="60.74264348842391"><ele>278.4</ele><time>2026-04-24T17:00:31Z</time></trkpt><trkpt lat="56.86805580606116" lon="60.74263822711493"><ele>279.2</ele><time>2026-04-24T17:00:32Z</time></trkpt><trkpt lat="56.86813412949738" lon="60.742635810086874"><ele>280.0</ele><time>2026-04-24T17:00:33Z</time></trkpt><trkpt lat="56.868213431809636" lon="60.74265268053808"><ele>280.0</ele><time>2026-04-24T17:00:34Z</time></trkpt><trkpt lat="56.868287420135665" lon="60.742611094593364"><ele>280.0</ele><time>2026-04-24T17:00:35Z</time></trkpt><trkpt lat="56.868364712187606" lon="60.74261908043721"><ele>280.0</ele><time>2026-04-24T17:00:36Z</time></trkpt><trkpt lat="56.86843678614993" lon="60.742605035896"><ele>280.0</ele><time>2026-04-24T17:00:37Z</time></trkpt><trkpt lat="56.8685005345376" lon="60.742591572927836"><ele>280.0</ele><time>2026-04-24T17:00:38Z</time></trkpt><trkpt lat="56.868563866272034" lon="60.74257054402976"><ele>280.0</ele><time>2026-04-24T17:00:39Z</time></trkpt><trkpt lat="56.86868766810752" lon="60.74257876438332"><ele>279.8</ele><time>2026-04-24T17:00:41Z</time></trkpt><trkpt lat="56.868751090423196" lon="60.74256940227729"><ele>279.6</ele><time>2026-04-24T17:00:42Z</time></trkpt><trkpt lat="56.868865879518026" lon="60.74253874591074"><ele>279.4</ele><time>2026-04-24T17:00:44Z</time></trkpt><trkpt lat="56.86896935173681" lon="60.74251270589767"><ele>279.2</ele><time>2026-04-24T17:00:46Z</time></trkpt><trkpt lat="56.869078742702264" lon="60.742485176331954"><ele>279.0</ele><time>2026-04-24T17:00:48Z</time></trkpt><trkpt lat="56.869146557498595" lon="60.74244220750175"><ele>279.0</ele><time>2026-04-24T17:00:49Z</time></trkpt><trkpt lat="56.86924013595012" lon="60.742444559782136"><ele>279.0</ele><time>2026-04-24T17:00:50Z</time></trkpt><trkpt lat="56.869353674973176" lon="60.74241598630644"><ele>279.0</ele><time>2026-04-24T17:00:51Z</time></trkpt><trkpt lat="56.86946599244884" lon="60.74238772025136"><ele>279.0</ele><time>2026-04-24T17:00:52Z</time></trkpt><trkpt lat="56.869574198008486" lon="60.74234128768771"><ele>279.0</ele><time>2026-04-24T17:00:53Z</time></trkpt><trkpt lat="56.86967412537639" lon="60.74231277720057"><ele>278.1666666666667</ele><time>2026-04-24T17:00:54Z</time></trkpt><trkpt lat="56.86975501260285" lon="60.74229137615625"><ele>277.3333333333333</ele><time>2026-04-24T17:00:55Z</time></trkpt><trkpt lat="56.86983478987892" lon="60.74227004511164"><ele>276.5</ele><time>2026-04-24T17:00:56Z</time></trkpt><trkpt lat="56.86991088176945" lon="60.742250446215294"><ele>275.66666666666663</ele><time>2026-04-24T17:00:57Z</time></trkpt><trkpt lat="56.869986912588" lon="60.74222715487249"><ele>274.8333333333333</ele><time>2026-04-24T17:00:58Z</time></trkpt><trkpt lat="56.870061109736355" lon="60.74220352044707"><ele>274.0</ele><time>2026-04-24T17:00:59Z</time></trkpt><trkpt lat="56.870142352130266" lon="60.742184077166414"><ele>273.8333333333333</ele><time>2026-04-24T17:01:00Z</time></trkpt><trkpt lat="56.87022537585916" lon="60.74216186848275"><ele>273.66666666666663</ele><time>2026-04-24T17:01:01Z</time></trkpt><trkpt lat="56.870300464914095" lon="60.74214312098497"><ele>273.5</ele><time>2026-04-24T17:01:02Z</time></trkpt><trkpt lat="56.87038397665673" lon="60.74210875586276"><ele>273.3333333333333</ele><time>2026-04-24T17:01:03Z</time></trkpt><trkpt lat="56.870470385097995" lon="60.74207110580894"><ele>273.1666666666667</ele><time>2026-04-24T17:01:04Z</time></trkpt><trkpt lat="56.870552809522664" lon="60.74204143854063"><ele>273.0</ele><time>2026-04-24T17:01:05Z</time></trkpt><trkpt lat="56.870626736532685" lon="60.74201853274381"><ele>273.0</ele><time>2026-04-24T17:01:06Z</time></trkpt><trkpt lat="56.87069553754148" lon="60.74199449643929"><ele>273.0</ele><time>2026-04-24T17:01:07Z</time></trkpt><trkpt lat="56.87077126660391" lon="60.741967582757965"><ele>273.0</ele><time>2026-04-24T17:01:08Z</time></trkpt><trkpt lat="56.87084406617835" lon="60.74194383765387"><ele>273.0</ele><time>2026-04-24T17:01:09Z</time></trkpt><trkpt lat="56.87091193909995" lon="60.74191649124254"><ele>273.0</ele><time>2026-04-24T17:01:10Z</time></trkpt><trkpt lat="56.870986888006406" lon="60.7418961729937"><ele>273.0</ele><time>2026-04-24T17:01:11Z</time></trkpt><trkpt lat="56.8711012859597" lon="60.74186825296019"><ele>272.8333333333333</ele><time>2026-04-24T17:01:13Z</time></trkpt><trkpt lat="56.87120722293726" lon="60.74184057671979"><ele>272.6666666666667</ele><time>2026-04-24T17:01:15Z</time></trkpt><trkpt lat="56.871292912788206" lon="60.74183441395322"><ele>272.5</ele><time>2026-04-24T17:01:17Z</time></trkpt><trkpt lat="56.87137392240024" lon="60.74181800135323"><ele>272.33333333333337</ele><time>2026-04-24T17:01:19Z</time></trkpt><trkpt lat="56.87145040009582" lon="60.74179390538575"><ele>272.1666666666667</ele><time>2026-04-24T17:01:21Z</time></trkpt><trkpt lat="56.87151518091926" lon="60.74176876919788"><ele>272.0</ele><time>2026-04-24T17:01:23Z</time></trkpt><trkpt lat="56.8715908847842" lon="60.74174129306874"><ele>272.0</ele><time>2026-04-24T17:01:26Z</time></trkpt><trkpt lat="56.871662298388344" lon="60.74172600885405"><ele>272.0</ele><time>2026-04-24T17:01:28Z</time></trkpt><trkpt lat="56.87173729438023" lon="60.7417054801011"><ele>272.0</ele><time>2026-04-24T17:01:31Z</time></trkpt><trkpt lat="56.87166280736904" lon="60.74177846356985"><ele>272.0</ele><time>2026-04-24T17:01:42Z</time></trkpt><trkpt lat="56.87154353798982" lon="60.74182332810143"><ele>272.0</ele><time>2026-04-24T17:01:44Z</time></trkpt><trkpt lat="56.87147807373569" lon="60.74184695849776"><ele>272.0</ele><time>2026-04-24T17:01:45Z</time></trkpt><trkpt lat="56.87136190245817" lon="60.741846600274066"><ele>272.0</ele><time>2026-04-24T17:01:47Z</time></trkpt><trkpt lat="56.8712776699941" lon="60.7418476548891"><ele>272.0</ele><time>2026-04-24T17:01:49Z</time></trkpt><trkpt lat="56.871367179246185" lon="60.74185991966642"><ele>272.0</ele><time>2026-04-24T17:02:07Z</time></trkpt><trkpt lat="56.87143549787117" lon="60.74184302650553"><ele>272.0</ele><time>2026-04-24T17:02:09Z</time></trkpt><trkpt lat="56.871501102766864" lon="60.741822211112336"><ele>272.0</ele><time>2026-04-24T17:02:11Z</time></trkpt><trkpt lat="56.8715443191431" lon="60.74199227372502"><ele>272.0</ele><time>2026-04-24T17:02:14Z</time></trkpt><trkpt lat="56.871511882637755" lon="60.74218795391727"><ele>272.0</ele><time>2026-04-24T17:02:16Z</time></trkpt><trkpt lat="56.87149943015127" lon="60.74233537702341"><ele>272.0</ele><time>2026-04-24T17:02:17Z</time></trkpt><trkpt lat="56.87149335477613" lon="60.74250428336239"><ele>272.0</ele><time>2026-04-24T17:02:18Z</time></trkpt><trkpt lat="56.871489775153364" lon="60.74268897128534"><ele>272.0</ele><time>2026-04-24T17:02:19Z</time></trkpt><trkpt lat="56.87148364172622" lon="60.74288864780973"><ele>272.0</ele><time>2026-04-24T17:02:20Z</time></trkpt><trkpt lat="56.871476787273664" lon="60.74311537732548"><ele>272.0</ele><time>2026-04-24T17:02:21Z</time></trkpt><trkpt lat="56.87147081011495" lon="60.7433237170446"><ele>272.0</ele><time>2026-04-24T17:02:22Z</time></trkpt><trkpt lat="56.871461046167134" lon="60.743500285228265"><ele>272.0</ele><time>2026-04-24T17:02:23Z</time></trkpt><trkpt lat="56.87144861346726" lon="60.743671556952265"><ele>272.0</ele><time>2026-04-24T17:02:24Z</time></trkpt><trkpt lat="56.87142699633206" lon="60.74384887570214"><ele>272.0</ele><time>2026-04-24T17:02:25Z</time></trkpt><trkpt lat="56.871394352977404" lon="60.74403852954336"><ele>272.0</ele><time>2026-04-24T17:02:26Z</time></trkpt><trkpt lat="56.87135811600055" lon="60.74424238048655"><ele>272.0</ele><time>2026-04-24T17:02:27Z</time></trkpt><trkpt lat="56.87133144733954" lon="60.74442303767481"><ele>272.0</ele><time>2026-04-24T17:02:28Z</time></trkpt><trkpt lat="56.87130583726475" lon="60.744600938479884"><ele>272.0</ele><time>2026-04-24T17:02:29Z</time></trkpt><trkpt lat="56.87127524359619" lon="60.74476159573154"><ele>272.0</ele><time>2026-04-24T17:02:30Z</time></trkpt><trkpt lat="56.87124038845215" lon="60.744945294256475"><ele>272.0</ele><time>2026-04-24T17:02:31Z</time></trkpt><trkpt lat="56.87119324345205" lon="60.74515386333014"><ele>272.0</ele><time>2026-04-24T17:02:32Z</time></trkpt><trkpt lat="56.871150159329574" lon="60.7453542621551"><ele>272.0</ele><time>2026-04-24T17:02:33Z</time></trkpt><trkpt lat="56.87110785443497" lon="60.74555253820791"><ele>272.0</ele><time>2026-04-24T17:02:34Z</time></trkpt><trkpt lat="56.871077076077306" lon="60.74572085680598"><ele>272.0</ele><time>2026-04-24T17:02:35Z</time></trkpt><trkpt lat="56.87104541161922" lon="60.74589293155377"><ele>272.0</ele><time>2026-04-24T17:02:36Z</time></trkpt><trkpt lat="56.87101424864251" lon="60.74607440252276"><ele>272.0</ele><time>2026-04-24T17:02:37Z</time></trkpt><trkpt lat="56.87098660803498" lon="60.74625115598061"><ele>272.0</ele><time>2026-04-24T17:02:38Z</time></trkpt><trkpt lat="56.87096134891563" lon="60.74642630190251"><ele>272.0</ele><time>2026-04-24T17:02:39Z</time></trkpt><trkpt lat="56.8709423927107" lon="60.74658575906205"><ele>271.6</ele><time>2026-04-24T17:02:40Z</time></trkpt><trkpt lat="56.870929884454924" lon="60.74674351984604"><ele>271.2</ele><time>2026-04-24T17:02:41Z</time></trkpt><trkpt lat="56.870915625810646" lon="60.74689376275226"><ele>270.8</ele><time>2026-04-24T17:02:42Z</time></trkpt><trkpt lat="56.87091031187088" lon="60.74703183367022"><ele>270.4</ele><time>2026-04-24T17:02:43Z</time></trkpt><trkpt lat="56.87089833351281" lon="60.747246686638306"><ele>270.0</ele><time>2026-04-24T17:02:45Z</time></trkpt><trkpt lat="56.87087715797069" lon="60.74742129944827"><ele>270.0</ele><time>2026-04-24T17:02:47Z</time></trkpt><trkpt lat="56.87084564595814" lon="60.74764308876337"><ele>270.0</ele><time>2026-04-24T17:02:49Z</time></trkpt><trkpt lat="56.87082056392135" lon="60.74778529367409"><ele>270.0</ele><time>2026-04-24T17:02:50Z</time></trkpt><trkpt lat="56.8707944476043" lon="60.74795232305065"><ele>270.0</ele><time>2026-04-24T17:02:51Z</time></trkpt><trkpt lat="56.87077758991617" lon="60.74817080886304"><ele>270.0</ele><time>2026-04-24T17:02:52Z</time></trkpt><trkpt lat="56.87076893033686" lon="60.74844189227346"><ele>270.25</ele><time>2026-04-24T17:02:53Z</time></trkpt><trkpt lat="56.87074672074487" lon="60.74870883268255"><ele>270.5</ele><time>2026-04-24T17:02:54Z</time></trkpt><trkpt lat="56.87073011890909" lon="60.74896716093379"><ele>270.75</ele><time>2026-04-24T17:02:55Z</time></trkpt><trkpt lat="56.87070886582467" lon="60.74921769939319"><ele>271.0</ele><time>2026-04-24T17:02:56Z</time></trkpt><trkpt lat="56.870690934595586" lon="60.74945042557036"><ele>271.0</ele><time>2026-04-24T17:02:57Z</time></trkpt><trkpt lat="56.87067943893244" lon="60.74969654280925"><ele>271.0</ele><time>2026-04-24T17:02:58Z</time></trkpt><trkpt lat="56.87066596557502" lon="60.74990058638211"><ele>271.0</ele><time>2026-04-24T17:02:59Z</time></trkpt><trkpt lat="56.87065447253818" lon="60.75009104912197"><ele>271.0</ele><time>2026-04-24T17:03:00Z</time></trkpt><trkpt lat="56.870637194641525" lon="60.75027826897237"><ele>270.8</ele><time>2026-04-24T17:03:01Z</time></trkpt><trkpt lat="56.87062888049926" lon="60.75045437105024"><ele>270.6</ele><time>2026-04-24T17:03:02Z</time></trkpt><trkpt lat="56.870616146291994" lon="60.7506184781441"><ele>270.4</ele><time>2026-04-24T17:03:03Z</time></trkpt><trkpt lat="56.870597378982225" lon="60.75079332377412"><ele>270.2</ele><time>2026-04-24T17:03:04Z</time></trkpt><trkpt lat="56.87058246503876" lon="60.75097562279226"><ele>270.0</ele><time>2026-04-24T17:03:05Z</time></trkpt><trkpt lat="56.870576616603685" lon="60.75115451984138"><ele>270.0</ele><time>2026-04-24T17:03:06Z</time></trkpt><trkpt lat="56.87056730143908" lon="60.75132517634511"><ele>270.0</ele><time>2026-04-24T17:03:07Z</time></trkpt><trkpt lat="56.870557275907906" lon="60.75149004149895"><ele>270.0</ele><time>2026-04-24T17:03:08Z</time></trkpt><trkpt lat="56.870547331808275" lon="60.75164393919491"><ele>270.0</ele><time>2026-04-24T17:03:09Z</time></trkpt><trkpt lat="56.87053178084818" lon="60.751784469729195"><ele>270.0</ele><time>2026-04-24T17:03:10Z</time></trkpt><trkpt lat="56.87051249956678" lon="60.751925487313386"><ele>270.0</ele><time>2026-04-24T17:03:11Z</time></trkpt><trkpt lat="56.87049561878202" lon="60.752059972433194"><ele>270.1666666666667</ele><time>2026-04-24T17:03:12Z</time></trkpt><trkpt lat="56.870483989031264" lon="60.75219891114485"><ele>270.3333333333333</ele><time>2026-04-24T17:03:13Z</time></trkpt><trkpt lat="56.87047287404979" lon="60.75235137797602"><ele>270.5</ele><time>2026-04-24T17:03:14Z</time></trkpt><trkpt lat="56.87046417697871" lon="60.752496960419904"><ele>270.66666666666663</ele><time>2026-04-24T17:03:15Z</time></trkpt><trkpt lat="56.87044899979387" lon="60.752640629810074"><ele>270.8333333333333</ele><time>2026-04-24T17:03:16Z</time></trkpt><trkpt lat="56.870433587315105" lon="60.75279053321629"><ele>271.0</ele><time>2026-04-24T17:03:17Z</time></trkpt><trkpt lat="56.870414809739984" lon="60.75294679036776"><ele>271.0</ele><time>2026-04-24T17:03:18Z</time></trkpt><trkpt lat="56.87039865155467" lon="60.75309751919087"><ele>271.0</ele><time>2026-04-24T17:03:19Z</time></trkpt><trkpt lat="56.87037957420721" lon="60.75323218261447"><ele>271.0</ele><time>2026-04-24T17:03:20Z</time></trkpt><trkpt lat="56.87036477770621" lon="60.75337046563282"><ele>271.0</ele><time>2026-04-24T17:03:21Z</time></trkpt><trkpt lat="56.870344349075694" lon="60.75349584835289"><ele>271.0</ele><time>2026-04-24T17:03:22Z</time></trkpt><trkpt lat="56.87032511765288" lon="60.75361064419224"><ele>271.0</ele><time>2026-04-24T17:03:23Z</time></trkpt><trkpt lat="56.87031048879017" lon="60.75372323210055"><ele>271.0</ele><time>2026-04-24T17:03:24Z</time></trkpt><trkpt lat="56.870294578321705" lon="60.753851191607595"><ele>271.0</ele><time>2026-04-24T17:03:25Z</time></trkpt><trkpt lat="56.87026659380317" lon="60.753981082446984"><ele>271.0</ele><time>2026-04-24T17:03:26Z</time></trkpt><trkpt lat="56.87024385449838" lon="60.75412561689353"><ele>271.0</ele><time>2026-04-24T17:03:27Z</time></trkpt><trkpt lat="56.870227524761354" lon="60.754265035102144"><ele>271.0</ele><time>2026-04-24T17:03:28Z</time></trkpt><trkpt lat="56.87020911329684" lon="60.754484380261694"><ele>271.0</ele><time>2026-04-24T17:03:30Z</time></trkpt><trkpt lat="56.870207769504205" lon="60.754603956208776"><ele>271.0</ele><time>2026-04-24T17:03:31Z</time></trkpt><trkpt lat="56.870209380974615" lon="60.754747101243254"><ele>271.0</ele><time>2026-04-24T17:03:32Z</time></trkpt><trkpt lat="56.870219053222286" lon="60.75490059529597"><ele>271.0</ele><time>2026-04-24T17:03:33Z</time></trkpt><trkpt lat="56.87022689537518" lon="60.75506007337982"><ele>271.0</ele><time>2026-04-24T17:03:34Z</time></trkpt><trkpt lat="56.87023578901524" lon="60.755206115068766"><ele>271.0</ele><time>2026-04-24T17:03:35Z</time></trkpt><trkpt lat="56.87024453620319" lon="60.755333633899376"><ele>271.0</ele><time>2026-04-24T17:03:36Z</time></trkpt><trkpt lat="56.87025141483185" lon="60.75544884184749"><ele>271.0</ele><time>2026-04-24T17:03:37Z</time></trkpt><trkpt lat="56.87026242785607" lon="60.75556753255233"><ele>271.0</ele><time>2026-04-24T17:03:38Z</time></trkpt><trkpt lat="56.87027926190833" lon="60.75569773258067"><ele>271.0</ele><time>2026-04-24T17:03:39Z</time></trkpt><trkpt lat="56.87031878522718" lon="60.755917229065545"><ele>271.0</ele><time>2026-04-24T17:03:41Z</time></trkpt><trkpt lat="56.87034654948501" lon="60.75605105053162"><ele>271.0</ele><time>2026-04-24T17:03:42Z</time></trkpt><trkpt lat="56.87037418512618" lon="60.75622436685269"><ele>271.0</ele><time>2026-04-24T17:03:43Z</time></trkpt><trkpt lat="56.87040260132369" lon="60.756405794543"><ele>271.0</ele><time>2026-04-24T17:03:44Z</time></trkpt><trkpt lat="56.87042960296563" lon="60.75660296771736"><ele>271.0</ele><time>2026-04-24T17:03:45Z</time></trkpt><trkpt lat="56.870448217068315" lon="60.75675406095731"><ele>271.0</ele><time>2026-04-24T17:03:46Z</time></trkpt><trkpt lat="56.8704684164058" lon="60.75689855441148"><ele>271.0</ele><time>2026-04-24T17:03:47Z</time></trkpt><trkpt lat="56.87048752634656" lon="60.757032371807824"><ele>271.0</ele><time>2026-04-24T17:03:48Z</time></trkpt><trkpt lat="56.870506363160345" lon="60.75717052716617"><ele>271.0</ele><time>2026-04-24T17:03:49Z</time></trkpt><trkpt lat="56.87051751609948" lon="60.75728582233615"><ele>271.0</ele><time>2026-04-24T17:03:50Z</time></trkpt><trkpt lat="56.870538328230836" lon="60.75740615814601"><ele>271.0</ele><time>2026-04-24T17:03:51Z</time></trkpt><trkpt lat="56.87057441650454" lon="60.757602417400584"><ele>271.0</ele><time>2026-04-24T17:03:53Z</time></trkpt><trkpt lat="56.87063913322822" lon="60.75773770383874"><ele>271.0</ele><time>2026-04-24T17:03:55Z</time></trkpt><trkpt lat="56.87076018609815" lon="60.75774704849948"><ele>271.0</ele><time>2026-04-24T17:03:57Z</time></trkpt><trkpt lat="56.87087732179221" lon="60.757793095818755"><ele>271.0</ele><time>2026-04-24T17:03:59Z</time></trkpt><trkpt lat="56.870940463334776" lon="60.75783715271765"><ele>271.0</ele><time>2026-04-24T17:04:00Z</time></trkpt><trkpt lat="56.87101194315804" lon="60.75787601715941"><ele>271.0</ele><time>2026-04-24T17:04:01Z</time></trkpt><trkpt lat="56.87108282839964" lon="60.757908566192064"><ele>271.0</ele><time>2026-04-24T17:04:02Z</time></trkpt><trkpt lat="56.871153844181" lon="60.75794228657036"><ele>271.0</ele><time>2026-04-24T17:04:03Z</time></trkpt><trkpt lat="56.87121936064335" lon="60.75798423636196"><ele>271.0</ele><time>2026-04-24T17:04:04Z</time></trkpt><trkpt lat="56.871288136037634" lon="60.75803297068242"><ele>271.0</ele><time>2026-04-24T17:04:05Z</time></trkpt><trkpt lat="56.87136768761823" lon="60.75808953327741"><ele>271.8</ele><time>2026-04-24T17:04:06Z</time></trkpt><trkpt lat="56.87144869534625" lon="60.758132875360154"><ele>272.6</ele><time>2026-04-24T17:04:07Z</time></trkpt><trkpt lat="56.871529315257405" lon="60.758174939813024"><ele>273.4</ele><time>2026-04-24T17:04:08Z</time></trkpt><trkpt lat="56.87159086858245" lon="60.75821642943099"><ele>274.2</ele><time>2026-04-24T17:04:09Z</time></trkpt><trkpt lat="56.87170532303963" lon="60.75829242513697"><ele>275.0</ele><time>2026-04-24T17:04:11Z</time></trkpt><trkpt lat="56.871818396712115" lon="60.758367918607355"><ele>276.8</ele><time>2026-04-24T17:04:13Z</time></trkpt><trkpt lat="56.871898696383134" lon="60.75841362213928"><ele>278.6</ele><time>2026-04-24T17:04:15Z</time></trkpt><trkpt lat="56.871952217906795" lon="60.75852116669396"><ele>280.4</ele><time>2026-04-24T17:04:18Z</time></trkpt><trkpt lat="56.87192766990556" lon="60.75875985130835"><ele>282.2</ele><time>2026-04-24T17:04:20Z</time></trkpt><trkpt lat="56.8718958500543" lon="60.758904338373135"><ele>284.0</ele><time>2026-04-24T17:04:21Z</time></trkpt><trkpt lat="56.87187200972334" lon="60.75907087297633"><ele>284.4</ele><time>2026-04-24T17:04:22Z</time></trkpt><trkpt lat="56.8718531569614" lon="60.759251780988336"><ele>284.79999999999995</ele><time>2026-04-24T17:04:23Z</time></trkpt><trkpt lat="56.87184491205043" lon="60.75942471324603"><ele>285.20000000000005</ele><time>2026-04-24T17:04:24Z</time></trkpt><trkpt lat="56.87183139648547" lon="60.759593088749064"><ele>285.6</ele><time>2026-04-24T17:04:25Z</time></trkpt><trkpt lat="56.87182114745709" lon="60.75975339131396"><ele>286.0</ele><time>2026-04-24T17:04:26Z</time></trkpt><trkpt lat="56.87179725142545" lon="60.75991993553918"><ele>284.40000000000003</ele><time>2026-04-24T17:04:27Z</time></trkpt><trkpt lat="56.87176240544632" lon="60.76008684282644"><ele>282.8</ele><time>2026-04-24T17:04:28Z</time></trkpt><trkpt lat="56.87173311918106" lon="60.76025208956988"><ele>281.20000000000005</ele><time>2026-04-24T17:04:29Z</time></trkpt><trkpt lat="56.87170188316079" lon="60.760433731645314"><ele>279.6</ele><time>2026-04-24T17:04:30Z</time></trkpt><trkpt lat="56.871675121167435" lon="60.76060997369054"><ele>278.0</ele><time>2026-04-24T17:04:31Z</time></trkpt><trkpt lat="56.87163686596171" lon="60.7607833305364"><ele>278.0</ele><time>2026-04-24T17:04:32Z</time></trkpt><trkpt lat="56.871601954612764" lon="60.760951273223455"><ele>278.0</ele><time>2026-04-24T17:04:33Z</time></trkpt><trkpt lat="56.87156848806825" lon="60.76109446326534"><ele>278.0</ele><time>2026-04-24T17:04:34Z</time></trkpt><trkpt lat="56.87154119069205" lon="60.76127332778046"><ele>278.0</ele><time>2026-04-24T17:04:35Z</time></trkpt><trkpt lat="56.87151627054568" lon="60.76140991320629"><ele>278.0</ele><time>2026-04-24T17:04:36Z</time></trkpt><trkpt lat="56.87149257273133" lon="60.76152841239241"><ele>278.0</ele><time>2026-04-24T17:04:37Z</time></trkpt><trkpt lat="56.871454080285076" lon="60.76173199122698"><ele>278.8</ele><time>2026-04-24T17:04:39Z</time></trkpt><trkpt lat="56.87141995344792" lon="60.76193098928568"><ele>279.6</ele><time>2026-04-24T17:04:41Z</time></trkpt><trkpt lat="56.87138554866272" lon="60.76210720628846"><ele>280.4</ele><time>2026-04-24T17:04:43Z</time></trkpt><trkpt lat="56.871377757269265" lon="60.76227010457528"><ele>281.2</ele><time>2026-04-24T17:04:44Z</time></trkpt><trkpt lat="56.87135567254214" lon="60.762404335701824"><ele>282.0</ele><time>2026-04-24T17:04:45Z</time></trkpt><trkpt lat="56.87133656247608" lon="60.76254293458575"><ele>282.0</ele><time>2026-04-24T17:04:46Z</time></trkpt><trkpt lat="56.87131853456287" lon="60.762686013978445"><ele>282.0</ele><time>2026-04-24T17:04:47Z</time></trkpt><trkpt lat="56.87130130011863" lon="60.76284784860694"><ele>282.0</ele><time>2026-04-24T17:04:48Z</time></trkpt><trkpt lat="56.8712812131961" lon="60.76299698567867"><ele>282.0</ele><time>2026-04-24T17:04:49Z</time></trkpt><trkpt lat="56.871272271395654" lon="60.76314116317593"><ele>282.0</ele><time>2026-04-24T17:04:50Z</time></trkpt><trkpt lat="56.87127173248439" lon="60.76327751272262"><ele>282.0</ele><time>2026-04-24T17:04:51Z</time></trkpt><trkpt lat="56.87127514853069" lon="60.76342155045311"><ele>282.8333333333333</ele><time>2026-04-24T17:04:52Z</time></trkpt><trkpt lat="56.871274230886584" lon="60.763564498861484"><ele>283.6666666666667</ele><time>2026-04-24T17:04:53Z</time></trkpt><trkpt lat="56.87127120929162" lon="60.76368735945564"><ele>284.5</ele><time>2026-04-24T17:04:54Z</time></trkpt><trkpt lat="56.871271826437244" lon="60.76384290601061"><ele>285.33333333333337</ele><time>2026-04-24T17:04:55Z</time></trkpt><trkpt lat="56.87126340465239" lon="60.764017312284366"><ele>286.1666666666667</ele><time>2026-04-24T17:04:56Z</time></trkpt><trkpt lat="56.87125641724133" lon="60.76416914513671"><ele>287.0</ele><time>2026-04-24T17:04:57Z</time></trkpt><trkpt lat="56.87126383408482" lon="60.76429616020251"><ele>286.6666666666667</ele><time>2026-04-24T17:04:58Z</time></trkpt><trkpt lat="56.87128282302899" lon="60.76447254154945"><ele>286.33333333333337</ele><time>2026-04-24T17:05:00.001Z</time></trkpt><trkpt lat="56.87128744305521" lon="60.76465092420858"><ele>286.0</ele><time>2026-04-24T17:05:02.001Z</time></trkpt><trkpt lat="56.871281186494215" lon="60.76476583724589"><ele>285.6666666666667</ele><time>2026-04-24T17:05:03.001Z</time></trkpt><trkpt lat="56.87127254453116" lon="60.76498021419212"><ele>285.3333333333333</ele><time>2026-04-24T17:05:05.001Z</time></trkpt><trkpt lat="56.87125532669904" lon="60.765109932522755"><ele>285.0</ele><time>2026-04-24T17:05:06.001Z</time></trkpt><trkpt lat="56.87121649243896" lon="60.765210207876436"><ele>285.0</ele><time>2026-04-24T17:05:07.001Z</time></trkpt><trkpt lat="56.871167625001604" lon="60.76528375090977"><ele>285.0</ele><time>2026-04-24T17:05:08.001Z</time></trkpt><trkpt lat="56.87109303913501" lon="60.76548018504159"><ele>285.0</ele><time>2026-04-24T17:05:10.001Z</time></trkpt><trkpt lat="56.87105448081873" lon="60.765598704496185"><ele>285.0</ele><time>2026-04-24T17:05:11.001Z</time></trkpt><trkpt lat="56.87100725612008" lon="60.7657251255051"><ele>285.0</ele><time>2026-04-24T17:05:12.001Z</time></trkpt><trkpt lat="56.87094854233228" lon="60.765835658263065"><ele>285.0</ele><time>2026-04-24T17:05:13.001Z</time></trkpt><trkpt lat="56.870880958284985" lon="60.76590540735077"><ele>283.6666666666667</ele><time>2026-04-24T17:05:14.001Z</time></trkpt><trkpt lat="56.87076144498693" lon="60.765918939197896"><ele>282.3333333333333</ele><time>2026-04-24T17:05:16.001Z</time></trkpt><trkpt lat="56.870691312803736" lon="60.76590359363933"><ele>281.0</ele><time>2026-04-24T17:05:17.001Z</time></trkpt><trkpt lat="56.87062027423057" lon="60.7658909681771"><ele>279.66666666666663</ele><time>2026-04-24T17:05:18.001Z</time></trkpt><trkpt lat="56.870554460373484" lon="60.76587799372614"><ele>278.3333333333333</ele><time>2026-04-24T17:05:19.001Z</time></trkpt><trkpt lat="56.87044487511089" lon="60.765851239012086"><ele>277.0</ele><time>2026-04-24T17:05:21.001Z</time></trkpt><trkpt lat="56.8703310576783" lon="60.76583743014612"><ele>277.0</ele><time>2026-04-24T17:05:23.001Z</time></trkpt><trkpt lat="56.870218642002946" lon="60.76581890883081"><ele>277.0</ele><time>2026-04-24T17:05:25.001Z</time></trkpt><trkpt lat="56.87013651436953" lon="60.765778946447945"><ele>277.0</ele><time>2026-04-24T17:05:27.001Z</time></trkpt><trkpt lat="56.87006823647169" lon="60.76573677668474"><ele>277.0</ele><time>2026-04-24T17:05:29.001Z</time></trkpt><trkpt lat="56.870007273695855" lon="60.765686096422485"><ele>277.0</ele><time>2026-04-24T17:05:31.001Z</time></trkpt><trkpt lat="56.86995110358236" lon="60.76563317843595"><ele>277.0</ele><time>2026-04-24T17:05:33.001Z</time></trkpt><trkpt lat="56.86988538409208" lon="60.76561186357721"><ele>277.0</ele><time>2026-04-24T17:05:35.001Z</time></trkpt><trkpt lat="56.8698179748818" lon="60.7655869210743"><ele>277.0</ele><time>2026-04-24T17:05:41.001Z</time></trkpt><trkpt lat="56.86987775454255" lon="60.76567230045551"><ele>277.0</ele><time>2026-04-24T17:05:49.001Z</time></trkpt><trkpt lat="56.87001628774615" lon="60.76575308784519"><ele>277.0</ele><time>2026-04-24T17:05:51.001Z</time></trkpt><trkpt lat="56.87010236026777" lon="60.765797620654325"><ele>277.0</ele><time>2026-04-24T17:05:52.001Z</time></trkpt><trkpt lat="56.87021181989669" lon="60.76583481159311"><ele>277.0</ele><time>2026-04-24T17:05:53.001Z</time></trkpt><trkpt lat="56.87032792821704" lon="60.76586341902526"><ele>277.0</ele><time>2026-04-24T17:05:54.001Z</time></trkpt><trkpt lat="56.87043849504238" lon="60.76588486978057"><ele>277.0</ele><time>2026-04-24T17:05:55.001Z</time></trkpt><trkpt lat="56.870537063929724" lon="60.76590285861725"><ele>277.0</ele><time>2026-04-24T17:05:56.001Z</time></trkpt><trkpt lat="56.870628759790726" lon="60.765914667177775"><ele>277.0</ele><time>2026-04-24T17:05:57.001Z</time></trkpt><trkpt lat="56.87070104600454" lon="60.76592202990101"><ele>277.0</ele><time>2026-04-24T17:05:58.001Z</time></trkpt><trkpt lat="56.870768289405824" lon="60.76590197775629"><ele>277.0</ele><time>2026-04-24T17:05:59.001Z</time></trkpt><trkpt lat="56.870844788642216" lon="60.765874108734515"><ele>277.0</ele><time>2026-04-24T17:06:00.001Z</time></trkpt><trkpt lat="56.87091130918683" lon="60.765809343524715"><ele>277.0</ele><time>2026-04-24T17:06:01.001Z</time></trkpt><trkpt lat="56.870974564333025" lon="60.76569155849351"><ele>277.0</ele><time>2026-04-24T17:06:02.001Z</time></trkpt><trkpt lat="56.87102867042715" lon="60.765563021215975"><ele>277.0</ele><time>2026-04-24T17:06:03.001Z</time></trkpt><trkpt lat="56.87108118644136" lon="60.7654414387572"><ele>278.3333333333333</ele><time>2026-04-24T17:06:04.001Z</time></trkpt><trkpt lat="56.871131297523085" lon="60.76534554331907"><ele>279.66666666666663</ele><time>2026-04-24T17:06:05.001Z</time></trkpt><trkpt lat="56.87119206154064" lon="60.765237124854536"><ele>281.0</ele><time>2026-04-24T17:06:06.001Z</time></trkpt><trkpt lat="56.87124300599224" lon="60.765136043494834"><ele>282.3333333333333</ele><time>2026-04-24T17:06:07.001Z</time></trkpt><trkpt lat="56.87128256668515" lon="60.765023325009736"><ele>283.6666666666667</ele><time>2026-04-24T17:06:08.001Z</time></trkpt><trkpt lat="56.87131086395184" lon="60.764886258337086"><ele>285.0</ele><time>2026-04-24T17:06:09Z</time></trkpt><trkpt lat="56.8713287918914" lon="60.76473079611911"><ele>285.0</ele><time>2026-04-24T17:06:10Z</time></trkpt><trkpt lat="56.87133066517995" lon="60.76456639648801"><ele>285.0</ele><time>2026-04-24T17:06:11Z</time></trkpt><trkpt lat="56.87134043898925" lon="60.76440167534154"><ele>285.0</ele><time>2026-04-24T17:06:12Z</time></trkpt><trkpt lat="56.871356634525746" lon="60.76422746209496"><ele>285.0</ele><time>2026-04-24T17:06:13Z</time></trkpt><trkpt lat="56.87136337273552" lon="60.76405225161022"><ele>285.0</ele><time>2026-04-24T17:06:14Z</time></trkpt><trkpt lat="56.87136263987261" lon="60.76386181322652"><ele>285.0</ele><time>2026-04-24T17:06:15Z</time></trkpt><trkpt lat="56.87136243761336" lon="60.7636742666168"><ele>285.0</ele><time>2026-04-24T17:06:16Z</time></trkpt><trkpt lat="56.8713555049281" lon="60.763512591773036"><ele>285.0</ele><time>2026-04-24T17:06:17Z</time></trkpt><trkpt lat="56.871362349037895" lon="60.76335146448431"><ele>285.0</ele><time>2026-04-24T17:06:18Z</time></trkpt><trkpt lat="56.871378304859604" lon="60.76319842562166"><ele>285.0</ele><time>2026-04-24T17:06:19Z</time></trkpt><trkpt lat="56.87138697934176" lon="60.76305256023005"><ele>285.0</ele><time>2026-04-24T17:06:20Z</time></trkpt><trkpt lat="56.871394797745694" lon="60.762907082045146"><ele>285.0</ele><time>2026-04-24T17:06:21Z</time></trkpt><trkpt lat="56.87140215069527" lon="60.76275780535055"><ele>285.0</ele><time>2026-04-24T17:06:22Z</time></trkpt><trkpt lat="56.871421931379246" lon="60.76259772128096"><ele>285.0</ele><time>2026-04-24T17:06:23Z</time></trkpt><trkpt lat="56.871338806555954" lon="60.76234196017386"><ele>285.0</ele><time>2026-04-24T17:06:24Z</time></trkpt><trkpt lat="56.87137358528341" lon="60.762163221703815"><ele>285.0</ele><time>2026-04-24T17:06:25Z</time></trkpt><trkpt lat="56.87140810068876" lon="60.76198583606034"><ele>284.0</ele><time>2026-04-24T17:06:26Z</time></trkpt><trkpt lat="56.87143568674936" lon="60.76180787190443"><ele>283.0</ele><time>2026-04-24T17:06:27Z</time></trkpt><trkpt lat="56.87147749699662" lon="60.76162887102931"><ele>282.0</ele><time>2026-04-24T17:06:28Z</time></trkpt><trkpt lat="56.87151262208178" lon="60.76144668828451"><ele>281.0</ele><time>2026-04-24T17:06:29Z</time></trkpt><trkpt lat="56.871552244893095" lon="60.76125269961545"><ele>280.0</ele><time>2026-04-24T17:06:30Z</time></trkpt><trkpt lat="56.87159802520996" lon="60.76104937982412"><ele>279.6</ele><time>2026-04-24T17:06:31Z</time></trkpt><trkpt lat="56.87164177336689" lon="60.76084623187161"><ele>279.2</ele><time>2026-04-24T17:06:32Z</time></trkpt><trkpt lat="56.871680850870554" lon="60.760660660477306"><ele>278.8</ele><time>2026-04-24T17:06:33Z</time></trkpt><trkpt lat="56.87172384430152" lon="60.76050533545027"><ele>278.4</ele><time>2026-04-24T17:06:34Z</time></trkpt><trkpt lat="56.87175783198927" lon="60.760359598843884"><ele>278.0</ele><time>2026-04-24T17:06:35Z</time></trkpt><trkpt lat="56.871797126655615" lon="60.76020254301873"><ele>279.33333333333337</ele><time>2026-04-24T17:06:36Z</time></trkpt><trkpt lat="56.87184818632768" lon="60.76004669471061"><ele>280.6666666666667</ele><time>2026-04-24T17:06:37Z</time></trkpt><trkpt lat="56.87188629421615" lon="60.759908423652995"><ele>282.0</ele><time>2026-04-24T17:06:38Z</time></trkpt><trkpt lat="56.87190156349687" lon="60.75977078017052"><ele>283.3333333333333</ele><time>2026-04-24T17:06:39Z</time></trkpt><trkpt lat="56.87188724965914" lon="60.75962611497558"><ele>284.66666666666663</ele><time>2026-04-24T17:06:40Z</time></trkpt><trkpt lat="56.871877405974054" lon="60.75947413517291"><ele>286.0</ele><time>2026-04-24T17:06:41Z</time></trkpt><trkpt lat="56.871870012474325" lon="60.759276233211104"><ele>286.0</ele><time>2026-04-24T17:06:42Z</time></trkpt><trkpt lat="56.87188769599928" lon="60.75913189473793"><ele>286.0</ele><time>2026-04-24T17:06:43Z</time></trkpt><trkpt lat="56.87190407190016" lon="60.7589983575198"><ele>286.0</ele><time>2026-04-24T17:06:44Z</time></trkpt><trkpt lat="56.871926474604905" lon="60.75881605933938"><ele>286.0</ele><time>2026-04-24T17:06:46Z</time></trkpt><trkpt lat="56.872014393298436" lon="60.758610891465565"><ele>286.0</ele><time>2026-04-24T17:06:47Z</time></trkpt><trkpt lat="56.87192037249879" lon="60.758328062337945"><ele>285.6</ele><time>2026-04-24T17:06:48Z</time></trkpt><trkpt lat="56.871845663814554" lon="60.758280597810575"><ele>285.20000000000005</ele><time>2026-04-24T17:06:49Z</time></trkpt><trkpt lat="56.871754994253685" lon="60.7582214148224"><ele>284.79999999999995</ele><time>2026-04-24T17:06:50Z</time></trkpt><trkpt lat="56.871647921913834" lon="60.758151403730935"><ele>284.4</ele><time>2026-04-24T17:06:51Z</time></trkpt><trkpt lat="56.87154016481241" lon="60.75808141452574"><ele>284.0</ele><time>2026-04-24T17:06:52Z</time></trkpt><trkpt lat="56.87144955510517" lon="60.758022952645575"><ele>282.5</ele><time>2026-04-24T17:06:53Z</time></trkpt><trkpt lat="56.871361465608985" lon="60.75796559383525"><ele>281.0</ele><time>2026-04-24T17:06:54Z</time></trkpt><trkpt lat="56.87127462908166" lon="60.75790895006291"><ele>279.5</ele><time>2026-04-24T17:06:55Z</time></trkpt><trkpt lat="56.87118974690547" lon="60.757853581137084"><ele>278.0</ele><time>2026-04-24T17:06:56Z</time></trkpt><trkpt lat="56.87111228910463" lon="60.75780305507188"><ele>276.5</ele><time>2026-04-24T17:06:57Z</time></trkpt><trkpt lat="56.871041596794825" lon="60.757756942298265"><ele>275.0</ele><time>2026-04-24T17:06:58Z</time></trkpt><trkpt lat="56.87092543133711" lon="60.75768116715356"><ele>274.2</ele><time>2026-04-24T17:07:00Z</time></trkpt><trkpt lat="56.870809218774085" lon="60.75760536323024"><ele>273.4</ele><time>2026-04-24T17:07:02Z</time></trkpt><trkpt lat="56.87070629725088" lon="60.75753603700867"><ele>272.6</ele><time>2026-04-24T17:07:04Z</time></trkpt><trkpt lat="56.870645260575685" lon="60.757447862680955"><ele>271.8</ele><time>2026-04-24T17:07:06Z</time></trkpt><trkpt lat="56.87059127535554" lon="60.75737183280459"><ele>271.0</ele><time>2026-04-24T17:07:07Z</time></trkpt><trkpt lat="56.87056598013431" lon="60.75721414373787"><ele>271.0</ele><time>2026-04-24T17:07:08Z</time></trkpt><trkpt lat="56.870552448195994" lon="60.75703373819384"><ele>271.0</ele><time>2026-04-24T17:07:09Z</time></trkpt><trkpt lat="56.87051366020619" lon="60.7568660610465"><ele>271.0</ele><time>2026-04-24T17:07:10Z</time></trkpt><trkpt lat="56.87049099537945" lon="60.75671481921107"><ele>271.0</ele><time>2026-04-24T17:07:11Z</time></trkpt><trkpt lat="56.870469993148255" lon="60.75656739920693"><ele>271.0</ele><time>2026-04-24T17:07:12Z</time></trkpt><trkpt lat="56.870445845153455" lon="60.75640322390785"><ele>271.0</ele><time>2026-04-24T17:07:13Z</time></trkpt><trkpt lat="56.87043140079292" lon="60.756232170982905"><ele>271.0</ele><time>2026-04-24T17:07:14Z</time></trkpt><trkpt lat="56.87041080354708" lon="60.756076366124994"><ele>271.0</ele><time>2026-04-24T17:07:15Z</time></trkpt><trkpt lat="56.870390775992796" lon="60.7559354803046"><ele>271.0</ele><time>2026-04-24T17:07:16Z</time></trkpt><trkpt lat="56.870373010264935" lon="60.755807087232114"><ele>271.0</ele><time>2026-04-24T17:07:17Z</time></trkpt><trkpt lat="56.870355349828465" lon="60.75567354086381"><ele>271.0</ele><time>2026-04-24T17:07:18Z</time></trkpt><trkpt lat="56.87033789423888" lon="60.75553374414152"><ele>271.0</ele><time>2026-04-24T17:07:19Z</time></trkpt><trkpt lat="56.87031924652522" lon="60.75539207462026"><ele>271.0</ele><time>2026-04-24T17:07:20Z</time></trkpt><trkpt lat="56.870310372544495" lon="60.75523474860037"><ele>271.0</ele><time>2026-04-24T17:07:21Z</time></trkpt><trkpt lat="56.870275518243645" lon="60.7550847509974"><ele>271.0</ele><time>2026-04-24T17:07:22Z</time></trkpt><trkpt lat="56.87027479302833" lon="60.754911804382736"><ele>271.0</ele><time>2026-04-24T17:07:23Z</time></trkpt><trkpt lat="56.87027676503817" lon="60.754732304440346"><ele>271.0</ele><time>2026-04-24T17:07:24Z</time></trkpt><trkpt lat="56.87028208001949" lon="60.7545501061861"><ele>271.0</ele><time>2026-04-24T17:07:25Z</time></trkpt><trkpt lat="56.87028981007851" lon="60.754373117399126"><ele>271.0</ele><time>2026-04-24T17:07:26Z</time></trkpt><trkpt lat="56.8703256435421" lon="60.75420010337151"><ele>271.0</ele><time>2026-04-24T17:07:27Z</time></trkpt><trkpt lat="56.87034034164796" lon="60.75401163495161"><ele>271.0</ele><time>2026-04-24T17:07:28Z</time></trkpt><trkpt lat="56.87035990146249" lon="60.753817066807734"><ele>271.0</ele><time>2026-04-24T17:07:29Z</time></trkpt><trkpt lat="56.870381377941584" lon="60.753622854245286"><ele>271.2</ele><time>2026-04-24T17:07:30Z</time></trkpt><trkpt lat="56.87040539667413" lon="60.75343594939676"><ele>271.40000000000003</ele><time>2026-04-24T17:07:31Z</time></trkpt><trkpt lat="56.87042872062811" lon="60.753260980774606"><ele>271.6</ele><time>2026-04-24T17:07:32Z</time></trkpt><trkpt lat="56.870449086979754" lon="60.75309033266758"><ele>271.8</ele><time>2026-04-24T17:07:33Z</time></trkpt><trkpt lat="56.870467961649" lon="60.752922094938526"><ele>272.0</ele><time>2026-04-24T17:07:34Z</time></trkpt><trkpt lat="56.87048592215629" lon="60.75274952038976"><ele>271.75</ele><time>2026-04-24T17:07:35Z</time></trkpt><trkpt lat="56.87050416903928" lon="60.752569956976906"><ele>271.5</ele><time>2026-04-24T17:07:36Z</time></trkpt><trkpt lat="56.8705214287755" lon="60.75237993865441"><ele>271.25</ele><time>2026-04-24T17:07:37Z</time></trkpt><trkpt lat="56.87056012922746" lon="60.75217990338821"><ele>271.0</ele><time>2026-04-24T17:07:38Z</time></trkpt><trkpt lat="56.87058410597263" lon="60.75194550722948"><ele>270.75</ele><time>2026-04-24T17:07:39Z</time></trkpt><trkpt lat="56.87061132667104" lon="60.75169897441356"><ele>270.5</ele><time>2026-04-24T17:07:40Z</time></trkpt><trkpt lat="56.870639371365414" lon="60.7514435435767"><ele>270.25</ele><time>2026-04-24T17:07:41Z</time></trkpt><trkpt lat="56.87066847288456" lon="60.75117885092411"><ele>270.0</ele><time>2026-04-24T17:07:42Z</time></trkpt><trkpt lat="56.87069793995696" lon="60.750909865822784"><ele>270.0</ele><time>2026-04-24T17:07:43Z</time></trkpt><trkpt lat="56.870727569019735" lon="60.75063944710505"><ele>270.0</ele><time>2026-04-24T17:07:44Z</time></trkpt><trkpt lat="56.870756858231964" lon="60.750371379670035"><ele>270.0</ele><time>2026-04-24T17:07:45Z</time></trkpt><trkpt lat="56.87078341369432" lon="60.75009006684682"><ele>270.3333333333333</ele><time>2026-04-24T17:07:46Z</time></trkpt><trkpt lat="56.870796784220296" lon="60.749811770593006"><ele>270.66666666666663</ele><time>2026-04-24T17:07:47Z</time></trkpt><trkpt lat="56.87081080091666" lon="60.74951854551647"><ele>271.0</ele><time>2026-04-24T17:07:48Z</time></trkpt><trkpt lat="56.870824399102034" lon="60.74923355848979"><ele>271.0</ele><time>2026-04-24T17:07:49Z</time></trkpt><trkpt lat="56.87083914619707" lon="60.748971680512135"><ele>271.0</ele><time>2026-04-24T17:07:50Z</time></trkpt><trkpt lat="56.870855683225116" lon="60.748724281885956"><ele>271.0</ele><time>2026-04-24T17:07:51Z</time></trkpt><trkpt lat="56.870847806290165" lon="60.74848597289809"><ele>271.0</ele><time>2026-04-24T17:07:52Z</time></trkpt><trkpt lat="56.870865546512604" lon="60.748266183044656"><ele>271.0</ele><time>2026-04-24T17:07:53Z</time></trkpt><trkpt lat="56.8708826850981" lon="60.748034219817896"><ele>271.0</ele><time>2026-04-24T17:07:54Z</time></trkpt><trkpt lat="56.87089914348401" lon="60.74780243311467"><ele>271.0</ele><time>2026-04-24T17:07:55Z</time></trkpt><trkpt lat="56.870913424230295" lon="60.74758108764696"><ele>271.0</ele><time>2026-04-24T17:07:56Z</time></trkpt><trkpt lat="56.87092530303478" lon="60.74737145932159"><ele>271.0</ele><time>2026-04-24T17:07:57Z</time></trkpt><trkpt lat="56.87093522557223" lon="60.747164142822406"><ele>271.0</ele><time>2026-04-24T17:07:58Z</time></trkpt><trkpt lat="56.87094308096539" lon="60.74692831791569"><ele>271.0</ele><time>2026-04-24T17:07:59Z</time></trkpt><trkpt lat="56.87095181968024" lon="60.746705788009876"><ele>271.0</ele><time>2026-04-24T17:08:00Z</time></trkpt><trkpt lat="56.870961023181394" lon="60.74649356602645"><ele>271.0</ele><time>2026-04-24T17:08:01Z</time></trkpt><trkpt lat="56.870973810841484" lon="60.74628408058495"><ele>271.0</ele><time>2026-04-24T17:08:02Z</time></trkpt><trkpt lat="56.87099792924242" lon="60.74605792539782"><ele>271.0</ele><time>2026-04-24T17:08:03Z</time></trkpt><trkpt lat="56.87103284970793" lon="60.74582677852968"><ele>271.0</ele><time>2026-04-24T17:08:04Z</time></trkpt><trkpt lat="56.87107025612987" lon="60.74560026775765"><ele>271.2</ele><time>2026-04-24T17:08:05Z</time></trkpt><trkpt lat="56.871120440546946" lon="60.74539305134732"><ele>271.40000000000003</ele><time>2026-04-24T17:08:06Z</time></trkpt><trkpt lat="56.87117011152747" lon="60.745206430938495"><ele>271.6</ele><time>2026-04-24T17:08:07Z</time></trkpt><trkpt lat="56.8712129159315" lon="60.745040313251366"><ele>271.8</ele><time>2026-04-24T17:08:08Z</time></trkpt><trkpt lat="56.87125033694784" lon="60.74486598557687"><ele>272.0</ele><time>2026-04-24T17:08:09Z</time></trkpt><trkpt lat="56.87128628681087" lon="60.74469129729229"><ele>272.0</ele><time>2026-04-24T17:08:10Z</time></trkpt><trkpt lat="56.87133106488825" lon="60.744503851981506"><ele>272.0</ele><time>2026-04-24T17:08:11Z</time></trkpt><trkpt lat="56.87137484876647" lon="60.74430943018481"><ele>272.0</ele><time>2026-04-24T17:08:12Z</time></trkpt><trkpt lat="56.87141145720867" lon="60.744116068176275"><ele>272.0</ele><time>2026-04-24T17:08:13Z</time></trkpt><trkpt lat="56.871445170230544" lon="60.743925630956795"><ele>272.0</ele><time>2026-04-24T17:08:14Z</time></trkpt><trkpt lat="56.87147107186709" lon="60.74374630659813"><ele>272.0</ele><time>2026-04-24T17:08:15Z</time></trkpt><trkpt lat="56.871495967142266" lon="60.743583776335534"><ele>272.0</ele><time>2026-04-24T17:08:16Z</time></trkpt><trkpt lat="56.87151967497767" lon="60.743433998660294"><ele>272.0</ele><time>2026-04-24T17:08:17Z</time></trkpt><trkpt lat="56.871528484359736" lon="60.74328674874853"><ele>272.0</ele><time>2026-04-24T17:08:18Z</time></trkpt><trkpt lat="56.87154294291657" lon="60.743131422596754"><ele>272.0</ele><time>2026-04-24T17:08:19Z</time></trkpt><trkpt lat="56.87155183124464" lon="60.74296822093941"><ele>272.0</ele><time>2026-04-24T17:08:20Z</time></trkpt><trkpt lat="56.87155730516632" lon="60.74281737862367"><ele>272.0</ele><time>2026-04-24T17:08:21Z</time></trkpt><trkpt lat="56.871567122759764" lon="60.74266896963316"><ele>272.0</ele><time>2026-04-24T17:08:22Z</time></trkpt><trkpt lat="56.87157622410762" lon="60.74253316936311"><ele>272.0</ele><time>2026-04-24T17:08:23Z</time></trkpt><trkpt lat="56.871581735054754" lon="60.74238641296701"><ele>272.0</ele><time>2026-04-24T17:08:24Z</time></trkpt><trkpt lat="56.87158523318355" lon="60.74224210617153"><ele>272.0</ele><time>2026-04-24T17:08:25Z</time></trkpt><trkpt lat="56.87158623504467" lon="60.74210559121487"><ele>272.0</ele><time>2026-04-24T17:08:26Z</time></trkpt><trkpt lat="56.87159095783333" lon="60.74198812205519"><ele>272.0</ele><time>2026-04-24T17:08:27Z</time></trkpt><trkpt lat="56.87161147518685" lon="60.74181094152362"><ele>272.0</ele><time>2026-04-24T17:08:29Z</time></trkpt><trkpt lat="56.87167247413969" lon="60.74175785133721"><ele>272.0</ele><time>2026-04-24T17:08:31Z</time></trkpt><trkpt lat="56.87178131197428" lon="60.74174977551149"><ele>272.0</ele><time>2026-04-24T17:08:33Z</time></trkpt><trkpt lat="56.87191288769305" lon="60.74172229513186"><ele>272.0</ele><time>2026-04-24T17:08:35Z</time></trkpt><trkpt lat="56.871998630023235" lon="60.74172784942185"><ele>272.4</ele><time>2026-04-24T17:08:36Z</time></trkpt><trkpt lat="56.872096048841044" lon="60.74173016206514"><ele>272.79999999999995</ele><time>2026-04-24T17:08:37Z</time></trkpt><trkpt lat="56.8722043790337" lon="60.74173016243297"><ele>273.2</ele><time>2026-04-24T17:08:38Z</time></trkpt><trkpt lat="56.872316814011036" lon="60.741728642688315"><ele>273.59999999999997</ele><time>2026-04-24T17:08:39Z</time></trkpt><trkpt lat="56.87243508907031" lon="60.741728302252724"><ele>274.0</ele><time>2026-04-24T17:08:39.999Z</time></trkpt><trkpt lat="56.8725565686572" lon="60.74172577221084"><ele>275.0</ele><time>2026-04-24T17:08:40.999Z</time></trkpt><trkpt lat="56.87268304292168" lon="60.74173142584008"><ele>276.0</ele><time>2026-04-24T17:08:42Z</time></trkpt><trkpt lat="56.87279921585584" lon="60.74173460131965"><ele>277.0</ele><time>2026-04-24T17:08:43Z</time></trkpt><trkpt lat="56.87291679769373" lon="60.74173936303431"><ele>278.0</ele><time>2026-04-24T17:08:44Z</time></trkpt><trkpt lat="56.87302508003316" lon="60.7417546034915"><ele>278.0</ele><time>2026-04-24T17:08:45Z</time></trkpt><trkpt lat="56.87315417664897" lon="60.7417721310878"><ele>278.0</ele><time>2026-04-24T17:08:46Z</time></trkpt><trkpt lat="56.873282320243426" lon="60.74178717714636"><ele>278.0</ele><time>2026-04-24T17:08:47Z</time></trkpt><trkpt lat="56.87341653712782" lon="60.741794309788304"><ele>278.0</ele><time>2026-04-24T17:08:48Z</time></trkpt><trkpt lat="56.873554557967346" lon="60.741812490597354"><ele>277.75</ele><time>2026-04-24T17:08:49Z</time></trkpt><trkpt lat="56.87368798263171" lon="60.74182017317447"><ele>277.5</ele><time>2026-04-24T17:08:50Z</time></trkpt><trkpt lat="56.873827984225116" lon="60.74182835186726"><ele>277.25</ele><time>2026-04-24T17:08:51Z</time></trkpt><trkpt lat="56.873972612174306" lon="60.74185249310757"><ele>277.0</ele><time>2026-04-24T17:08:52Z</time></trkpt><trkpt lat="56.87410845407351" lon="60.74187524383347"><ele>277.5</ele><time>2026-04-24T17:08:53Z</time></trkpt><trkpt lat="56.874248614985035" lon="60.74190600480384"><ele>278.0</ele><time>2026-04-24T17:08:54Z</time></trkpt><trkpt lat="56.87438572876904" lon="60.74193405157094"><ele>278.5</ele><time>2026-04-24T17:08:55Z</time></trkpt><trkpt lat="56.87452648663364" lon="60.741951785827425"><ele>279.0</ele><time>2026-04-24T17:08:56Z</time></trkpt><trkpt lat="56.87466364161136" lon="60.74196636827428"><ele>279.0</ele><time>2026-04-24T17:08:57Z</time></trkpt><trkpt lat="56.87478148134316" lon="60.74197986978399"><ele>279.0</ele><time>2026-04-24T17:08:58Z</time></trkpt><trkpt lat="56.87490411108186" lon="60.7420237365924"><ele>279.0</ele><time>2026-04-24T17:08:59Z</time></trkpt><trkpt lat="56.875040055316646" lon="60.7420532402088"><ele>279.0</ele><time>2026-04-24T17:09:00Z</time></trkpt><trkpt lat="56.87518066895549" lon="60.7420837571406"><ele>280.0</ele><time>2026-04-24T17:09:01Z</time></trkpt><trkpt lat="56.875331719560464" lon="60.74211603878855"><ele>281.0</ele><time>2026-04-24T17:09:02Z</time></trkpt><trkpt lat="56.87548114099947" lon="60.74211798385545"><ele>282.0</ele><time>2026-04-24T17:09:03Z</time></trkpt><trkpt lat="56.87563028604829" lon="60.74216136325579"><ele>282.0</ele><time>2026-04-24T17:09:04Z</time></trkpt><trkpt lat="56.87578322906972" lon="60.74220018853108"><ele>282.0</ele><time>2026-04-24T17:09:05Z</time></trkpt><trkpt lat="56.87594412698376" lon="60.74223562711317"><ele>282.0</ele><time>2026-04-24T17:09:06Z</time></trkpt><trkpt lat="56.8761091243078" lon="60.74226990663928"><ele>282.75</ele><time>2026-04-24T17:09:07Z</time></trkpt><trkpt lat="56.87626756500961" lon="60.74231556212838"><ele>283.5</ele><time>2026-04-24T17:09:08Z</time></trkpt><trkpt lat="56.87640519326581" lon="60.74234421603627"><ele>284.25</ele><time>2026-04-24T17:09:09Z</time></trkpt><trkpt lat="56.87654257089304" lon="60.74239809804069"><ele>285.0</ele><time>2026-04-24T17:09:10Z</time></trkpt><trkpt lat="56.87668936773872" lon="60.742415418866656"><ele>285.5</ele><time>2026-04-24T17:09:11Z</time></trkpt><trkpt lat="56.87683300364592" lon="60.742451504105865"><ele>286.0</ele><time>2026-04-24T17:09:12Z</time></trkpt><trkpt lat="56.87695514804857" lon="60.74246913973089"><ele>286.5</ele><time>2026-04-24T17:09:13Z</time></trkpt><trkpt lat="56.87707040303652" lon="60.74251994321698"><ele>287.0</ele><time>2026-04-24T17:09:14Z</time></trkpt><trkpt lat="56.87718511002581" lon="60.74252702185674"><ele>287.0</ele><time>2026-04-24T17:09:15Z</time></trkpt><trkpt lat="56.87732016716795" lon="60.742564898047284"><ele>287.0</ele><time>2026-04-24T17:09:16Z</time></trkpt><trkpt lat="56.87745561014253" lon="60.742610003287375"><ele>287.0</ele><time>2026-04-24T17:09:17Z</time></trkpt><trkpt lat="56.877580401472756" lon="60.74263917907173"><ele>287.0</ele><time>2026-04-24T17:09:18Z</time></trkpt><trkpt lat="56.87769795284547" lon="60.74263898316897"><ele>287.2</ele><time>2026-04-24T17:09:19Z</time></trkpt><trkpt lat="56.8777951103789" lon="60.74266215404791"><ele>287.4</ele><time>2026-04-24T17:09:20Z</time></trkpt><trkpt lat="56.877908268021024" lon="60.74271650112042"><ele>287.6</ele><time>2026-04-24T17:09:21Z</time></trkpt><trkpt lat="56.87801019426421" lon="60.742741158131935"><ele>287.8</ele><time>2026-04-24T17:09:22Z</time></trkpt><trkpt lat="56.87811200301787" lon="60.74272750227134"><ele>288.0</ele><time>2026-04-24T17:09:23Z</time></trkpt><trkpt lat="56.87821117187278" lon="60.742773812821085"><ele>288.0</ele><time>2026-04-24T17:09:24Z</time></trkpt><trkpt lat="56.878308837312105" lon="60.74279138538637"><ele>288.0</ele><time>2026-04-24T17:09:25Z</time></trkpt><trkpt lat="56.87839985441386" lon="60.74278217230648"><ele>288.0</ele><time>2026-04-24T17:09:26Z</time></trkpt><trkpt lat="56.87849062313906" lon="60.74282409339718"><ele>288.0</ele><time>2026-04-24T17:09:27Z</time></trkpt><trkpt lat="56.878604572153975" lon="60.74284459580973"><ele>288.0</ele><time>2026-04-24T17:09:28Z</time></trkpt><trkpt lat="56.878688291069395" lon="60.74285965903381"><ele>288.0</ele><time>2026-04-24T17:09:29Z</time></trkpt><trkpt lat="56.878783281440995" lon="60.7428581278008"><ele>288.0</ele><time>2026-04-24T17:09:30Z</time></trkpt><trkpt lat="56.87888953864815" lon="60.74287075903207"><ele>288.0</ele><time>2026-04-24T17:09:31Z</time></trkpt><trkpt lat="56.87898193532976" lon="60.7429124932901"><ele>288.0</ele><time>2026-04-24T17:09:32Z</time></trkpt><trkpt lat="56.87908094216931" lon="60.74292966715365"><ele>288.0</ele><time>2026-04-24T17:09:33Z</time></trkpt><trkpt lat="56.87919659255043" lon="60.74295064177538"><ele>288.5</ele><time>2026-04-24T17:09:34Z</time></trkpt><trkpt lat="56.87931999699911" lon="60.74297332267215"><ele>289.0</ele><time>2026-04-24T17:09:35Z</time></trkpt><trkpt lat="56.87945556364641" lon="60.742997488096606"><ele>289.5</ele><time>2026-04-24T17:09:36Z</time></trkpt><trkpt lat="56.87960870165414" lon="60.74302258922596"><ele>290.0</ele><time>2026-04-24T17:09:37Z</time></trkpt><trkpt lat="56.879769710638584" lon="60.74304964718044"><ele>290.0</ele><time>2026-04-24T17:09:38Z</time></trkpt><trkpt lat="56.879924695914355" lon="60.74307569288531"><ele>290.0</ele><time>2026-04-24T17:09:39Z</time></trkpt><trkpt lat="56.880082607881675" lon="60.7431017503553"><ele>290.0</ele><time>2026-04-24T17:09:40Z</time></trkpt><trkpt lat="56.88023041171532" lon="60.74310053313378"><ele>291.25</ele><time>2026-04-24T17:09:41Z</time></trkpt><trkpt lat="56.880377588352246" lon="60.743129469332374"><ele>292.5</ele><time>2026-04-24T17:09:42Z</time></trkpt><trkpt lat="56.88052236344399" lon="60.74316057645558"><ele>293.75</ele><time>2026-04-24T17:09:43Z</time></trkpt><trkpt lat="56.88067296691194" lon="60.74321015264473"><ele>295.0</ele><time>2026-04-24T17:09:44Z</time></trkpt><trkpt lat="56.88083387769984" lon="60.743237454635896"><ele>295.5</ele><time>2026-04-24T17:09:45Z</time></trkpt><trkpt lat="56.88097692105534" lon="60.74326693980708"><ele>296.0</ele><time>2026-04-24T17:09:46Z</time></trkpt><trkpt lat="56.881114534700714" lon="60.74329665358336"><ele>296.5</ele><time>2026-04-24T17:09:47Z</time></trkpt><trkpt lat="56.88124426077014" lon="60.74332954674068"><ele>297.0</ele><time>2026-04-24T17:09:48Z</time></trkpt><trkpt lat="56.88137248033764" lon="60.743339096457525"><ele>297.0</ele><time>2026-04-24T17:09:49Z</time></trkpt><trkpt lat="56.88151368260503" lon="60.74341276165031"><ele>297.0</ele><time>2026-04-24T17:09:50Z</time></trkpt><trkpt lat="56.88165092685349" lon="60.7434498330088"><ele>297.0</ele><time>2026-04-24T17:09:51Z</time></trkpt><trkpt lat="56.88178036889116" lon="60.74348203431931"><ele>297.0</ele><time>2026-04-24T17:09:52Z</time></trkpt><trkpt lat="56.881899285818974" lon="60.7435190107686"><ele>297.5</ele><time>2026-04-24T17:09:53Z</time></trkpt><trkpt lat="56.88202162254402" lon="60.743565982946635"><ele>298.0</ele><time>2026-04-24T17:09:54Z</time></trkpt><trkpt lat="56.8821402798774" lon="60.7436049895052"><ele>298.5</ele><time>2026-04-24T17:09:55Z</time></trkpt><trkpt lat="56.88225940400934" lon="60.7436533602473"><ele>299.0</ele><time>2026-04-24T17:09:56Z</time></trkpt><trkpt lat="56.882364529064816" lon="60.74369798543693"><ele>299.0</ele><time>2026-04-24T17:09:57Z</time></trkpt><trkpt lat="56.88247843411695" lon="60.74374983930138"><ele>299.0</ele><time>2026-04-24T17:09:58Z</time></trkpt><trkpt lat="56.882593571280275" lon="60.74379278468209"><ele>299.0</ele><time>2026-04-24T17:09:59Z</time></trkpt><trkpt lat="56.882725251905875" lon="60.743840063387495"><ele>299.0</ele><time>2026-04-24T17:10:00Z</time></trkpt><trkpt lat="56.882853608408126" lon="60.743878734712546"><ele>298.5</ele><time>2026-04-24T17:10:01Z</time></trkpt><trkpt lat="56.882975573586215" lon="60.743912247477375"><ele>298.0</ele><time>2026-04-24T17:10:02Z</time></trkpt><trkpt lat="56.88310245484232" lon="60.74394573164258"><ele>297.5</ele><time>2026-04-24T17:10:03Z</time></trkpt><trkpt lat="56.88324772688337" lon="60.74399731610104"><ele>297.0</ele><time>2026-04-24T17:10:04Z</time></trkpt><trkpt lat="56.88337254111768" lon="60.74404522621506"><ele>297.4</ele><time>2026-04-24T17:10:05Z</time></trkpt><trkpt lat="56.8834863004281" lon="60.744091545381856"><ele>297.79999999999995</ele><time>2026-04-24T17:10:06Z</time></trkpt><trkpt lat="56.88359484804413" lon="60.744137348004"><ele>298.2</ele><time>2026-04-24T17:10:07Z</time></trkpt><trkpt lat="56.883695130325336" lon="60.744167662132796"><ele>298.59999999999997</ele><time>2026-04-24T17:10:08Z</time></trkpt><trkpt lat="56.883807018957" lon="60.74419227936055"><ele>299.0</ele><time>2026-04-24T17:10:09Z</time></trkpt><trkpt lat="56.883919995755264" lon="60.74423135176624"><ele>299.0</ele><time>2026-04-24T17:10:10Z</time></trkpt><trkpt lat="56.884031413925314" lon="60.74430382375125"><ele>299.0</ele><time>2026-04-24T17:10:11Z</time></trkpt><trkpt lat="56.884146840974495" lon="60.74434731270391"><ele>299.0</ele><time>2026-04-24T17:10:12Z</time></trkpt><trkpt lat="56.88427158230961" lon="60.744356476964036"><ele>299.0</ele><time>2026-04-24T17:10:13Z</time></trkpt><trkpt lat="56.88440178489406" lon="60.74440839822823"><ele>299.25</ele><time>2026-04-24T17:10:14Z</time></trkpt><trkpt lat="56.88452691943891" lon="60.74445237509275"><ele>299.5</ele><time>2026-04-24T17:10:15Z</time></trkpt><trkpt lat="56.88465264381716" lon="60.74449803411156"><ele>299.75</ele><time>2026-04-24T17:10:16Z</time></trkpt><trkpt lat="56.8847768182396" lon="60.74453813099175"><ele>300.0</ele><time>2026-04-24T17:10:17Z</time></trkpt><trkpt lat="56.88490194365384" lon="60.74458199750186"><ele>300.0</ele><time>2026-04-24T17:10:18Z</time></trkpt><trkpt lat="56.88502156809609" lon="60.744633948449774"><ele>300.0</ele><time>2026-04-24T17:10:19Z</time></trkpt><trkpt lat="56.88512627841297" lon="60.74468396752814"><ele>300.0</ele><time>2026-04-24T17:10:20Z</time></trkpt><trkpt lat="56.88523246137103" lon="60.744727698151074"><ele>300.0</ele><time>2026-04-24T17:10:21Z</time></trkpt><trkpt lat="56.88534830809425" lon="60.74477935943668"><ele>299.5</ele><time>2026-04-24T17:10:22Z</time></trkpt><trkpt lat="56.885471144356686" lon="60.7448243266997"><ele>299.0</ele><time>2026-04-24T17:10:23Z</time></trkpt><trkpt lat="56.88558566174147" lon="60.74485967281824"><ele>298.5</ele><time>2026-04-24T17:10:24Z</time></trkpt><trkpt lat="56.88569216711897" lon="60.744883242912024"><ele>298.0</ele><time>2026-04-24T17:10:25Z</time></trkpt><trkpt lat="56.885796833049596" lon="60.74491486926862"><ele>298.0</ele><time>2026-04-24T17:10:26Z</time></trkpt><trkpt lat="56.885907067119646" lon="60.74496985445084"><ele>298.0</ele><time>2026-04-24T17:10:27Z</time></trkpt><trkpt lat="56.88601299891052" lon="60.74502074587594"><ele>298.0</ele><time>2026-04-24T17:10:28Z</time></trkpt><trkpt lat="56.88611090482471" lon="60.74504849820988"><ele>298.0</ele><time>2026-04-24T17:10:29Z</time></trkpt><trkpt lat="56.8862028753985" lon="60.74507881719917"><ele>298.0</ele><time>2026-04-24T17:10:30Z</time></trkpt><trkpt lat="56.88631066929905" lon="60.7451230020549"><ele>298.0</ele><time>2026-04-24T17:10:31Z</time></trkpt><trkpt lat="56.88641853306157" lon="60.745180779246375"><ele>298.0</ele><time>2026-04-24T17:10:32Z</time></trkpt><trkpt lat="56.88653412192902" lon="60.74523842948574"><ele>298.0</ele><time>2026-04-24T17:10:33Z</time></trkpt><trkpt lat="56.886670775416846" lon="60.74528987127578"><ele>298.0</ele><time>2026-04-24T17:10:34Z</time></trkpt><trkpt lat="56.8868113602311" lon="60.74533982737601"><ele>297.3333333333333</ele><time>2026-04-24T17:10:35Z</time></trkpt><trkpt lat="56.886959814718544" lon="60.74539457152002"><ele>296.6666666666667</ele><time>2026-04-24T17:10:36Z</time></trkpt><trkpt lat="56.88711438349823" lon="60.745442522674914"><ele>296.0</ele><time>2026-04-24T17:10:37Z</time></trkpt><trkpt lat="56.88727202431521" lon="60.74549827548244"><ele>296.0</ele><time>2026-04-24T17:10:38Z</time></trkpt><trkpt lat="56.887398073705896" lon="60.74554861853732"><ele>296.0</ele><time>2026-04-24T17:10:39Z</time></trkpt><trkpt lat="56.8875127619723" lon="60.74559455951261"><ele>296.0</ele><time>2026-04-24T17:10:40Z</time></trkpt><trkpt lat="56.88763740277612" lon="60.74563730940184"><ele>296.0</ele><time>2026-04-24T17:10:41Z</time></trkpt><trkpt lat="56.88776225305404" lon="60.74568278465688"><ele>295.25</ele><time>2026-04-24T17:10:42Z</time></trkpt><trkpt lat="56.88788015926091" lon="60.745724911543924"><ele>294.5</ele><time>2026-04-24T17:10:43Z</time></trkpt><trkpt lat="56.887995056563746" lon="60.745768845355585"><ele>293.75</ele><time>2026-04-24T17:10:44Z</time></trkpt><trkpt lat="56.888108699615096" lon="60.7458126929086"><ele>293.0</ele><time>2026-04-24T17:10:45Z</time></trkpt><trkpt lat="56.88821866821011" lon="60.74588358345637"><ele>293.0</ele><time>2026-04-24T17:10:46Z</time></trkpt><trkpt lat="56.888318600103645" lon="60.74592084777174"><ele>293.0</ele><time>2026-04-24T17:10:47Z</time></trkpt><trkpt lat="56.888416618243134" lon="60.745927764657786"><ele>293.0</ele><time>2026-04-24T17:10:48Z</time></trkpt><trkpt lat="56.88850047628909" lon="60.745958828866705"><ele>293.0</ele><time>2026-04-24T17:10:49Z</time></trkpt><trkpt lat="56.88858786609677" lon="60.745993462315546"><ele>293.0</ele><time>2026-04-24T17:10:50Z</time></trkpt><trkpt lat="56.888667486858296" lon="60.74602602751635"><ele>292.8</ele><time>2026-04-24T17:10:51Z</time></trkpt><trkpt lat="56.88873988962607" lon="60.74605024688166"><ele>292.6</ele><time>2026-04-24T17:10:52Z</time></trkpt><trkpt lat="56.88884851948438" lon="60.746089033588376"><ele>292.4</ele><time>2026-04-24T17:10:54Z</time></trkpt><trkpt lat="56.88895864056459" lon="60.74612840844048"><ele>292.2</ele><time>2026-04-24T17:10:56Z</time></trkpt><trkpt lat="56.889070894427064" lon="60.746151108168654"><ele>292.0</ele><time>2026-04-24T17:10:58Z</time></trkpt><trkpt lat="56.88919222743173" lon="60.746166832421025"><ele>291.0</ele><time>2026-04-24T17:11:00Z</time></trkpt><trkpt lat="56.88931843355109" lon="60.74616981943545"><ele>290.0</ele><time>2026-04-24T17:11:02Z</time></trkpt><trkpt lat="56.889441604865965" lon="60.74615333173484"><ele>289.0</ele><time>2026-04-24T17:11:04Z</time></trkpt><trkpt lat="56.88954075117148" lon="60.74612571751494"><ele>288.0</ele><time>2026-04-24T17:11:06Z</time></trkpt><trkpt lat="56.88963242454069" lon="60.74608023935804"><ele>287.0</ele><time>2026-04-24T17:11:08Z</time></trkpt><trkpt lat="56.889741429167216" lon="60.74601553543996"><ele>287.0</ele><time>2026-04-24T17:11:10Z</time></trkpt><trkpt lat="56.889823096903406" lon="60.74595607520671"><ele>287.0</ele><time>2026-04-24T17:11:12Z</time></trkpt><trkpt lat="56.889892937192606" lon="60.74589038198212"><ele>287.0</ele><time>2026-04-24T17:11:14.001Z</time></trkpt><trkpt lat="56.889967720136916" lon="60.74582674308655"><ele>287.0</ele><time>2026-04-24T17:11:16.001Z</time></trkpt><trkpt lat="56.890033638248354" lon="60.745763966198304"><ele>287.0</ele><time>2026-04-24T17:11:18.001Z</time></trkpt><trkpt lat="56.89011512666634" lon="60.74571013905011"><ele>287.0</ele><time>2026-04-24T17:11:20.001Z</time></trkpt><trkpt lat="56.89018634621892" lon="60.74565072618298"><ele>286.6666666666667</ele><time>2026-04-24T17:11:22.001Z</time></trkpt><trkpt lat="56.8902555405729" lon="60.74561924382765"><ele>286.33333333333337</ele><time>2026-04-24T17:11:24.001Z</time></trkpt><trkpt lat="56.89031848467382" lon="60.74560379850684"><ele>286.0</ele><time>2026-04-24T17:11:28.001Z</time></trkpt><trkpt lat="56.8903817104084" lon="60.745580074686366"><ele>285.6666666666667</ele><time>2026-04-24T17:11:45.001Z</time></trkpt><trkpt lat="56.890456066997096" lon="60.745464934314924"><ele>285.3333333333333</ele><time>2026-04-24T17:11:47.001Z</time></trkpt><trkpt lat="56.89055579747661" lon="60.745341847871316"><ele>285.0</ele><time>2026-04-24T17:11:49.001Z</time></trkpt><trkpt lat="56.890636973622016" lon="60.74525319249303"><ele>285.3333333333333</ele><time>2026-04-24T17:11:51.001Z</time></trkpt><trkpt lat="56.89069111348514" lon="60.74517696016495"><ele>285.6666666666667</ele><time>2026-04-24T17:11:53.001Z</time></trkpt><trkpt lat="56.89075436584222" lon="60.74511864807728"><ele>286.0</ele><time>2026-04-24T17:11:56.001Z</time></trkpt><trkpt lat="56.89081595914931" lon="60.74504311198759"><ele>286.33333333333337</ele><time>2026-04-24T17:11:59.001Z</time></trkpt><trkpt lat="56.89087780530165" lon="60.7449817271859"><ele>286.6666666666667</ele><time>2026-04-24T17:12:03.001Z</time></trkpt><trkpt lat="56.89094264449473" lon="60.7449689432088"><ele>287.0</ele><time>2026-04-24T17:12:40Z</time></trkpt><trkpt lat="56.89101949104758" lon="60.74483068022663"><ele>286.1666666666667</ele><time>2026-04-24T17:12:42Z</time></trkpt><trkpt lat="56.891123941932996" lon="60.7447126054414"><ele>285.33333333333337</ele><time>2026-04-24T17:12:44Z</time></trkpt><trkpt lat="56.89118385184606" lon="60.744647168684054"><ele>284.5</ele><time>2026-04-24T17:12:45Z</time></trkpt><trkpt lat="56.89124338758668" lon="60.74459460620404"><ele>283.6666666666667</ele><time>2026-04-24T17:12:46Z</time></trkpt><trkpt lat="56.89129598294152" lon="60.744527493457404"><ele>282.8333333333333</ele><time>2026-04-24T17:12:47Z</time></trkpt><trkpt lat="56.89138726107593" lon="60.74440030524355"><ele>282.0</ele><time>2026-04-24T17:12:49Z</time></trkpt><trkpt lat="56.89147270086552" lon="60.7442712748955"><ele>281.6666666666667</ele><time>2026-04-24T17:12:51Z</time></trkpt><trkpt lat="56.89153207030742" lon="60.744195950178245"><ele>281.3333333333333</ele><time>2026-04-24T17:12:52Z</time></trkpt><trkpt lat="56.89161505864364" lon="60.74408089323191"><ele>281.0</ele><time>2026-04-24T17:12:54Z</time></trkpt><trkpt lat="56.8916716307792" lon="60.744016165885455"><ele>280.66666666666663</ele><time>2026-04-24T17:12:55Z</time></trkpt><trkpt lat="56.89173022659052" lon="60.743952409250085"><ele>280.3333333333333</ele><time>2026-04-24T17:12:56Z</time></trkpt><trkpt lat="56.891788477380445" lon="60.74388101378303"><ele>280.0</ele><time>2026-04-24T17:12:57Z</time></trkpt><trkpt lat="56.891850113063434" lon="60.74381998072343"><ele>279.66666666666663</ele><time>2026-04-24T17:12:58Z</time></trkpt><trkpt lat="56.89192763361847" lon="60.74374591313375"><ele>279.3333333333333</ele><time>2026-04-24T17:12:59Z</time></trkpt><trkpt lat="56.89200332607979" lon="60.74366922708167"><ele>279.0</ele><time>2026-04-24T17:13:00Z</time></trkpt><trkpt lat="56.89208120218053" lon="60.74359815090777"><ele>278.6666666666667</ele><time>2026-04-24T17:13:01Z</time></trkpt><trkpt lat="56.89214946219897" lon="60.743528380821225"><ele>278.33333333333337</ele><time>2026-04-24T17:13:02Z</time></trkpt><trkpt lat="56.89221375310581" lon="60.743453723345404"><ele>278.0</ele><time>2026-04-24T17:13:03Z</time></trkpt><trkpt lat="56.89228054781307" lon="60.74337429808517"><ele>277.8</ele><time>2026-04-24T17:13:04Z</time></trkpt><trkpt lat="56.89235975219532" lon="60.743286591468326"><ele>277.6</ele><time>2026-04-24T17:13:05Z</time></trkpt><trkpt lat="56.89244585586391" lon="60.74319210384536"><ele>277.4</ele><time>2026-04-24T17:13:06Z</time></trkpt><trkpt lat="56.89253633753616" lon="60.743101203822356"><ele>277.2</ele><time>2026-04-24T17:13:07Z</time></trkpt><trkpt lat="56.89262331340016" lon="60.74301560090224"><ele>277.0</ele><time>2026-04-24T17:13:08Z</time></trkpt><trkpt lat="56.892703520283185" lon="60.74292329251507"><ele>276.4</ele><time>2026-04-24T17:13:09Z</time></trkpt><trkpt lat="56.8927860771342" lon="60.74283418877342"><ele>275.79999999999995</ele><time>2026-04-24T17:13:10Z</time></trkpt><trkpt lat="56.89286560931822" lon="60.742747130518836"><ele>275.2</ele><time>2026-04-24T17:13:11Z</time></trkpt><trkpt lat="56.892950185558846" lon="60.742653107565374"><ele>274.59999999999997</ele><time>2026-04-24T17:13:12Z</time></trkpt><trkpt lat="56.89304001945629" lon="60.742560209839276"><ele>274.0</ele><time>2026-04-24T17:13:13Z</time></trkpt><trkpt lat="56.89312629430464" lon="60.742467537267615"><ele>274.0</ele><time>2026-04-24T17:13:14Z</time></trkpt><trkpt lat="56.893208117287884" lon="60.74237349691273"><ele>274.0</ele><time>2026-04-24T17:13:15Z</time></trkpt><trkpt lat="56.893297253044025" lon="60.7422736420285"><ele>274.0</ele><time>2026-04-24T17:13:16Z</time></trkpt><trkpt lat="56.89338277659419" lon="60.742178425199356"><ele>274.0</ele><time>2026-04-24T17:13:17Z</time></trkpt><trkpt lat="56.89345394151579" lon="60.742085234833546"><ele>274.0</ele><time>2026-04-24T17:13:18Z</time></trkpt><trkpt lat="56.893538445734094" lon="60.74203348089545"><ele>274.0</ele><time>2026-04-24T17:13:19Z</time></trkpt><trkpt lat="56.89360947509527" lon="60.74195378159767"><ele>274.0</ele><time>2026-04-24T17:13:20Z</time></trkpt><trkpt lat="56.893676615598714" lon="60.7418784458608"><ele>274.0</ele><time>2026-04-24T17:13:21Z</time></trkpt><trkpt lat="56.89374947260607" lon="60.74179669592213"><ele>274.0</ele><time>2026-04-24T17:13:22Z</time></trkpt><trkpt lat="56.893824635526585" lon="60.741712358321465"><ele>274.0</ele><time>2026-04-24T17:13:23Z</time></trkpt><trkpt lat="56.89390122146822" lon="60.74162642434576"><ele>274.0</ele><time>2026-04-24T17:13:24Z</time></trkpt><trkpt lat="56.8939728000774" lon="60.741510573173635"><ele>274.0</ele><time>2026-04-24T17:13:25Z</time></trkpt><trkpt lat="56.89405289844494" lon="60.74142164837001"><ele>274.0</ele><time>2026-04-24T17:13:26Z</time></trkpt><trkpt lat="56.89412904311574" lon="60.741336262817214"><ele>274.0</ele><time>2026-04-24T17:13:27Z</time></trkpt><trkpt lat="56.89420868455646" lon="60.741256466980424"><ele>274.0</ele><time>2026-04-24T17:13:28Z</time></trkpt><trkpt lat="56.894289334061064" lon="60.74117752737114"><ele>274.0</ele><time>2026-04-24T17:13:29Z</time></trkpt><trkpt lat="56.89436684496615" lon="60.741106535280146"><ele>274.16666666666663</ele><time>2026-04-24T17:13:30Z</time></trkpt><trkpt lat="56.89444000023858" lon="60.74103011584283"><ele>274.3333333333333</ele><time>2026-04-24T17:13:31Z</time></trkpt><trkpt lat="56.89451361658059" lon="60.74094842660924"><ele>274.5</ele><time>2026-04-24T17:13:32Z</time></trkpt><trkpt lat="56.89459391464506" lon="60.74087577549251"><ele>274.6666666666667</ele><time>2026-04-24T17:13:33Z</time></trkpt><trkpt lat="56.89466838173057" lon="60.740778724538856"><ele>274.83333333333337</ele><time>2026-04-24T17:13:34Z</time></trkpt><trkpt lat="56.89473668606036" lon="60.74069223672125"><ele>275.0</ele><time>2026-04-24T17:13:35Z</time></trkpt><trkpt lat="56.8948044382937" lon="60.74061416863501"><ele>275.0</ele><time>2026-04-24T17:13:36Z</time></trkpt><trkpt lat="56.894867069924075" lon="60.74054120679256"><ele>275.0</ele><time>2026-04-24T17:13:37Z</time></trkpt><trkpt lat="56.894932313012504" lon="60.74046459573617"><ele>275.0</ele><time>2026-04-24T17:13:38Z</time></trkpt><trkpt lat="56.89500682562295" lon="60.74037510786384"><ele>275.0</ele><time>2026-04-24T17:13:39Z</time></trkpt><trkpt lat="56.89508611344149" lon="60.74028648368199"><ele>275.0</ele><time>2026-04-24T17:13:40Z</time></trkpt><trkpt lat="56.895171648639156" lon="60.740197252207366"><ele>275.0</ele><time>2026-04-24T17:13:41Z</time></trkpt><trkpt lat="56.89525257279158" lon="60.740105583586875"><ele>275.0</ele><time>2026-04-24T17:13:42Z</time></trkpt><trkpt lat="56.89532984561393" lon="60.74000900160878"><ele>275.0</ele><time>2026-04-24T17:13:43Z</time></trkpt><trkpt lat="56.89541278453706" lon="60.73991405021726"><ele>275.0</ele><time>2026-04-24T17:13:44Z</time></trkpt><trkpt lat="56.895492249360316" lon="60.73982426733532"><ele>275.0</ele><time>2026-04-24T17:13:45Z</time></trkpt><trkpt lat="56.895566781755974" lon="60.73974909362784"><ele>275.0</ele><time>2026-04-24T17:13:46Z</time></trkpt><trkpt lat="56.89563576018505" lon="60.739671624211965"><ele>275.0</ele><time>2026-04-24T17:13:47Z</time></trkpt><trkpt lat="56.89570067625169" lon="60.73959128497686"><ele>275.0</ele><time>2026-04-24T17:13:48Z</time></trkpt><trkpt lat="56.89576597452968" lon="60.73951089613945"><ele>275.0</ele><time>2026-04-24T17:13:49Z</time></trkpt><trkpt lat="56.89584275644126" lon="60.739458575183"><ele>275.0</ele><time>2026-04-24T17:13:50Z</time></trkpt><trkpt lat="56.895915378404396" lon="60.73937770910826"><ele>275.0</ele><time>2026-04-24T17:13:51Z</time></trkpt><trkpt lat="56.895991926304255" lon="60.73929246921431"><ele>275.0</ele><time>2026-04-24T17:13:52Z</time></trkpt><trkpt lat="56.89606762546188" lon="60.73920812796042"><ele>275.1666666666667</ele><time>2026-04-24T17:13:53Z</time></trkpt><trkpt lat="56.89614343662827" lon="60.73912366197823"><ele>275.33333333333337</ele><time>2026-04-24T17:13:54Z</time></trkpt><trkpt lat="56.89621364309637" lon="60.73904553400716"><ele>275.5</ele><time>2026-04-24T17:13:55Z</time></trkpt><trkpt lat="56.89628081550749" lon="60.73897081140932"><ele>275.6666666666667</ele><time>2026-04-24T17:13:56Z</time></trkpt><trkpt lat="56.89634188062756" lon="60.738902882565675"><ele>275.8333333333333</ele><time>2026-04-24T17:13:57Z</time></trkpt><trkpt lat="56.89639593505427" lon="60.738842752418755"><ele>276.0</ele><time>2026-04-24T17:13:58Z</time></trkpt><trkpt lat="56.896499685427116" lon="60.738727340535426"><ele>276.0</ele><time>2026-04-24T17:14:00Z</time></trkpt><trkpt lat="56.896598223589386" lon="60.73861772672448"><ele>276.0</ele><time>2026-04-24T17:14:02Z</time></trkpt><trkpt lat="56.89668052201115" lon="60.738518259240884"><ele>276.0</ele><time>2026-04-24T17:14:04Z</time></trkpt><trkpt lat="56.89666212122377" lon="60.73837623804241"><ele>276.0</ele><time>2026-04-24T17:14:05Z</time></trkpt><trkpt lat="56.89661288300886" lon="60.738165707233605"><ele>276.0</ele><time>2026-04-24T17:14:07Z</time></trkpt><trkpt lat="56.89657142889604" lon="60.73803474981579"><ele>275.8</ele><time>2026-04-24T17:14:08Z</time></trkpt><trkpt lat="56.89651289909553" lon="60.73788671469538"><ele>275.6</ele><time>2026-04-24T17:14:09Z</time></trkpt><trkpt lat="56.89645076004136" lon="60.73771832222439"><ele>275.4</ele><time>2026-04-24T17:14:10Z</time></trkpt><trkpt lat="56.89638408383388" lon="60.73754361538261"><ele>275.2</ele><time>2026-04-24T17:14:11Z</time></trkpt><trkpt lat="56.89632608253464" lon="60.737364933988104"><ele>275.0</ele><time>2026-04-24T17:14:12Z</time></trkpt><trkpt lat="56.896277235324945" lon="60.73719425123497"><ele>275.4</ele><time>2026-04-24T17:14:13Z</time></trkpt><trkpt lat="56.896229693530564" lon="60.737036371478794"><ele>275.8</ele><time>2026-04-24T17:14:14Z</time></trkpt><trkpt lat="56.89617467009161" lon="60.73688860518638"><ele>276.2</ele><time>2026-04-24T17:14:15Z</time></trkpt><trkpt lat="56.896129643947525" lon="60.73673151406639"><ele>276.6</ele><time>2026-04-24T17:14:16Z</time></trkpt><trkpt lat="56.89608474141207" lon="60.73659755848436"><ele>277.0</ele><time>2026-04-24T17:14:17Z</time></trkpt><trkpt lat="56.896040618202086" lon="60.73646331919859"><ele>277.0</ele><time>2026-04-24T17:14:18Z</time></trkpt><trkpt lat="56.896000545229676" lon="60.736333665752944"><ele>277.0</ele><time>2026-04-24T17:14:19Z</time></trkpt><trkpt lat="56.89595688049921" lon="60.73620869874146"><ele>277.0</ele><time>2026-04-24T17:14:20Z</time></trkpt><trkpt lat="56.895920389206985" lon="60.73607619351748"><ele>277.0</ele><time>2026-04-24T17:14:21Z</time></trkpt><trkpt lat="56.89587700595508" lon="60.73594466838011"><ele>277.0</ele><time>2026-04-24T17:14:22Z</time></trkpt><trkpt lat="56.89583415281396" lon="60.735818400835065"><ele>277.0</ele><time>2026-04-24T17:14:23Z</time></trkpt><trkpt lat="56.89578235279915" lon="60.735719281977055"><ele>276.7142857142857</ele><time>2026-04-24T17:14:24Z</time></trkpt><trkpt lat="56.895747205391984" lon="60.735614968608424"><ele>276.4285714285714</ele><time>2026-04-24T17:14:25Z</time></trkpt><trkpt lat="56.8957115279612" lon="60.73550913420971"><ele>276.1428571428571</ele><time>2026-04-24T17:14:26Z</time></trkpt><trkpt lat="56.895665851818634" lon="60.73541242905678"><ele>275.85714285714283</ele><time>2026-04-24T17:14:27Z</time></trkpt><trkpt lat="56.89562065006349" lon="60.73531458228574"><ele>275.57142857142856</ele><time>2026-04-24T17:14:28Z</time></trkpt><trkpt lat="56.89558386574043" lon="60.73521071041862"><ele>275.2857142857143</ele><time>2026-04-24T17:14:29Z</time></trkpt><trkpt lat="56.89554916110272" lon="60.73511075698972"><ele>275.0</ele><time>2026-04-24T17:14:30Z</time></trkpt><trkpt lat="56.895513400479956" lon="60.73501286790121"><ele>275.0</ele><time>2026-04-24T17:14:31Z</time></trkpt><trkpt lat="56.8954758689136" lon="60.73491609573407"><ele>275.0</ele><time>2026-04-24T17:14:32Z</time></trkpt><trkpt lat="56.89545534693663" lon="60.73480544263317"><ele>275.0</ele><time>2026-04-24T17:14:33Z</time></trkpt><trkpt lat="56.89542113800352" lon="60.73470369775124"><ele>275.0</ele><time>2026-04-24T17:14:34Z</time></trkpt><trkpt lat="56.8953603543103" lon="60.73452291316159"><ele>275.0</ele><time>2026-04-24T17:14:36Z</time></trkpt><trkpt lat="56.895306963854935" lon="60.73436411803745"><ele>275.0</ele><time>2026-04-24T17:14:38Z</time></trkpt><trkpt lat="56.89524325867612" lon="60.73417464428153"><ele>275.0</ele><time>2026-04-24T17:14:40Z</time></trkpt><trkpt lat="56.89519435530909" lon="60.73407647760071"><ele>275.0</ele><time>2026-04-24T17:14:41Z</time></trkpt><trkpt lat="56.895157000104355" lon="60.73395695613708"><ele>275.0</ele><time>2026-04-24T17:14:42Z</time></trkpt><trkpt lat="56.89511968810637" lon="60.73385498429592"><ele>275.0</ele><time>2026-04-24T17:14:43Z</time></trkpt><trkpt lat="56.89507992190476" lon="60.73368890782879"><ele>275.0</ele><time>2026-04-24T17:14:45Z</time></trkpt><trkpt lat="56.89503605770382" lon="60.733558291013296"><ele>275.0</ele><time>2026-04-24T17:14:48Z</time></trkpt><trkpt lat="56.894859338904524" lon="60.73334521007725"><ele>275.0</ele><time>2026-04-24T17:14:50Z</time></trkpt><trkpt lat="56.89478617840502" lon="60.733438274586135"><ele>275.0</ele><time>2026-04-24T17:14:52Z</time></trkpt><trkpt lat="56.89471063587154" lon="60.733534368643035"><ele>275.0</ele><time>2026-04-24T17:14:54Z</time></trkpt><trkpt lat="56.894642765402004" lon="60.73362070384199"><ele>275.0</ele><time>2026-04-24T17:14:56.001Z</time></trkpt><trkpt lat="56.89460987205417" lon="60.7337614830416"><ele>275.0</ele><time>2026-04-24T17:14:58.001Z</time></trkpt><trkpt lat="56.894528691395664" lon="60.733734966132104"><ele>275.0</ele><time>2026-04-24T17:15:01.001Z</time></trkpt><trkpt lat="56.89451198237863" lon="60.73354247835355"><ele>275.33333333333337</ele><time>2026-04-24T17:15:04.001Z</time></trkpt><trkpt lat="56.89453845632919" lon="60.733419459708756"><ele>275.6666666666667</ele><time>2026-04-24T17:15:09.001Z</time></trkpt><trkpt lat="56.89448420746976" lon="60.73329228062314"><ele>276.0</ele><time>2026-04-24T17:15:12.001Z</time></trkpt><trkpt lat="56.894441108863525" lon="60.733178047681804"><ele>276.3333333333333</ele><time>2026-04-24T17:15:14.001Z</time></trkpt><trkpt lat="56.894394072775356" lon="60.73306315009965"><ele>276.66666666666663</ele><time>2026-04-24T17:15:16.001Z</time></trkpt><trkpt lat="56.89433536978294" lon="60.733018903278136"><ele>277.0</ele><time>2026-04-24T17:15:18.001Z</time></trkpt><trkpt lat="56.894267922028796" lon="60.732961311815075"><ele>277.6</ele><time>2026-04-24T17:15:21.001Z</time></trkpt><trkpt lat="56.894212606464" lon="60.73290065637146"><ele>278.2</ele><time>2026-04-24T17:15:23.001Z</time></trkpt><trkpt lat="56.89411417410023" lon="60.732833956326594"><ele>278.8</ele><time>2026-04-24T17:15:25.001Z</time></trkpt><trkpt lat="56.894020726255306" lon="60.73276533425764"><ele>279.4</ele><time>2026-04-24T17:15:27.001Z</time></trkpt><trkpt lat="56.89391754374124" lon="60.73265952987842"><ele>280.0</ele><time>2026-04-24T17:15:29.001Z</time></trkpt><trkpt lat="56.893823359354855" lon="60.73255688773535"><ele>281.0</ele><time>2026-04-24T17:15:31.001Z</time></trkpt><trkpt lat="56.89375382452067" lon="60.73246570974007"><ele>282.0</ele><time>2026-04-24T17:15:33.001Z</time></trkpt><trkpt lat="56.89369765239777" lon="60.73240412004905"><ele>283.0</ele><time>2026-04-24T17:15:34.001Z</time></trkpt><trkpt lat="56.89362103090498" lon="60.73235064952462"><ele>284.0</ele><time>2026-04-24T17:15:35.001Z</time></trkpt><trkpt lat="56.893538327219005" lon="60.7323011230921"><ele>285.0</ele><time>2026-04-24T17:15:36.001Z</time></trkpt><trkpt lat="56.89347417496885" lon="60.73226038738624"><ele>286.0</ele><time>2026-04-24T17:15:37.001Z</time></trkpt><trkpt lat="56.893404320469564" lon="60.732240629040135"><ele>286.3333333333333</ele><time>2026-04-24T17:15:38.001Z</time></trkpt><trkpt lat="56.89333404989327" lon="60.732236574902736"><ele>286.66666666666663</ele><time>2026-04-24T17:15:39.001Z</time></trkpt><trkpt lat="56.89324671217815" lon="60.7322107892153"><ele>287.0</ele><time>2026-04-24T17:15:41.001Z</time></trkpt><trkpt lat="56.89314601144453" lon="60.73216646510386"><ele>287.3333333333333</ele><time>2026-04-24T17:15:43.001Z</time></trkpt><trkpt lat="56.893054579977935" lon="60.73209661686485"><ele>287.6666666666667</ele><time>2026-04-24T17:15:45.001Z</time></trkpt><trkpt lat="56.89297910422803" lon="60.73205217439468"><ele>288.0</ele><time>2026-04-24T17:15:47Z</time></trkpt><trkpt lat="56.892889326766436" lon="60.731976595610824"><ele>288.0</ele><time>2026-04-24T17:15:49Z</time></trkpt><trkpt lat="56.892809177977" lon="60.7318943809651"><ele>288.0</ele><time>2026-04-24T17:15:52Z</time></trkpt><trkpt lat="56.892723368791096" lon="60.73187250697775"><ele>288.0</ele><time>2026-04-24T17:15:54Z</time></trkpt><trkpt lat="56.89263406802682" lon="60.73179947774196"><ele>288.0</ele><time>2026-04-24T17:15:56Z</time></trkpt><trkpt lat="56.892561768482" lon="60.73171655447297"><ele>288.0</ele><time>2026-04-24T17:15:58Z</time></trkpt><trkpt lat="56.89247890800539" lon="60.73165647825977"><ele>288.2</ele><time>2026-04-24T17:16:00Z</time></trkpt><trkpt lat="56.89237241264087" lon="60.73157024700936"><ele>288.4</ele><time>2026-04-24T17:16:02Z</time></trkpt><trkpt lat="56.892261608993714" lon="60.731478969337964"><ele>288.59999999999997</ele><time>2026-04-24T17:16:04Z</time></trkpt><trkpt lat="56.89219979723796" lon="60.73143029133448"><ele>288.8</ele><time>2026-04-24T17:16:05Z</time></trkpt><trkpt lat="56.89208423266406" lon="60.73134103559872"><ele>289.0</ele><time>2026-04-24T17:16:07Z</time></trkpt><trkpt lat="56.89202406412902" lon="60.7312694363795"><ele>289.0</ele><time>2026-04-24T17:16:08Z</time></trkpt><trkpt lat="56.89193876429509" lon="60.731210170415025"><ele>289.0</ele><time>2026-04-24T17:16:09Z</time></trkpt><trkpt lat="56.89185961612654" lon="60.73116542911521"><ele>289.0</ele><time>2026-04-24T17:16:10Z</time></trkpt><trkpt lat="56.891774710589694" lon="60.73110988692335"><ele>289.0</ele><time>2026-04-24T17:16:11Z</time></trkpt><trkpt lat="56.891696867710024" lon="60.73104775459804"><ele>289.0</ele><time>2026-04-24T17:16:12Z</time></trkpt><trkpt lat="56.89162361071439" lon="60.730981512994646"><ele>289.0</ele><time>2026-04-24T17:16:13Z</time></trkpt><trkpt lat="56.89155556713426" lon="60.7309185769173"><ele>287.8333333333333</ele><time>2026-04-24T17:16:14Z</time></trkpt><trkpt lat="56.89148651224755" lon="60.73086294299037"><ele>286.66666666666663</ele><time>2026-04-24T17:16:15Z</time></trkpt><trkpt lat="56.89142381642042" lon="60.730801684154585"><ele>285.5</ele><time>2026-04-24T17:16:16Z</time></trkpt><trkpt lat="56.89136741990963" lon="60.73074954877284"><ele>284.3333333333333</ele><time>2026-04-24T17:16:17Z</time></trkpt><trkpt lat="56.89126974973934" lon="60.730664352085235"><ele>283.1666666666667</ele><time>2026-04-24T17:16:19Z</time></trkpt><trkpt lat="56.89120861552996" lon="60.730618537703776"><ele>282.0</ele><time>2026-04-24T17:16:21Z</time></trkpt><trkpt lat="56.89112402869753" lon="60.73056344278157"><ele>282.0</ele><time>2026-04-24T17:16:24Z</time></trkpt><trkpt lat="56.89105451943686" lon="60.73053315084052"><ele>282.0</ele><time>2026-04-24T17:16:26Z</time></trkpt><trkpt lat="56.89098938739091" lon="60.73049921018699"><ele>282.0</ele><time>2026-04-24T17:16:28Z</time></trkpt><trkpt lat="56.89090445745596" lon="60.73045513389663"><ele>282.0</ele><time>2026-04-24T17:16:31Z</time></trkpt><trkpt lat="56.89082712930445" lon="60.7304757633651"><ele>282.0</ele><time>2026-04-24T17:16:33Z</time></trkpt><trkpt lat="56.89072625653868" lon="60.73049557974577"><ele>282.0</ele><time>2026-04-24T17:16:35Z</time></trkpt><trkpt lat="56.89061931547753" lon="60.73050468380761"><ele>281.8333333333333</ele><time>2026-04-24T17:16:37Z</time></trkpt><trkpt lat="56.89053766990711" lon="60.73047863598575"><ele>281.6666666666667</ele><time>2026-04-24T17:16:39Z</time></trkpt><trkpt lat="56.890465270601354" lon="60.730461521795746"><ele>281.5</ele><time>2026-04-24T17:16:41Z</time></trkpt><trkpt lat="56.89039377719431" lon="60.73040642770854"><ele>281.33333333333337</ele><time>2026-04-24T17:16:43Z</time></trkpt><trkpt lat="56.89029309777552" lon="60.73037408256296"><ele>281.1666666666667</ele><time>2026-04-24T17:16:45Z</time></trkpt><trkpt lat="56.8902167495272" lon="60.73036936613578"><ele>281.0</ele><time>2026-04-24T17:16:47Z</time></trkpt><trkpt lat="56.890134120946975" lon="60.73037703738917"><ele>281.33333333333337</ele><time>2026-04-24T17:16:49Z</time></trkpt><trkpt lat="56.89006257022311" lon="60.730379448586326"><ele>281.6666666666667</ele><time>2026-04-24T17:16:51Z</time></trkpt><trkpt lat="56.88999195862687" lon="60.73039508037853"><ele>282.0</ele><time>2026-04-24T17:16:54Z</time></trkpt><trkpt lat="56.88990457850331" lon="60.73039988099379"><ele>282.3333333333333</ele><time>2026-04-24T17:16:56Z</time></trkpt><trkpt lat="56.88982003200444" lon="60.73036034524801"><ele>282.66666666666663</ele><time>2026-04-24T17:16:58Z</time></trkpt><trkpt lat="56.88970855088121" lon="60.73033893811705"><ele>283.0</ele><time>2026-04-24T17:17:00Z</time></trkpt><trkpt lat="56.889644039930495" lon="60.73031532794977"><ele>283.0</ele><time>2026-04-24T17:17:01Z</time></trkpt><trkpt lat="56.88953326457858" lon="60.730284524273955"><ele>283.0</ele><time>2026-04-24T17:17:03Z</time></trkpt><trkpt lat="56.88945339857835" lon="60.730268079493655"><ele>283.0</ele><time>2026-04-24T17:17:05Z</time></trkpt><trkpt lat="56.8893863303285" lon="60.73026766890086"><ele>283.0</ele><time>2026-04-24T17:17:07Z</time></trkpt><trkpt lat="56.88930918185004" lon="60.73025849749595"><ele>283.0</ele><time>2026-04-24T17:17:09Z</time></trkpt><trkpt lat="56.889229323575975" lon="60.730225069149824"><ele>283.0</ele><time>2026-04-24T17:17:11Z</time></trkpt><trkpt lat="56.88916468849239" lon="60.73019999347044"><ele>284.0</ele><time>2026-04-24T17:17:13Z</time></trkpt><trkpt lat="56.88910053320167" lon="60.730154521217706"><ele>285.0</ele><time>2026-04-24T17:17:15Z</time></trkpt><trkpt lat="56.889040923994244" lon="60.73010811022103"><ele>286.0</ele><time>2026-04-24T17:17:17Z</time></trkpt><trkpt lat="56.88898150589708" lon="60.73006738915812"><ele>287.0</ele><time>2026-04-24T17:17:19Z</time></trkpt><trkpt lat="56.88890322618808" lon="60.73004062501747"><ele>288.0</ele><time>2026-04-24T17:17:22Z</time></trkpt><trkpt lat="56.888838722726575" lon="60.73002277742765"><ele>289.0</ele><time>2026-04-24T17:17:25Z</time></trkpt><trkpt lat="56.88877778152782" lon="60.72996989300142"><ele>290.0</ele><time>2026-04-24T17:17:28Z</time></trkpt><trkpt lat="56.888711702846315" lon="60.729827159947604"><ele>290.0</ele><time>2026-04-24T17:17:30Z</time></trkpt><trkpt lat="56.8886288544611" lon="60.72964510008645"><ele>290.0</ele><time>2026-04-24T17:17:32Z</time></trkpt><trkpt lat="56.888585382513554" lon="60.729546203157796"><ele>290.0</ele><time>2026-04-24T17:17:33Z</time></trkpt><trkpt lat="56.88853866649126" lon="60.72944247904838"><ele>290.0</ele><time>2026-04-24T17:17:34Z</time></trkpt><trkpt lat="56.88850135123128" lon="60.72934250975092"><ele>290.0</ele><time>2026-04-24T17:17:35Z</time></trkpt><trkpt lat="56.8884504969055" lon="60.729244255021015"><ele>290.0</ele><time>2026-04-24T17:17:36Z</time></trkpt><trkpt lat="56.888402933211125" lon="60.72914416327823"><ele>289.6666666666667</ele><time>2026-04-24T17:17:37Z</time></trkpt><trkpt lat="56.88835037467006" lon="60.729046142784014"><ele>289.33333333333337</ele><time>2026-04-24T17:17:38Z</time></trkpt><trkpt lat="56.88830850613332" lon="60.72892727076234"><ele>289.0</ele><time>2026-04-24T17:17:39Z</time></trkpt><trkpt lat="56.88825710217368" lon="60.728807275155276"><ele>288.6666666666667</ele><time>2026-04-24T17:17:40Z</time></trkpt><trkpt lat="56.88820470958284" lon="60.72867558227245"><ele>288.3333333333333</ele><time>2026-04-24T17:17:41.001Z</time></trkpt><trkpt lat="56.888160391582495" lon="60.72855364334958"><ele>288.0</ele><time>2026-04-24T17:17:42.001Z</time></trkpt><trkpt lat="56.88811330480968" lon="60.72845336145976"><ele>288.0</ele><time>2026-04-24T17:17:43.001Z</time></trkpt><trkpt lat="56.88807221489326" lon="60.7283631079981"><ele>288.0</ele><time>2026-04-24T17:17:44.001Z</time></trkpt><trkpt lat="56.88802713547958" lon="60.72826599019535"><ele>288.0</ele><time>2026-04-24T17:17:45.001Z</time></trkpt><trkpt lat="56.887984392677076" lon="60.7281375467737"><ele>288.0</ele><time>2026-04-24T17:17:46.001Z</time></trkpt><trkpt lat="56.88794089050674" lon="60.728029406906956"><ele>288.0</ele><time>2026-04-24T17:17:47.001Z</time></trkpt><trkpt lat="56.88789981756861" lon="60.727900060515736"><ele>288.0</ele><time>2026-04-24T17:17:48.001Z</time></trkpt><trkpt lat="56.88785210440841" lon="60.727781056187105"><ele>288.0</ele><time>2026-04-24T17:17:49.001Z</time></trkpt><trkpt lat="56.88779715241263" lon="60.727652390617784"><ele>288.0</ele><time>2026-04-24T17:17:50.001Z</time></trkpt><trkpt lat="56.887731317835545" lon="60.727506451094555"><ele>288.0</ele><time>2026-04-24T17:17:51.001Z</time></trkpt><trkpt lat="56.88767657315578" lon="60.72736866380448"><ele>288.0</ele><time>2026-04-24T17:17:52.001Z</time></trkpt><trkpt lat="56.88761494115634" lon="60.727241770879246"><ele>288.0</ele><time>2026-04-24T17:17:53.001Z</time></trkpt><trkpt lat="56.8875452589588" lon="60.72710972803036"><ele>287.5</ele><time>2026-04-24T17:17:54.001Z</time></trkpt><trkpt lat="56.88748574714957" lon="60.7269597476084"><ele>287.0</ele><time>2026-04-24T17:17:55.001Z</time></trkpt><trkpt lat="56.88742840505431" lon="60.72683777470817"><ele>286.5</ele><time>2026-04-24T17:17:56.001Z</time></trkpt><trkpt lat="56.88737566808182" lon="60.72672279609633"><ele>286.0</ele><time>2026-04-24T17:17:57.001Z</time></trkpt><trkpt lat="56.88732974746859" lon="60.72659284188074"><ele>285.5</ele><time>2026-04-24T17:17:58.001Z</time></trkpt><trkpt lat="56.88728396308014" lon="60.72647489975113"><ele>285.0</ele><time>2026-04-24T17:17:59.001Z</time></trkpt><trkpt lat="56.887234113651964" lon="60.726341987810564"><ele>285.0</ele><time>2026-04-24T17:18:00.001Z</time></trkpt><trkpt lat="56.887182242021844" lon="60.72620795100195"><ele>285.0</ele><time>2026-04-24T17:18:01.001Z</time></trkpt><trkpt lat="56.88712994961728" lon="60.72608021037562"><ele>285.0</ele><time>2026-04-24T17:18:02.001Z</time></trkpt><trkpt lat="56.88707735996318" lon="60.72595176275732"><ele>285.0</ele><time>2026-04-24T17:18:03.001Z</time></trkpt><trkpt lat="56.88701408288454" lon="60.72585255164673"><ele>285.0</ele><time>2026-04-24T17:18:04.001Z</time></trkpt><trkpt lat="56.88698212887721" lon="60.725711032964284"><ele>285.0</ele><time>2026-04-24T17:18:05.001Z</time></trkpt><trkpt lat="56.886909743080466" lon="60.725607531843515"><ele>285.3333333333333</ele><time>2026-04-24T17:18:06.001Z</time></trkpt><trkpt lat="56.886854013356015" lon="60.72548681192057"><ele>285.6666666666667</ele><time>2026-04-24T17:18:07.001Z</time></trkpt><trkpt lat="56.88680264949228" lon="60.725360818858185"><ele>286.0</ele><time>2026-04-24T17:18:08.001Z</time></trkpt><trkpt lat="56.88675571134324" lon="60.72523701053618"><ele>286.33333333333337</ele><time>2026-04-24T17:18:09.001Z</time></trkpt><trkpt lat="56.88671389685458" lon="60.72512220344464"><ele>286.6666666666667</ele><time>2026-04-24T17:18:10.001Z</time></trkpt><trkpt lat="56.886673132141006" lon="60.725013750837775"><ele>287.0</ele><time>2026-04-24T17:18:11.001Z</time></trkpt><trkpt lat="56.8866457614917" lon="60.72488876601824"><ele>287.0</ele><time>2026-04-24T17:18:12.001Z</time></trkpt><trkpt lat="56.88658976881302" lon="60.72478834734588"><ele>287.0</ele><time>2026-04-24T17:18:13.001Z</time></trkpt><trkpt lat="56.886559841569756" lon="60.7246516858427"><ele>287.0</ele><time>2026-04-24T17:18:14.001Z</time></trkpt><trkpt lat="56.886519374558226" lon="60.72454090595579"><ele>287.0</ele><time>2026-04-24T17:18:15.001Z</time></trkpt><trkpt lat="56.88646786659874" lon="60.7244541239559"><ele>287.0</ele><time>2026-04-24T17:18:16.001Z</time></trkpt><trkpt lat="56.88643387232296" lon="60.724355637850614"><ele>287.0</ele><time>2026-04-24T17:18:17.001Z</time></trkpt><trkpt lat="56.88637529218227" lon="60.72419002110933"><ele>286.83333333333337</ele><time>2026-04-24T17:18:19.001Z</time></trkpt><trkpt lat="56.886308181112284" lon="60.72401705123327"><ele>286.6666666666667</ele><time>2026-04-24T17:18:21.001Z</time></trkpt><trkpt lat="56.88627281850268" lon="60.72391528693761"><ele>286.5</ele><time>2026-04-24T17:18:22.001Z</time></trkpt><trkpt lat="56.886218076891325" lon="60.723762844697234"><ele>286.3333333333333</ele><time>2026-04-24T17:18:24.001Z</time></trkpt><trkpt lat="56.88618395533536" lon="60.723658511805915"><ele>286.16666666666663</ele><time>2026-04-24T17:18:26.001Z</time></trkpt><trkpt lat="56.886111988252644" lon="60.72363298662873"><ele>286.0</ele><time>2026-04-24T17:19:37Z</time></trkpt><trkpt lat="56.88606901638872" lon="60.72372664814951"><ele>286.0</ele><time>2026-04-24T17:20:09Z</time></trkpt><trkpt lat="56.886060803231" lon="60.72386443068294"><ele>286.0</ele><time>2026-04-24T17:20:17Z</time></trkpt><trkpt lat="56.88612106759215" lon="60.72360168035669"><ele>286.0</ele><time>2026-04-24T17:22:56Z</time></trkpt></trkseg></trk></gpx>